[[{"header":{"parameterUnit":"m.s-1","parameterCategory":1,"la1":30.6,"la2":29.2853,"lo1":-89.7004,"lo2":-87.6739,"dy":0.0162,"dx":0.0183,"nx":112,"ny":82,"refTime":"2024-05-12T18:00:00:Z","depth":0,"parameterNumber":2,"parameterNumberName":"U-component_of_WINDS"},"data":[0.0,0.0,0.0,0.0,0.0,0.0,0.0,0.0,0.0,0.0,0.0,0.0,0.0,0.0,0.0,0.0,0.0,0.0,0.0,0.0,0.0,0.0,0.0,0.0,0.0,0.0,0.0,0.0,0.0,0.0,0.0,0.0,0.0,0.0,0.0,0.0,0.0,0.0,0.0,0.0,0.0,0.0,0.0,0.0,0.0,0.0,0.0,0.0,0.0,0.0,0.0,0.0,0.0,0.0,0.0,0.0,0.0,0.0,0.0,0.0,0.0,0.0,0.0,0.0,0.0,0.0,0.0,0.0,0.0,0.0,0.0,0.0,0.0,0.0,0.0,0.0,0.0,0.0,0.0,0.0,0.0,0.0,0.0,0.0,0.0,0.0,0.0,0.0,0.0,0.0,0.0,-2.855,-3.0407,-3.0538,-2.8082,-2.6404,-2.371,-1.9442,0.0,0.0,0.0,0.0,0.0,0.0,0.0,0.0,0.0,0.0,0.0,0.0,0.0,0.0,0.0,0.0,0.0,0.0,0.0,0.0,0.0,0.0,0.0,0.0,0.0,0.0,0.0,0.0,0.0,0.0,0.0,0.0,0.0,0.0,0.0,0.0,0.0,0.0,0.0,0.0,0.0,0.0,0.0,0.0,0.0,0.0,0.0,0.0,0.0,0.0,0.0,0.0,0.0,0.0,0.0,0.0,0.0,0.0,0.0,0.0,0.0,0.0,0.0,0.0,0.0,0.0,0.0,0.0,0.0,0.0,0.0,0.0,0.0,0.0,0.0,0.0,0.0,0.0,0.0,0.0,0.0,0.0,0.0,0.0,0.0,0.0,0.0,0.0,0.0,0.0,0.0,0.0,0.0,0.0,0.0,0.0,0.0,0.0,0.0,0.0,0.0,0.0,0.0,0.0,-2.8262,-3.1245,-3.1888,-3.066,-2.713,-2.5208,-2.2601,-1.8915,0.0,0.0,0.0,0.0,0.0,0.0,0.0,0.0,0.0,0.0,0.0,0.0,0.0,0.0,0.0,0.0,0.0,0.0,0.0,0.0,0.0,0.0,0.0,0.0,0.0,0.0,0.0,0.0,0.0,0.0,0.0,0.0,0.0,0.0,0.0,0.0,0.0,0.0,0.0,0.0,0.0,0.0,0.0,0.0,0.0,0.0,0.0,0.0,0.0,0.0,0.0,0.0,0.0,0.0,0.0,0.0,0.0,0.0,0.0,0.0,0.0,0.0,0.0,0.0,0.0,0.0,0.0,0.0,0.0,0.0,0.0,0.0,0.0,0.0,0.0,0.0,0.0,0.0,0.0,0.0,0.0,0.0,0.0,0.0,0.0,0.0,0.0,0.0,0.0,0.0,0.0,0.0,0.0,0.0,0.0,0.0,0.0,0.0,0.0,0.0,0.0,0.0,0.0,-2.8097,-2.9202,-3.1913,-3.1938,-3.0367,-2.6903,-2.4703,-2.2089,-1.8797,-1.7135,0.0,0.0,0.0,0.0,0.0,0.0,0.0,0.0,0.0,0.0,0.0,0.0,0.0,0.0,0.0,0.0,0.0,0.0,0.0,0.0,0.0,0.0,0.0,0.0,0.0,0.0,0.0,0.0,0.0,0.0,0.0,0.0,0.0,0.0,0.0,0.0,0.0,0.0,0.0,0.0,0.0,0.0,0.0,0.0,0.0,0.0,0.0,0.0,0.0,0.0,0.0,0.0,0.0,0.0,0.0,0.0,0.0,0.0,0.0,0.0,0.0,0.0,0.0,0.0,0.0,0.0,0.0,0.0,0.0,0.0,0.0,0.0,0.0,0.0,0.0,0.0,0.0,0.0,0.0,0.0,0.0,0.0,0.0,0.0,0.0,0.0,0.0,0.0,0.0,0.0,0.0,0.0,0.0,0.0,0.0,0.0,0.0,0.0,0.0,0.0,0.0,0.0,-3.008,-3.0317,-3.2039,-3.1838,-3.0122,-2.6563,-2.4286,-2.1774,-1.8778,-1.6413,0.0,0.0,0.0,0.0,0.0,0.0,0.0,0.0,0.0,0.0,0.0,0.0,0.0,0.0,0.0,0.0,0.0,0.0,0.0,0.0,0.0,0.0,0.0,0.0,0.0,0.0,0.0,0.0,0.0,0.0,0.0,0.0,0.0,0.0,0.0,0.0,0.0,0.0,0.0,0.0,0.0,0.0,0.0,0.0,0.0,0.0,0.0,0.0,0.0,0.0,0.0,0.0,0.0,0.0,0.0,0.0,0.0,0.0,0.0,0.0,0.0,0.0,0.0,0.0,0.0,0.0,0.0,0.0,0.0,0.0,0.0,0.0,0.0,0.0,0.0,0.0,0.0,0.0,0.0,0.0,0.0,0.0,0.0,0.0,0.0,0.0,0.0,0.0,0.0,0.0,0.0,0.0,0.0,0.0,0.0,0.0,0.0,0.0,0.0,0.0,0.0,0.0,-3.0457,-3.2039,-3.219,-3.219,-3.0286,-2.5711,-2.3654,-2.1491,-1.8758,-1.5888,0.0,0.0,0.0,0.0,0.0,0.0,0.0,0.0,0.0,0.0,0.0,0.0,0.0,0.0,0.0,0.0,0.0,0.0,0.0,0.0,0.0,0.0,0.0,0.0,0.0,0.0,0.0,0.0,0.0,0.0,0.0,0.0,0.0,0.0,0.0,0.0,0.0,0.0,0.0,0.0,0.0,0.0,0.0,0.0,0.0,0.0,0.0,0.0,0.0,0.0,0.0,0.0,0.0,0.0,0.0,0.0,0.0,0.0,0.0,0.0,0.0,0.0,0.0,0.0,0.0,0.0,0.0,0.0,0.0,0.0,0.0,0.0,0.0,0.0,0.0,0.0,0.0,0.0,0.0,0.0,0.0,0.0,0.0,0.0,0.0,0.0,0.0,0.0,0.0,0.0,0.0,0.0,0.0,0.0,0.0,0.0,0.0,0.0,0.0,0.0,0.0,0.0,-2.9302,-3.0557,0.0,-3.1411,-2.9576,-2.5535,-2.3585,-2.1447,-1.8758,0.0,0.0,0.0,0.0,0.0,0.0,0.0,0.0,0.0,0.0,0.0,0.0,0.0,0.0,0.0,0.0,0.0,0.0,0.0,0.0,0.0,0.0,0.0,0.0,0.0,0.0,0.0,0.0,0.0,0.0,0.0,0.0,0.0,0.0,0.0,0.0,0.0,0.0,0.0,0.0,0.0,0.0,0.0,0.0,0.0,0.0,0.0,0.0,0.0,0.0,0.0,0.0,0.0,0.0,0.0,0.0,0.0,0.0,0.0,0.0,0.0,0.0,0.0,0.0,0.0,0.0,0.0,0.0,0.0,0.0,0.0,0.0,0.0,0.0,0.0,0.0,0.0,0.0,0.0,0.0,0.0,0.0,0.0,0.0,0.0,0.0,0.0,0.0,0.0,0.0,0.0,0.0,0.0,0.0,0.0,0.0,0.0,0.0,0.0,0.0,0.0,0.0,-2.8072,-2.8963,-2.9955,0.0,-3.0934,-2.9278,-2.5954,-2.3501,-2.1374,-1.943,0.0,0.0,0.0,0.0,0.0,0.0,0.0,0.0,0.0,0.0,0.0,0.0,0.0,0.0,0.0,0.0,0.0,0.0,0.0,0.0,0.0,0.0,0.0,0.0,0.0,0.0,0.0,0.0,0.0,0.0,0.0,0.0,0.0,0.0,0.0,0.0,0.0,0.0,0.0,0.0,0.0,0.0,0.0,0.0,0.0,0.0,0.0,0.0,0.0,0.0,0.0,0.0,0.0,0.0,0.0,0.0,0.0,0.0,0.0,0.0,0.0,0.0,0.0,0.0,0.0,0.0,0.0,0.0,0.0,0.0,0.0,0.0,0.0,0.0,0.0,0.0,0.0,0.0,0.0,0.0,0.0,0.0,0.0,0.0,0.0,0.0,0.0,0.0,0.0,0.0,0.0,0.0,0.0,0.0,0.0,0.0,0.0,0.0,0.0,0.0,0.0,0.0,-2.8687,-2.9905,-3.0809,-3.1336,-3.0909,-2.9514,-2.6846,-2.3357,-2.118,0.0,0.0,0.0,0.0,0.0,0.0,0.0,0.0,0.0,0.0,0.0,0.0,0.0,0.0,0.0,0.0,0.0,0.0,0.0,0.0,0.0,0.0,0.0,0.0,0.0,0.0,0.0,0.0,0.0,0.0,0.0,0.0,0.0,0.0,0.0,0.0,0.0,0.0,0.0,0.0,0.0,0.0,0.0,0.0,0.0,0.0,0.0,0.0,0.0,0.0,0.0,0.0,0.0,0.0,0.0,0.0,0.0,0.0,0.0,0.0,0.0,0.0,0.0,0.0,0.0,0.0,0.0,0.0,0.0,0.0,0.0,0.0,0.0,0.0,0.0,0.0,0.0,0.0,0.0,0.0,0.0,0.0,0.0,0.0,0.0,0.0,0.0,0.0,0.0,0.0,0.0,0.0,0.0,0.0,0.0,0.0,0.0,0.0,0.0,0.0,0.0,0.0,0.0,-2.8687,-2.9578,-3.0382,-3.1286,-3.0583,-2.9305,-2.7411,-2.4276,-2.2108,-2.1403,0.0,0.0,0.0,0.0,0.0,0.0,0.0,0.0,0.0,0.0,0.0,0.0,0.0,0.0,0.0,0.0,0.0,0.0,0.0,0.0,0.0,0.0,0.0,0.0,0.0,0.0,0.0,0.0,0.0,0.0,0.0,0.0,0.0,0.0,0.0,0.0,0.0,0.0,0.0,0.0,0.0,0.0,0.0,0.0,0.0,0.0,0.0,0.0,0.0,0.0,0.0,0.0,0.0,0.0,0.0,0.0,0.0,0.0,0.0,0.0,0.0,0.0,0.0,0.0,0.0,0.0,0.0,0.0,0.0,0.0,0.0,0.0,0.0,0.0,0.0,0.0,0.0,0.0,0.0,0.0,0.0,0.0,0.0,0.0,0.0,0.0,0.0,0.0,0.0,0.0,0.0,0.0,0.0,0.0,0.0,0.0,0.0,0.0,0.0,0.0,0.0,0.0,-2.9715,-3.0209,-3.0778,-3.1946,-3.0708,-2.9322,-2.8166,-2.5147,-2.294,-2.2077,0.0,0.0,0.0,0.0,0.0,0.0,0.0,0.0,0.0,0.0,0.0,0.0,0.0,0.0,0.0,0.0,0.0,0.0,0.0,0.0,0.0,0.0,0.0,0.0,0.0,0.0,0.0,0.0,0.0,0.0,0.0,0.0,0.0,0.0,0.0,0.0,0.0,0.0,0.0,0.0,0.0,0.0,0.0,0.0,0.0,0.0,0.0,0.0,0.0,0.0,0.0,0.0,0.0,0.0,0.0,0.0,0.0,0.0,0.0,0.0,0.0,0.0,0.0,0.0,0.0,0.0,0.0,0.0,0.0,0.0,0.0,0.0,0.0,0.0,0.0,0.0,0.0,0.0,0.0,0.0,0.0,0.0,0.0,0.0,0.0,0.0,0.0,0.0,0.0,0.0,0.0,0.0,0.0,0.0,0.0,0.0,0.0,0.0,0.0,0.0,0.0,0.0,-3.1371,-3.146,-3.1732,-3.2868,-3.1125,-2.9628,-2.9013,-2.5955,-2.37,-2.2893,0.0,0.0,0.0,0.0,0.0,0.0,0.0,0.0,0.0,0.0,0.0,0.0,0.0,0.0,0.0,0.0,0.0,0.0,0.0,0.0,0.0,0.0,0.0,0.0,0.0,0.0,0.0,0.0,0.0,0.0,0.0,0.0,0.0,0.0,0.0,0.0,0.0,0.0,0.0,0.0,0.0,0.0,0.0,0.0,0.0,0.0,0.0,0.0,0.0,0.0,0.0,0.0,0.0,0.0,0.0,0.0,0.0,0.0,0.0,0.0,-2.9352,0.0,0.0,0.0,0.0,0.0,0.0,0.0,0.0,0.0,0.0,0.0,0.0,0.0,0.0,0.0,0.0,0.0,0.0,0.0,0.0,0.0,0.0,0.0,0.0,0.0,0.0,0.0,0.0,0.0,0.0,0.0,0.0,0.0,0.0,0.0,0.0,0.0,0.0,0.0,0.0,0.0,-3.2038,-3.2078,-3.2143,-3.2895,-3.1458,-3.0206,-2.9654,-2.6937,-2.4871,-2.402,0.0,0.0,0.0,0.0,0.0,0.0,0.0,0.0,0.0,0.0,0.0,0.0,0.0,0.0,0.0,0.0,0.0,0.0,0.0,0.0,0.0,0.0,0.0,0.0,0.0,0.0,0.0,0.0,0.0,0.0,0.0,0.0,0.0,0.0,0.0,0.0,0.0,0.0,0.0,0.0,0.0,0.0,0.0,0.0,0.0,0.0,0.0,0.0,0.0,0.0,0.0,0.0,0.0,0.0,0.0,0.0,0.0,0.0,0.0,0.0,0.0,-3.2001,0.0,0.0,0.0,0.0,0.0,0.0,0.0,0.0,0.0,0.0,0.0,0.0,0.0,0.0,0.0,0.0,0.0,0.0,0.0,0.0,0.0,0.0,0.0,0.0,0.0,0.0,0.0,0.0,0.0,0.0,0.0,0.0,0.0,0.0,0.0,0.0,0.0,0.0,0.0,0.0,-3.3217,-3.3487,-3.3532,-3.3745,-3.2318,-3.0944,-2.9868,-2.7946,-2.6267,-2.5007,-2.2228,0.0,0.0,0.0,0.0,0.0,0.0,0.0,0.0,0.0,0.0,0.0,0.0,0.0,0.0,0.0,0.0,0.0,0.0,0.0,0.0,0.0,0.0,0.0,0.0,0.0,0.0,0.0,0.0,0.0,0.0,0.0,0.0,0.0,0.0,0.0,0.0,0.0,0.0,0.0,0.0,0.0,0.0,0.0,0.0,0.0,0.0,0.0,0.0,0.0,0.0,0.0,0.0,0.0,-4.2233,-4.2811,-4.3031,-4.3639,-4.3639,-4.3031,-4.0676,-3.8417,-3.6285,0.0,0.0,0.0,0.0,0.0,0.0,0.0,0.0,0.0,0.0,0.0,0.0,0.0,0.0,0.0,0.0,0.0,0.0,0.0,0.0,0.0,0.0,0.0,0.0,0.0,-3.5703,-3.4248,0.0,0.0,0.0,0.0,0.0,0.0,0.0,0.0,0.0,0.0,0.0,0.0,-3.3755,-3.4424,-3.4625,-3.4351,-3.3019,-3.151,-2.9945,-2.885,-2.757,-2.5988,-2.4141,-2.2176,0.0,0.0,0.0,0.0,0.0,0.0,0.0,0.0,0.0,0.0,0.0,0.0,0.0,0.0,0.0,0.0,0.0,0.0,0.0,0.0,0.0,0.0,0.0,0.0,0.0,0.0,0.0,0.0,0.0,0.0,0.0,0.0,-2.8907,-2.9324,0.0,0.0,0.0,0.0,0.0,0.0,0.0,0.0,0.0,0.0,0.0,0.0,0.0,-4.3614,-4.3539,-4.7179,-4.8535,-4.7606,-5.0092,-5.082,-4.9992,-5.0544,-5.0745,-5.0645,-4.9791,0.0,-3.9747,-3.814,0.0,0.0,0.0,0.0,0.0,0.0,0.0,0.0,0.0,0.0,0.0,0.0,0.0,0.0,0.0,0.0,0.0,0.0,0.0,0.0,0.0,0.0,-3.7901,-3.7366,-3.7563,-3.7271,0.0,-3.2941,-3.0733,-2.8813,-2.7519,0.0,0.0,0.0,0.0,0.0,0.0,0.0,-3.1969,-3.3008,-3.3532,-3.3245,-3.2523,-3.1434,-2.9945,-2.9202,-2.8323,-2.7143,-2.5486,-2.4074,-2.2989,-2.0706,0.0,0.0,0.0,0.0,0.0,0.0,0.0,0.0,0.0,0.0,0.0,0.0,0.0,0.0,0.0,0.0,0.0,0.0,0.0,0.0,0.0,0.0,0.0,0.0,0.0,0.0,0.0,0.0,0.0,-3.0734,-3.322,-3.2532,-3.5258,-3.6124,0.0,0.0,0.0,0.0,0.0,0.0,0.0,0.0,0.0,-4.4644,-4.7682,-4.9289,-4.9289,-5.2201,-5.3281,-5.2503,-5.4034,-5.4511,-5.4059,-5.431,-5.4411,-5.4411,-5.416,-5.1724,-4.7631,-4.379,-4.1028,-3.8994,0.0,0.0,0.0,0.0,-3.804,-3.8291,-4.0475,-4.0425,0.0,0.0,0.0,0.0,0.0,0.0,0.0,0.0,0.0,0.0,0.0,0.0,0.0,-3.9134,-3.9759,-4.0053,-3.9753,-3.7581,-3.4555,0.0,-3.0055,-2.9793,-2.8423,0.0,0.0,0.0,0.0,0.0,-3.2467,-3.3173,-3.3383,-3.3038,-3.2955,-3.2064,-2.9984,-3.0537,-3.0069,-2.7893,-2.6985,-2.5709,-2.3845,-2.237,-2.1228,0.0,0.0,0.0,0.0,0.0,0.0,0.0,0.0,0.0,0.0,0.0,0.0,0.0,0.0,0.0,0.0,0.0,0.0,0.0,0.0,0.0,0.0,0.0,0.0,0.0,0.0,0.0,0.0,-3.3934,-3.6855,-3.5271,-3.9642,-4.1125,0.0,0.0,0.0,0.0,0.0,0.0,-4.3998,-4.6577,-4.856,-4.9791,-5.2804,-5.4411,-5.4411,-5.6319,-5.7047,-5.6646,-5.7072,-5.7349,-5.7474,-5.7323,-5.7273,-5.7248,-5.6972,-5.5968,-5.416,-4.8912,-4.5271,-4.278,-4.1053,-4.0074,-3.9923,-4.1731,-4.2233,-4.2409,-4.5321,-4.5221,-4.374,-4.3187,0.0,-3.9346,-3.6307,0.0,0.0,0.0,0.0,-3.6386,-3.7074,-3.7613,-3.8562,-4.069,-4.1732,-4.2382,-4.2838,-4.1726,-3.9024,0.0,-3.2541,-3.2139,-2.993,0.0,0.0,0.0,0.0,-3.1209,-3.2492,-3.3088,-3.3338,-3.3211,-3.3414,-3.2715,-3.0586,-3.1532,-3.119,-2.8788,-2.8213,-2.7122,-2.5243,-2.3971,-2.265,-2.1193,0.0,0.0,0.0,0.0,0.0,0.0,0.0,0.0,0.0,0.0,0.0,0.0,0.0,0.0,0.0,0.0,0.0,0.0,0.0,0.0,0.0,0.0,0.0,0.0,0.0,0.0,0.0,0.0,0.0,-3.6608,-4.2519,0.0,0.0,0.0,0.0,-4.3388,-4.5472,-4.7456,-4.9138,-5.1373,-5.3331,-5.4963,-5.7223,-5.8428,-5.8428,-5.9558,-6.0111,-6.006,-6.0111,-6.0412,-6.0914,-6.0362,-6.0111,-6.006,-5.9031,-5.7926,-5.652,-5.2026,-4.9138,-4.7355,-4.5196,-4.4317,-4.4367,-4.5045,-4.5598,-4.605,-4.625,-4.6225,-4.6301,-4.728,-4.5397,-4.2359,-4.0099,-3.8316,0.0,0.0,-3.7838,-3.8844,-3.9371,-3.9948,-4.0638,-4.2028,-4.3256,-4.4049,-4.3539,-4.4311,-4.3336,0.0,-3.41,-3.2039,-3.1386,0.0,-2.9756,-2.9781,-3.0273,-3.0626,-3.0702,-3.198,-3.3067,-3.3688,-3.3544,-3.3063,-3.2152,-3.1585,-3.0929,-3.0141,-2.8809,-2.815,-2.8287,-2.5486,-2.3898,-2.3816,-2.1426,0.0,0.0,0.0,0.0,0.0,0.0,0.0,0.0,0.0,0.0,0.0,0.0,0.0,0.0,0.0,0.0,0.0,0.0,0.0,0.0,0.0,0.0,0.0,0.0,0.0,0.0,0.0,0.0,-4.3863,-4.89,0.0,-4.6476,-4.7431,-4.841,-4.8611,-5.067,-5.2628,-5.4285,-5.6143,-5.775,-5.9081,-6.0236,-6.1014,-6.1366,-6.1743,-6.1768,-6.1416,-6.1416,-6.114,-6.0613,-6.0412,-6.0111,-5.9759,-5.9031,-5.8077,-5.6846,-5.4561,-5.2427,-5.0469,-4.8937,-4.8134,-4.7883,-4.846,-4.9012,-4.9565,-4.9916,-4.9565,-4.8661,-4.6928,-4.4819,-4.276,-4.1685,-4.0375,-3.9396,-3.9747,-3.9898,-4.0049,-4.0601,-4.0626,-4.0606,-4.1051,-4.1896,-4.2717,-4.3368,-4.3882,-4.3704,-4.2081,-3.9326,-3.6918,-3.6074,-3.4254,-3.3095,-3.3461,-3.2472,-3.1876,-3.2578,-3.2843,-3.2778,-3.2305,-3.3024,-3.2742,-3.0829,-3.1213,-3.0681,-2.8472,-2.8127,-2.7411,-2.6184,-2.4387,-2.3421,-2.3421,-2.1857,-2.1391,0.0,0.0,0.0,0.0,0.0,0.0,0.0,0.0,0.0,0.0,0.0,0.0,0.0,0.0,0.0,0.0,0.0,0.0,0.0,0.0,0.0,0.0,0.0,0.0,0.0,0.0,-4.9394,-4.9216,-5.3858,-5.5516,-5.1649,-5.2452,-5.3381,-5.3758,-5.5491,-5.7248,-5.8905,-6.0211,-6.124,-6.1994,-6.2395,-6.2647,-6.2822,-6.2822,-6.2647,-6.227,-6.2094,-6.1617,-6.0864,-6.0487,-6.0111,-5.9734,-5.9031,-5.8202,-5.7223,-5.5917,-5.4411,-5.2829,-5.1699,-5.1046,-5.077,-5.1122,-5.1498,-5.1875,-5.2051,-5.1848,-5.1036,-4.8227,-4.6345,-4.5047,-4.4305,-4.3051,-4.1982,-4.2278,-4.2057,-4.1706,-4.2082,-4.1756,-4.1254,-4.0877,-4.1492,-4.2266,-4.2722,-4.3551,-4.4283,-4.478,-4.254,-4.0209,-3.9117,-3.7393,-3.6309,-3.6726,-3.5159,-3.4242,-3.5144,-3.4566,-3.3925,-3.3609,-3.4043,-3.3707,-3.2027,-3.1983,-3.1061,-2.8754,-2.8271,-2.7452,-2.6042,-2.5014,-2.4398,-2.4216,-2.2899,-2.2524,-2.3207,0.0,0.0,0.0,0.0,0.0,0.0,0.0,0.0,0.0,0.0,0.0,0.0,0.0,0.0,0.0,0.0,0.0,0.0,0.0,0.0,0.0,0.0,0.0,-4.372,-4.9204,-5.3032,-5.2207,-5.7013,-5.8981,-5.5214,-5.6319,-5.7725,-5.8805,-5.9859,-6.1165,-6.2797,-6.3425,-6.3726,-6.3726,-6.3701,-6.3425,-6.2873,-6.2847,-6.2822,-6.2797,-6.227,-6.1994,-6.1918,-6.0814,-6.0311,-6.0211,-5.9156,-5.8353,-5.77,-5.6043,-5.5039,-5.4411,-5.3331,-5.2929,-5.2929,-5.2929,-5.2929,-5.2854,-5.2277,-5.2756,-5.3286,-5.1549,-5.0326,-4.9367,-4.8114,-4.6295,-4.4702,-4.4644,-4.4242,-4.3815,-4.3815,-4.3388,-4.271,-4.1551,-4.2211,-4.2836,-4.1805,-4.3551,-4.5298,-4.5343,-4.3364,-4.1394,-4.0352,-3.9602,-3.9186,-3.9284,-3.8158,0.0,-3.8158,-3.7078,-3.6671,-3.7653,-3.6675,-3.5964,-3.5978,-3.3923,-3.2165,-3.1057,-2.9339,-2.8325,-2.8168,-2.7477,-2.6877,-2.6354,-2.4609,-2.3628,-2.3434,0.0,0.0,0.0,0.0,0.0,0.0,0.0,0.0,0.0,0.0,0.0,0.0,0.0,0.0,0.0,0.0,0.0,0.0,0.0,0.0,0.0,-4.7896,-5.1222,-5.0867,-5.4447,-5.7669,-5.9032,-6.1677,-6.2772,-6.1316,-6.1943,-6.2395,-6.232,-6.2948,-6.3525,-6.4002,-6.4178,-6.4254,-6.4254,-6.3877,-6.3626,-6.345,-6.3048,-6.2621,-6.222,-6.2069,-6.1567,-6.0763,-6.0462,-5.991,-5.9131,-5.8428,-5.7349,-5.6018,-5.5139,-5.4235,-5.3356,-5.3055,-5.2929,-5.2929,-5.2929,-5.2929,-5.2779,-5.185,-5.2448,-5.3234,-5.1136,-5.1019,-5.1238,-4.8983,-4.7612,-4.6596,-4.5573,-4.4844,-4.4292,-4.3915,-4.3388,-4.271,-4.1551,-4.1269,-4.1337,-4.1576,-4.2181,-4.293,-4.3834,-4.3055,-4.2597,-4.3669,-4.2896,-4.1986,-4.1586,-4.0134,0.0,-3.866,-3.8318,-3.7934,-3.754,-3.7482,-3.6974,-3.5817,-3.3879,-3.1585,-2.8937,-2.7985,-2.6867,-2.5478,-2.53,-2.519,-2.5024,-2.5795,-2.5691,0.0,0.0,0.0,0.0,0.0,0.0,0.0,0.0,0.0,0.0,0.0,0.0,0.0,0.0,0.0,0.0,0.0,0.0,0.0,0.0,0.0,0.0,-5.3168,-5.6972,-5.8353,-5.9834,-6.1592,-6.3827,-6.4731,-6.5132,-6.5082,-6.4906,-6.4881,-6.5057,-6.5132,-6.5258,-6.5509,-6.5283,-6.4931,-6.4479,-6.4178,-6.3802,-6.335,-6.2998,-6.2672,-6.2345,-6.1893,-6.1316,-6.0663,-6.0186,-5.9508,0.0,-5.8127,-5.7198,-5.5993,-5.4988,-5.4185,0.0,0.0,0.0,0.0,0.0,-5.2929,-5.2779,-5.1674,-5.2751,-5.4226,-5.1889,-5.2191,-5.3108,-5.0988,-4.9293,-4.7832,-4.6701,-4.557,-4.4493,-4.394,-4.3388,-4.271,-4.1551,-4.105,-4.0837,-4.0823,-4.1219,-4.1838,-4.2544,0.0,0.0,-4.3704,-4.3316,-4.3005,-4.316,-4.1873,-4.0832,-4.0715,-3.9944,-3.9255,-3.8726,-3.8364,-3.766,-3.6445,-3.4761,0.0,0.0,0.0,-2.7726,-2.6455,-2.6469,0.0,0.0,0.0,-2.7587,-2.648,0.0,0.0,0.0,-2.5441,-2.5524,0.0,0.0,0.0,0.0,0.0,0.0,0.0,0.0,0.0,0.0,0.0,0.0,0.0,0.0,0.0,0.0,-5.8679,-6.1969,-6.5132,-6.4906,-6.5082,-6.6865,-6.6614,-6.6513,-6.7015,-6.6112,-6.5886,-6.689,-6.6438,-6.6338,-6.6865,0.0,0.0,0.0,0.0,-6.3902,-6.2923,-6.2873,-6.2797,-6.2722,-6.1667,-6.114,-6.104,-6.0193,-5.9489,-5.8959,-5.8479,-5.7798,-5.7091,-5.5358,-5.4486,-5.4285,-5.3306,-5.2929,-5.2929,-5.2929,-5.2929,-5.2779,-5.1674,0.0,0.0,-5.3303,-5.3698,-5.4906,-5.353,-5.1182,-4.8828,-4.8012,-4.6404,-4.48,-4.4098,-4.3489,-4.2785,-4.1706,-4.1487,-4.1213,-4.005,-4.0744,-4.1541,-4.1419,-4.2301,-4.2766,-4.1782,-4.2097,-4.2849,-4.3872,-4.313,-4.2641,-4.311,-4.1713,-4.0636,-4.0636,0.0,0.0,-3.7704,-3.6177,-3.4153,-3.1483,-3.0407,-2.975,-2.9579,-2.9493,-2.9754,-3.0494,-2.9927,-2.9291,-2.8626,-2.8639,-2.892,-2.9394,-2.7151,-2.6947,0.0,0.0,0.0,0.0,0.0,0.0,0.0,0.0,0.0,0.0,0.0,0.0,0.0,0.0,0.0,-5.8177,-6.1868,-6.5032,-6.7041,-6.8271,-6.8648,-6.7744,-6.7543,-6.7518,-6.7618,-6.7041,-6.6739,-6.6965,-6.6438,-6.6162,-6.6287,-6.576,-6.5358,-6.5132,-6.4304,-6.3751,-6.3525,-6.3048,-6.2596,-6.2144,0.0,0.0,-6.0541,-6.1399,-6.1502,-6.0901,-6.0399,-5.9634,-5.8515,-5.5725,-5.4034,-5.3231,-5.3005,-5.2929,-5.2929,-5.2929,-5.2929,-5.2779,-5.1674,-5.3345,-5.5701,-5.3858,-5.4766,-5.6337,-5.4318,-5.2963,0.0,-4.906,-4.7722,-4.6716,-4.494,-4.4066,-4.3363,-4.2258,-4.2464,-4.2398,-4.0686,-4.1028,-4.1319,-4.0262,-4.0262,-4.0537,-4.079,-4.2129,-4.2941,-4.2225,-4.271,-4.3,-4.265,-4.2261,-4.2021,-4.2021,-4.1302,-4.0307,-3.914,-3.7739,-3.5592,-3.2367,-3.0986,-3.0536,-3.1041,-3.0565,-3.0352,-3.0492,-3.0888,-3.0719,-2.9924,-3.0953,-3.1492,-3.1546,-2.9928,-2.9608,0.0,0.0,0.0,0.0,0.0,0.0,0.0,0.0,0.0,0.0,0.0,-5.185,-5.3808,0.0,-6.0111,-6.3149,-6.5735,-6.7844,-6.925,-6.9903,-6.9853,-6.8748,-6.8874,-6.8924,-6.8648,-6.8371,-6.8221,-6.8221,-6.7442,-6.6965,-6.6965,-6.5886,-6.5157,-6.4881,-6.4103,-6.355,-6.3249,-6.2973,-6.2697,-6.2395,-6.1868,-6.1291,-6.0738,-6.1198,-6.1389,-6.1463,-6.0909,-6.0714,-6.0588,-5.7337,-5.4763,-5.2929,-5.2929,-5.2929,-5.2929,-5.2929,-5.2929,-5.2804,-5.1975,-5.3608,-5.5783,-5.4268,-5.5534,-5.7318,-5.5594,-5.4269,-5.2823,-4.9994,-4.8495,-4.7136,-4.482,-4.4016,-4.3514,-4.2464,-4.296,-4.3258,-4.1776,-4.2275,-4.2579,-4.0946,-4.0642,-4.0462,-3.9846,-4.0983,-4.198,-4.1995,-4.2274,-4.2581,-4.2802,-4.262,-4.241,-4.241,-4.1512,-4.0487,-3.9499,-3.7208,-3.494,-3.2912,-3.1486,-3.1034,-3.1835,-3.1542,-3.1545,-3.1988,-3.2347,-3.2288,-3.1895,-3.2542,-3.3013,-3.3336,-3.2603,-3.2237,0.0,0.0,0.0,0.0,0.0,0.0,0.0,0.0,-5.0331,-5.1234,-5.4173,-5.7248,-5.9709,-6.2245,-6.4906,-6.7819,-6.92,-7.0154,-7.0832,-7.0732,-7.0255,-6.9376,-6.9853,-7.0054,-6.9501,-6.9361,-6.9401,-6.93,-6.8271,-6.7643,-6.7643,-6.6036,-6.4931,-6.4479,-6.3852,-6.3299,-6.2822,-6.2822,-6.2822,-6.2822,-6.227,-6.1718,-6.1165,-6.0955,-6.1347,-6.2179,-6.1872,-6.1856,-6.1872,-5.8968,-5.6258,-5.3878,-5.3495,-5.3359,-5.3359,-5.2998,-5.2929,-5.2854,-5.2302,-5.3843,-5.5839,-5.4764,-5.6107,-5.7902,-5.6705,-5.544,-5.3786,-5.1222,-4.9364,-4.7536,-4.5022,-4.4169,-4.3689,-4.264,-4.359,-4.4332,-4.2884,-4.3764,-4.427,-4.2338,-4.1789,-4.1212,-4.0,-4.0239,-4.0992,-4.1934,-4.1866,-4.2133,-4.317,-4.288,-4.253,-4.241,-4.1332,-4.0217,-3.929,-3.6492,-3.4563,-3.3889,-3.2744,-3.2302,-3.2835,-3.2719,-3.2979,-3.3694,-3.3694,-3.3694,-3.3694,-3.3814,-3.4173,-3.4713,-3.4713,-3.4382,-3.9036,-4.0693,-4.3357,-4.6068,-4.6665,-4.7817,0.0,0.0,-5.5307,-5.743,-6.0777,-6.3751,-6.5057,-6.6764,-6.8422,-6.9752,-7.0907,-7.1334,-7.048,-7.1133,-7.0983,-6.8949,-6.9627,-7.0054,-6.9501,-6.9361,-6.925,-6.8748,-6.7693,-6.7066,-6.7066,-6.5459,-6.453,-6.4454,-6.3475,-6.2898,-6.2822,-6.2822,-6.2822,-6.2822,-6.227,-6.1718,-6.1245,-6.2353,-6.3532,-6.4835,-6.5391,-6.3545,-6.0076,-5.9687,-5.8694,-5.7305,-5.5748,-5.5115,-5.4916,-5.3427,-5.2929,-5.2854,-5.2302,-5.3843,-5.5921,-5.532,-5.6451,-5.7992,-5.7214,-5.6482,-5.5493,-5.3261,-5.122,-4.9173,-4.7092,-4.5525,-4.4242,-4.3162,-4.4862,-4.6041,-4.362,-4.4725,-4.5627,-4.3662,-4.235,-4.191,-4.2849,-4.1791,-4.0802,-4.089,-4.1722,-4.2544,-4.323,-4.323,-4.3,-4.247,-4.1752,-4.0516,-3.8661,-3.7635,-3.679,-3.6164,-3.5978,-3.5681,-3.515,-3.4554,-3.4289,-3.4384,-3.4384,-3.4384,-3.4384,-3.4981,-3.531,-3.54,-3.54,-3.534,-4.1038,-4.3799,-4.711,-4.8453,-5.1178,-5.4327,-5.7291,-5.9848,-6.2035,-6.3348,-6.6167,-6.8648,-6.9752,-7.0807,-7.1786,0.0,-7.3067,-7.3092,-7.2313,-7.1761,-7.0732,-6.8848,-6.9024,-6.9351,-6.9336,-6.9361,-6.9476,-6.9577,-6.8271,-6.7467,-6.7467,-6.586,-6.4806,-6.4479,-6.3726,-6.3174,-6.2822,-6.2822,-6.2822,-6.2822,-6.2596,-6.2195,-6.1642,-6.1908,-6.2813,-6.4234,-6.6772,-6.5379,-6.1373,-6.1373,-6.0069,-5.7941,-5.7213,-5.631,-5.5181,-5.3495,-5.2929,-5.2904,-5.2653,-5.404,-5.5976,-5.5728,-5.7053,-5.856,-5.7902,-5.7513,-5.6802,-5.4226,-5.2905,-5.1451,-4.8204,-4.6865,-4.6228,-4.5482,-4.6437,-4.7346,-4.6795,-4.7434,-4.7528,-4.5588,-4.4462,-4.374,-4.3551,-4.2856,-4.2512,-4.2772,-4.2653,-4.2715,-4.323,-4.329,-4.294,-4.1931,-4.1572,-4.0613,-3.8571,-3.8123,-3.7704,-3.7075,-3.6686,-3.6357,-3.6088,-3.5429,-3.507,-3.507,-3.507,-3.507,-3.507,-3.537,-3.5519,-3.5519,-3.5519,-3.5519,-4.2363,-4.5636,-4.9091,-4.9809,-5.4659,-5.9595,-6.1104,-6.4698,-6.7869,-6.8447,-7.0405,-7.21,-7.2212,-7.3239,-7.3882,-7.3525,-7.4112,-7.4347,-7.3468,-7.1912,-7.0179,-6.8371,-6.7643,-6.7543,-6.8221,-6.8848,-6.9451,-7.0003,-6.8648,-6.7794,-6.7794,-6.6338,-6.5258,-6.4705,-6.4053,-6.35,-6.3073,-6.2898,-6.2822,-6.2822,-6.2822,-6.2546,-6.1969,-6.1796,-6.2539,-6.3985,-6.6912,-6.6534,-6.3706,-6.3327,-6.1776,-5.9606,-5.894,-5.766,-5.5945,-5.419,-5.3316,-5.2929,-5.2929,-5.4051,-5.5632,-5.5902,-5.7219,-5.8643,-5.822,-5.8112,-5.76,-5.5201,-5.4206,-5.3109,-4.9748,-4.8444,-4.7827,-4.7586,-4.7865,-4.8375,-4.9087,-4.9357,-4.9028,-4.7278,-4.6268,-4.5407,-4.4684,-4.4256,-4.4245,-4.482,-4.4167,-4.3629,-4.3598,-4.3409,-4.291,-4.1773,-4.1692,-4.0943,-3.911,-3.8931,-3.8571,-3.7734,-3.7255,-3.6926,-3.6746,-3.6297,-3.5938,-3.5789,-3.5789,-3.5699,-3.5519,-3.5699,-3.5789,-3.5789,-3.5789,-3.5789,-4.2207,-4.5149,-4.8547,-5.0785,-5.6709,-6.2416,-6.3931,-6.8142,-7.1887,-7.2439,-7.3494,-7.3646,-7.149,-7.328,-7.4243,-7.1534,-7.3428,-7.4649,-7.2991,-7.1334,-6.9476,-6.7292,-6.5132,-6.4254,0.0,-6.7367,-6.8874,-6.9426,-6.8447,-6.7794,-6.7794,-6.6714,-6.5835,-6.5283,-6.4228,-6.3676,-6.3676,-6.3099,-6.2822,-6.2822,-6.2822,-6.2546,-6.2049,-6.2792,-6.3808,-6.506,-6.5866,-6.6464,-6.6758,-6.5473,-6.4487,-6.3593,-6.1282,-5.9413,-5.7687,-5.5945,-5.4299,-5.2929,-5.2929,-5.3628,-5.4728,-5.5667,-5.6732,-5.7685,-5.7986,-5.8112,-5.7842,-5.6474,-5.506,-5.3621,-5.23,-5.0216,-4.8558,-4.8952,-4.8892,-4.885,-4.9123,-4.971,-4.9777,-4.8492,-4.7238,-4.655,-4.7094,-4.6166,-4.5576,-4.6156,-4.6207,-4.5741,-4.4466,-4.3678,-4.306,-4.244,-4.2381,-4.1841,-4.0457,-4.0337,-3.9768,-3.8452,-3.8332,-3.8033,-3.7404,-3.7375,-3.7075,-3.6477,-3.6447,-3.6148,-3.5519,-3.6148,-3.6447,-3.6447,-3.6447,-3.6447,-4.4258,-4.8487,-5.3044,-5.4811,-6.0606,-6.6109,-6.7413,-7.1027,-7.3971,-7.3418,-7.3293,-7.2831,-7.1352,-7.1872,-7.2406,-7.2217,-7.3591,-7.4498,-7.392,-7.3067,-7.0958,-6.689,-6.6413,0.0,0.0,0.0,0.0,-6.8723,-6.7869,-6.7568,-6.8296,-6.7292,-6.6438,-6.586,-6.4781,-6.4028,-6.3701,-6.3124,-6.2822,-6.2822,-6.2822,-6.2546,-6.2049,-6.3233,-6.4257,-6.5115,-6.6253,-6.6873,-6.6969,-6.652,-6.5413,-6.3918,-6.312,-6.1548,-5.9598,-5.9042,-5.6994,-5.4433,-5.3316,-5.4337,-5.6133,-5.6039,-5.7444,-5.9214,-5.8877,-5.877,-5.859,-5.7723,-5.7107,-5.6166,-5.3888,-5.1958,-5.0819,-5.1547,-4.9774,-4.8381,-5.0115,-4.9166,-4.8097,-4.8206,-4.7149,-4.6604,-4.7747,-4.7242,-4.6755,-4.6924,-4.6232,-4.5334,-4.4436,-4.4107,-4.3569,-4.25,-4.241,-4.2051,-4.1115,-4.1055,-4.0666,-3.9768,-3.932,-3.8781,-3.8093,-3.7644,-3.7315,-3.7105,-3.7105,-3.6985,-3.6776,-3.6985,-3.7105,-3.7105,-3.7105,-3.7105,-4.7734,-5.1668,-5.5495,-5.725,-6.2683,-6.787,-6.8622,-7.19,-7.4523,-7.3016,-7.1937,-7.0505,-6.7957,-6.8046,-6.878,-6.9559,-7.1181,-7.2765,-7.3946,-7.2966,-7.0832,-6.7417,-6.6614,-6.5484,0.0,0.0,0.0,-6.7794,-6.7568,-6.7568,-6.8296,-6.7668,-6.7015,-6.6438,-6.5333,-6.4505,-6.3977,-6.3425,-6.3023,-6.2822,-6.2822,-6.2647,-6.227,-6.2789,-6.3656,-6.4763,-6.5684,-6.6297,-6.6694,-6.6902,-6.5951,-6.4336,-6.4096,-6.2588,-6.048,-6.048,-5.8328,-5.5221,-5.4164,-5.4945,-5.6432,-5.6369,-5.7786,-5.9513,-5.9474,-5.9279,-5.8979,-5.8321,-5.8112,-5.76,-5.5278,-5.3586,-5.2542,-5.2947,-5.0599,-4.8651,-5.0033,-4.9131,-4.8072,-4.819,-4.7909,-4.775,-4.8223,-4.7728,-4.7309,-4.7309,-4.6561,-4.5693,-4.4766,-4.4466,-4.3898,-4.2821,-4.2701,-4.2432,-4.1811,-4.1782,-4.1444,-4.0786,-4.0337,-3.9798,-3.914,-3.8691,-3.8242,-3.7764,-3.7764,-3.7644,-3.7404,-3.7644,-3.7764,-3.7764,-3.7764,-3.7764,-5.2305,-5.4551,-5.6094,-5.8183,-6.3066,-6.7431,-6.7364,-7.0709,-7.3282,-7.1023,-6.9195,-6.6562,-6.1653,-6.2323,-6.3712,-6.4244,-6.6881,-6.9928,-7.3217,-7.1435,-6.9526,0.0,0.0,0.0,0.0,0.0,0.0,-6.6865,0.0,-6.7819,-6.7919,-6.7869,-6.7593,-6.7041,-6.5886,-6.5032,-6.4479,-6.3927,-6.3375,-6.2822,-6.2822,-6.2822,-6.2797,-6.1692,-6.2298,-6.4175,-6.4201,-6.5037,-6.6293,-6.6853,-6.6281,-6.4964,-6.4306,-6.2677,-6.06,-6.06,-5.8516,-5.5683,-5.5683,-5.5617,-5.5708,-5.6658,-5.7748,-5.8842,-5.9852,-5.9668,-5.9009,-5.8411,-5.8201,-5.7872,-5.6585,-5.5148,-5.3823,-5.3218,-5.1304,-4.9446,-4.8921,-4.9314,-4.9416,-4.8353,-4.9222,-4.9747,-4.8506,-4.7728,-4.7309,-4.7309,-4.7309,-4.683,-4.5514,-4.4796,-4.4137,-4.3409,-4.3349,-4.312,-4.25,-4.244,-4.2171,-4.1474,-4.1482,-4.1145,-4.0487,-4.0457,-3.9858,-3.8571,-3.8512,-3.8182,-3.7554,-3.8153,-3.8452,-3.8452,-3.8452,-3.8452,-5.5293,-5.791,-5.9824,-6.0683,-6.2954,-6.4679,-6.3761,-6.5098,-6.5937,-6.3882,-6.1667,-5.9333,-5.674,-5.9292,-6.2252,-6.3627,-6.7926,0.0,-7.4473,-7.4573,0.0,-7.0757,0.0,-6.9451,-6.699,-6.699,0.0,0.0,-6.7568,-6.7894,-6.9551,-6.8848,-6.817,-6.7618,-6.6086,-6.5032,-6.4479,-6.3525,-6.2973,-6.2822,-6.2822,-6.2822,-6.2797,-6.1692,-6.3026,-6.6099,-6.5286,-6.6214,-6.8249,-6.8426,-6.7119,-6.4994,-6.4844,-6.3801,-6.2438,-6.2438,-6.1079,-5.9228,-5.9228,-5.8418,-5.7323,-5.7036,-5.8905,-6.1161,-6.0932,-6.0386,-5.9787,-5.9638,-5.9219,-5.868,-5.7842,-5.6148,-5.4486,-5.3852,-5.1155,-4.8572,-4.7613,-4.6658,-4.6264,-4.7197,-4.8566,-4.9254,-4.8416,-4.7728,-4.7309,-4.7309,-4.7309,-4.701,-4.6172,-4.5903,-4.5323,-4.4197,-4.4077,-4.3808,-4.315,-4.309,-4.2821,-4.2201,-4.2141,-4.1841,-4.1145,-4.1145,-4.0965,-4.0636,-4.0127,-3.9798,-3.9619,-3.932,-3.917,-3.917,-3.917,-3.917,-5.9238,-6.1133,-6.2246,-6.2285,-6.3091,-6.3538,-6.1644,-6.1379,-6.0662,-5.7407,-5.5141,-5.3125,-5.0813,-5.3886,-5.7926,0.0,0.0,0.0,-7.4347,-7.4925,-7.4272,0.0,-7.2288,0.0,-6.9451,-6.9526,-6.9803,0.0,-6.8823,-6.8597,-6.9828,-6.91,-6.8371,-6.7819,-6.6388,-6.5383,-6.4831,-6.3751,-6.3199,-6.3199,-6.2948,-6.2822,-6.2797,-6.2828,-6.3854,-6.5681,0.0,-6.7186,-6.78,-6.8657,-6.7597,-6.5443,-6.5144,-6.4395,-6.3438,-6.3169,-6.1969,-6.048,-6.048,-5.9872,-5.9048,-5.8648,-6.0115,-6.2032,-6.1642,-6.1074,-6.0475,-6.0176,-5.9817,-5.9308,-5.8381,-5.6989,-5.5504,-5.4215,-5.2177,-5.0049,-4.857,-4.7469,-4.7123,-4.8144,-4.8605,-4.8794,-4.8746,-4.8177,-4.7638,-4.7339,-4.7309,-4.716,-4.68,-4.6459,-4.5903,-4.4855,-4.4736,-4.4586,-4.4227,-4.3888,-4.3599,-4.324,-4.294,-4.2491,-4.1871,-4.1841,-4.1722,-4.1422,-4.0726,-4.0397,-4.0397,-3.9738,-3.9373,-3.9373,-3.9373,-3.9373,-6.3164,-6.3984,-6.3867,-6.3262,-6.3287,-6.2626,-5.9821,-5.8097,-5.588,-5.1529,0.0,-4.7508,-4.5011,-4.8155,-5.298,-5.8504,0.0,-6.812,-7.382,-7.4171,-7.3845,-7.392,-7.3067,-7.2238,-7.1686,-7.156,-7.1711,-7.2213,-7.0782,-6.9828,-6.9677,-6.915,-6.8497,-6.7719,-6.6589,-6.5735,-6.5183,-6.4178,-6.3651,-6.3576,-6.3073,-6.2822,-6.2879,-6.4351,-6.4786,-6.4714,0.0,0.0,-6.6809,-6.8368,-6.7867,-6.6071,-6.5413,-6.4695,-6.3947,-6.3408,-6.2234,-6.087,-6.087,-6.087,-6.081,-6.054,-6.1263,-6.2241,-6.2241,-6.1702,-6.0984,-6.0386,-6.0086,-5.9697,-5.856,-5.7752,-5.6667,-5.4521,-5.3403,-5.2238,-5.0076,-4.9474,-4.9467,-4.9909,-4.9112,-4.8537,-4.9312,-4.8865,-4.8133,-4.73,-4.7342,-4.7355,-4.7092,-4.6672,-4.6202,-4.5514,-4.5424,-4.5394,-4.5304,-4.4766,-4.4407,-4.4317,-4.3738,-4.318,-4.256,-4.253,-4.2261,-4.1654,-4.0995,-4.0666,-4.0666,-4.0008,-3.9679,-3.9679,-3.9679,-3.9619,-6.4844,-6.5527,-6.541,-6.3965,-6.1734,-5.9109,-5.5659,-5.1259,0.0,0.0,-4.3805,-4.1913,-4.2536,-4.7032,-5.2377,-5.7926,-6.2923,-6.8371,-7.4849,-7.5301,-7.5126,0.0,-7.5452,-7.5126,0.0,0.0,0.0,0.0,0.0,-7.1761,-7.0857,-7.028,-6.91,-6.7191,-6.6011,-6.5157,-6.4605,-6.4002,-6.345,-6.2973,-6.2873,-6.2822,-6.2879,-6.4351,-6.5815,-6.7283,-6.8513,0.0,-6.9987,-6.9295,-6.8136,-6.6759,-6.6101,-6.5084,-6.3977,-6.3887,-6.3323,-6.2672,-6.2672,-6.2672,-6.2409,-6.099,-6.1615,-6.2899,-6.2899,-6.2061,-6.1104,-6.0954,-6.0146,-5.9219,-5.9009,-5.8441,-5.7381,-5.5217,-5.3298,-5.1238,-4.8664,-4.7657,-4.7785,-4.9801,-4.9457,-4.9107,-4.9922,-4.9523,-4.8521,-4.6816,-4.7436,-4.7525,-4.5956,-4.655,-4.689,-4.6202,-4.6142,-4.5903,-4.5334,-4.5185,-4.4885,-4.4347,-4.4197,-4.3798,-4.314,-4.311,-4.308,-4.2961,-4.2342,-4.2051,-4.2051,-4.1392,-4.1025,-4.1025,-4.1025,-4.0756,-6.8185,-6.8922,-6.8945,-6.8522,-6.5252,-6.0718,-5.4988,0.0,0.0,0.0,-4.0014,-3.9477,-3.9728,-4.4202,-4.9389,-5.4059,-5.8278,-6.3701,-7.151,-7.2138,-7.2866,-7.5703,-7.6055,-7.5954,0.0,0.0,0.0,0.0,0.0,-7.3117,-7.1987,-7.033,-6.8522,-6.6589,-6.6011,-6.5459,-6.4906,-6.4354,-6.3827,-6.3274,-6.2973,-6.2822,-6.2904,-6.4663,-6.6316,-6.7967,-6.9053,0.0,-7.0799,-6.9542,-6.8405,-6.7418,-6.64,-6.5413,-6.4485,-6.4126,-6.3617,-6.3079,-6.3079,-6.3079,-6.2933,-6.2086,-6.2438,-6.3079,-6.3079,-6.263,-6.2002,-6.1313,-6.0655,-5.9997,-5.9279,-5.862,-5.7862,-5.6809,-5.5284,-5.3442,-5.1403,-4.9584,-4.8926,-5.0818,-4.9706,-4.8924,-5.0466,-5.0212,-4.9342,-4.8113,-4.8119,-4.797,-4.7036,-4.7139,-4.7189,-4.686,-4.683,-4.6711,-4.6381,-4.6022,-4.5693,-4.5364,-4.4706,-4.4167,-4.3828,-4.3469,-4.329,-4.329,-4.2701,-4.241,-4.241,-4.1752,-4.1422,-4.1422,-4.1422,-4.1025,-7.1289,-7.2376,-7.3041,-7.2734,-6.8681,-6.2852,-5.5618,-4.9662,0.0,-3.8834,-3.8134,-3.8445,-3.8214,-4.1787,-4.62,-5.0569,-5.3758,-5.8805,-6.7819,-6.8924,-7.0556,0.0,-7.5979,0.0,0.0,0.0,0.0,0.0,0.0,0.0,-7.2439,-6.9878,-6.7844,-6.6513,-6.6515,-6.6289,-6.5756,-6.5645,-6.5329,-6.4816,-6.3869,-6.3423,-6.3503,-6.5082,-6.6638,-6.8188,-6.9351,0.0,0.0,-6.9632,-6.8675,-6.8046,-6.6729,-6.5802,-6.5144,-6.4485,-6.3827,-6.3258,-6.3109,-6.3079,-6.3079,-6.3079,-6.3079,-6.3079,-6.3079,-6.2989,-6.266,-6.1613,-6.1134,-6.0655,-5.9578,-5.883,-5.8184,-5.7737,-5.6763,-5.5529,-5.4182,-5.1976,-5.0731,-5.2174,-5.0455,-4.9314,-5.1101,-5.099,-5.0299,-4.9234,-4.888,-4.8566,-4.8164,-4.7895,-4.7668,-4.7519,-4.7399,-4.7309,-4.7309,-4.683,-4.6429,-4.6279,-4.5334,-4.4616,-4.4317,-4.3917,-4.3648,-4.3499,-4.303,-4.283,-4.283,-4.2132,-4.1803,-4.1803,-4.1803,-4.1444,-7.2199,-7.4778,-7.658,-7.3579,-6.8252,-6.2323,-5.6466,0.0,-4.2895,-4.1247,-3.9121,-3.8166,-3.9904,-4.1476,-4.445,-5.0318,-5.2779,-5.7223,-6.6639,-6.8773,-7.0857,-7.4849,0.0,0.0,0.0,0.0,0.0,0.0,0.0,0.0,-7.1309,-6.91,-6.7794,-6.7643,-6.7906,-6.7838,-6.7342,-6.8611,-6.8941,-6.8366,-6.6495,-6.5556,-6.5556,-6.5687,-6.6879,-6.8824,-6.955,0.0,0.0,-7.0021,-6.8974,-6.8764,-6.7418,-6.649,-6.5832,-6.5173,-6.4515,-6.3827,-6.3258,-6.3079,-6.3079,-6.3079,-6.3079,-6.3079,-6.3079,-6.266,-6.2151,-6.2032,-6.1134,-6.0146,-6.0027,-5.9518,-5.8505,-5.6569,-5.5542,-5.4822,-5.4054,-5.2653,-5.204,-5.3668,-5.2676,-5.1722,-5.2066,-5.2067,-5.1179,-4.8759,-4.9339,-4.938,-4.7712,-4.844,-4.8865,-4.8267,-4.7668,-4.7309,-4.7309,-4.7249,-4.695,-4.6309,-4.616,-4.5603,-4.4377,-4.4825,-4.4825,-4.4227,-4.4167,-4.4137,-4.4137,-4.3439,-4.311,-4.311,-4.311,-4.2791,-7.3819,-7.7328,-7.9955,-7.9054,-7.3158,-6.5759,-5.8615,-5.0986,-4.4429,-4.0636,-3.9316,-3.9099,-3.9869,-4.0375,-4.1907,-4.5673,-4.6276,-4.9213,-5.765,-5.9508,-6.2647,-6.9903,-7.1836,0.0,0.0,0.0,0.0,0.0,0.0,0.0,-7.1158,-6.93,-6.8561,-6.9153,-6.9014,-6.9211,-6.9981,-7.0241,-7.002,-6.9412,-6.822,-6.6984,-6.5765,-6.5765,-6.6906,-6.8907,-6.8323,0.0,0.0,-7.05,-6.9363,-6.8914,-6.7956,-6.67,-6.5383,-6.5114,-6.4366,-6.3408,-6.3169,-6.3079,-6.3079,-6.3079,-6.3079,-6.3079,-6.3079,-6.2899,-6.26,-6.2211,-6.1702,-6.1104,-6.0296,-5.9608,-5.8847,-5.8006,-5.7335,-5.6721,-5.6509,-5.4649,-5.3496,-5.5091,-5.3524,-5.2165,-5.2692,-5.2456,-5.1745,-5.0242,-5.0126,-4.9938,-4.9178,-4.9221,-4.9209,-4.894,-4.8297,-4.7728,-4.7339,-4.7309,-4.7189,-4.692,-4.6488,-4.604,-4.5544,-4.5364,-4.5155,-4.4915,-4.4526,-4.4317,-4.4317,-4.3618,-4.329,-4.329,-4.329,-4.3,-7.3447,-7.7794,-8.1358,-8.1112,-7.4786,-6.6807,-5.9788,-5.2317,-4.5475,-4.0408,-3.9537,-3.9697,-3.9697,-3.9697,-4.03,-4.2183,-4.2258,-4.456,-5.19,-5.3808,-5.7399,0.0,0.0,0.0,0.0,0.0,0.0,0.0,0.0,0.0,0.0,-7.1672,-7.0732,-7.0378,-7.0062,-7.0821,-7.2553,-7.2377,-7.2056,-7.1574,-7.036,-6.8737,-6.6674,-6.6674,-6.7215,-6.8001,0.0,0.0,0.0,-7.0366,-6.9423,-6.8914,-6.8016,-6.6819,-6.5562,-6.5173,-6.4455,-6.3588,-6.3199,-6.3079,-6.3079,-6.3079,-6.3079,-6.3079,-6.3079,-6.3079,-6.2989,-6.251,-6.2121,-6.1493,-6.0146,-5.9458,-5.9099,-5.9099,-5.874,-5.8351,-5.8171,-5.6415,-5.5107,-5.6012,-5.4444,-5.3085,-5.3446,-5.3084,-5.2516,-5.1648,-5.1063,-5.0704,-5.0495,-5.0122,-4.9763,-4.9583,-4.9134,-4.8506,-4.7668,-4.7608,-4.7519,-4.7309,-4.686,-4.6488,-4.6279,-4.6052,-4.5813,-4.5603,-4.5155,-4.4915,-4.4915,-4.4007,-4.3589,-4.3589,-4.3379,-4.309,-7.0395,-7.5446,-7.9924,-7.7696,-7.0878,-6.371,-5.9578,-5.2277,-4.5221,-4.1275,-4.0074,-3.9697,-3.9697,-3.9697,-4.0049,-4.1125,-4.271,-4.5924,-5.2076,-5.4813,-5.7851,0.0,0.0,0.0,0.0,0.0,0.0,0.0,0.0,0.0,0.0,-7.6843,-7.4632,-7.1095,-7.1337,-7.2497,-7.4661,-7.5496,-7.5846,-7.5817,-7.3161,-7.0813,-6.8888,-6.8888,-6.7751,0.0,0.0,0.0,0.0,-6.9246,-6.9004,-6.8884,-6.7537,-6.6999,-6.6819,-6.5503,-6.5024,-6.4814,-6.3528,-6.3079,-6.3079,-6.3079,-6.3079,-6.3079,-6.3079,-6.3079,-6.3079,-6.3079,-6.2121,-6.0805,-5.9458,-5.9099,-5.9099,-5.9099,-5.9099,-5.8919,-5.8261,-5.7573,-5.6885,-5.6286,-5.5628,-5.497,-5.4311,-5.4192,-5.3743,-5.2396,-5.2187,-5.1947,-5.1289,-5.1199,-5.096,-5.0255,-5.0166,-4.9703,-4.8386,-4.8267,-4.7997,-4.7339,-4.7309,-4.701,-4.6309,-4.695,-4.698,-4.6279,-4.6279,-4.6249,-4.6249,-4.4945,-4.4317,-4.4287,-4.3589,-4.329,-6.3409,-6.8084,-7.2248,-6.9688,-6.48,-5.9447,-5.5174,-4.9816,-4.4744,-4.1254,-4.0074,-3.9697,-3.9697,-3.9697,-4.0551,-4.3162,-4.4016,-4.5698,-4.954,0.0,0.0,-6.1793,0.0,0.0,0.0,0.0,0.0,0.0,0.0,0.0,0.0,-7.6456,-7.5539,-7.5455,-7.5151,-7.5848,-7.7459,-7.689,-7.6544,-7.6514,-7.4793,-7.2911,-7.0959,-7.0959,0.0,0.0,0.0,0.0,0.0,-7.0539,-6.9782,-6.8944,-6.8525,-6.7268,-6.5592,-6.5173,-6.4455,-6.3647,-6.3228,-6.3079,-6.3079,-6.3079,-6.3079,-6.3079,-6.3079,-6.3079,-6.2989,-6.254,-6.1792,-6.0894,-5.9997,-5.9428,-5.9099,-5.9099,-5.9099,-5.9039,-5.883,-5.8261,-5.7752,-5.7543,-5.6615,-5.5658,-5.4999,-5.4491,-5.3892,-5.2995,-5.2875,-5.2785,-5.2576,-5.2546,-5.2306,-5.1648,-5.1588,-5.087,-4.9149,-4.8536,-4.8207,-4.7997,-4.7549,-4.7219,-4.701,-4.7189,-4.7219,-4.701,-4.6518,-4.6279,-4.6279,-4.4934,-4.4077,-4.3618,-4.3858,-4.3738,-5.729,-6.1485,-6.4988,-6.3301,-5.9553,-5.543,-5.2179,-4.8033,-4.3966,-4.0852,-3.9923,-3.9697,-3.9697,-4.0083,-4.095,-4.2489,-4.3711,-4.5272,-4.7794,0.0,0.0,-6.3261,0.0,0.0,0.0,0.0,0.0,0.0,0.0,0.0,0.0,-7.8997,-7.8343,-7.8722,-7.7076,-7.6924,-7.843,-7.7352,-7.6724,-7.6485,-7.5377,-7.3812,-7.1927,-7.2437,0.0,0.0,0.0,0.0,0.0,-7.036,-6.9722,-6.8914,-6.8166,-6.6849,-6.5353,-6.4814,-6.4126,-6.3378,-6.3169,-6.3079,-6.3079,-6.3079,-6.3079,-6.3079,-6.3079,-6.3079,-6.2899,-6.1972,-6.1433,-6.0894,-5.9967,-5.9398,-5.9099,-5.9099,-5.9099,-5.9099,-5.9099,-5.859,-5.8052,-5.7782,-5.6885,-5.5957,-5.5299,-5.485,-5.4341,-5.3683,-5.3563,-5.3473,-5.3204,-5.3174,-5.3025,-5.2606,-5.2336,-5.1708,-5.0481,-4.9553,-4.8805,-4.8327,-4.7908,-4.7549,-4.7309,-4.7309,-4.7309,-4.7309,-4.689,-4.6681,-4.6681,-4.5603,-4.4736,-4.4077,-4.4496,-4.4466,0.0,-5.5614,-5.8071,-5.7883,-5.474,-5.1366,-5.0033,-4.6627,0.0,-4.0249,-3.9697,-3.9722,-3.9798,-4.0795,-4.1274,-4.0256,-4.2525,-4.5132,0.0,-5.2127,0.0,0.0,0.0,0.0,0.0,0.0,0.0,0.0,0.0,0.0,0.0,-8.3397,-8.205,-8.0704,-7.747,-7.6431,-7.7801,-7.7113,-7.6485,-7.5886,-7.5198,-7.3882,-7.2055,-7.3339,0.0,0.0,0.0,0.0,0.0,-6.9044,-6.9004,-6.8734,-6.6819,-6.6011,-6.5772,-6.4485,-6.3977,-6.3857,-6.3258,-6.3079,-6.3079,-6.3079,-6.3079,-6.3079,-6.3079,-6.3049,-6.275,-6.1463,-6.1074,-6.0745,-5.9428,-5.9099,-5.9099,-5.9099,-5.9099,-5.9099,-5.9099,-5.862,-5.7992,-5.7363,-5.6735,-5.6107,-5.5508,-5.5359,-5.5119,-5.4521,-5.4371,-5.4132,-5.3473,-5.3354,-5.3294,-5.3264,-5.2665,-5.2247,-5.2187,-5.0943,-4.9687,-4.8506,-4.8386,-4.8057,-4.7399,-4.7369,-4.7369,-4.7309,-4.7309,-4.7279,-4.7249,-4.6681,-4.6022,-4.5304,-4.5334,-4.5334,-4.6055,0.0,-4.9977,-4.7887,-4.6865,-4.5921,0.0,-4.2986,-4.2062,-4.0099,-3.9697,-3.9948,-4.0802,-4.1286,-4.2136,-4.3866,-4.5871,-4.8236,-5.1214,0.0,0.0,-7.0196,0.0,0.0,0.0,0.0,0.0,0.0,0.0,0.0,0.0,-8.2739,-8.1153,-7.9327,-7.7997,-7.7419,-7.7801,-7.6694,-7.6036,-7.5886,-7.5198,-7.4394,-7.3447,-7.3738,0.0,0.0,0.0,0.0,-6.9767,-6.9739,-6.9153,-6.8106,-6.7148,-6.6131,-6.5144,-6.4306,-6.3707,-6.3258,-6.3139,-6.3079,-6.3079,-6.3079,-6.3079,-6.3079,-6.3079,-6.272,-6.2151,-6.1343,-6.0745,-6.0146,-5.9308,-5.9099,-5.9099,-5.9099,-5.9099,-5.9099,-5.9099,-5.8979,-5.883,-5.865,-5.8112,-5.7603,-5.7453,-5.7004,-5.6585,-5.6436,-5.6017,-5.5658,-5.5529,-5.5029,-5.4521,-5.4012,-5.3354,-5.2755,-5.2247,-5.0943,-5.0076,-4.9747,-4.9314,-4.8745,-4.8087,-4.8057,-4.7818,-4.7309,-4.7309,-4.707,-4.6561,-4.689,-4.6471,-4.5304,-4.5843,-4.5813,-4.4513,-4.5773,-4.6878,-4.5648,-4.5171,-4.4644,-4.3187,-4.2108,-4.1078,-3.9923,-3.9697,-3.9948,-4.0802,-4.1699,-4.3127,-4.5555,-4.7849,0.0,0.0,0.0,-6.9548,-7.3286,0.0,0.0,0.0,0.0,0.0,0.0,0.0,0.0,0.0,-8.1751,-8.0225,-7.8819,-7.7861,-7.7233,-7.6933,-7.6245,-7.5736,-7.5437,-7.4749,-7.424,-7.3881,-7.3253,-7.2565,0.0,0.0,0.0,-6.9961,-6.9662,-6.8734,-6.7418,-6.646,-6.5473,-6.4485,-6.3827,-6.3378,-6.3079,-6.3079,-6.3079,-6.3079,-6.3079,-6.3079,-6.3079,-6.3079,-6.263,-6.2032,-6.1672,-6.1074,-6.0475,-6.0116,-5.9787,-5.9548,-5.9548,-5.9548,-5.9458,-5.9159,-5.9099,-5.9009,-5.871,-5.8381,-5.8022,-5.7693,-5.7334,-5.7094,-5.7094,-5.6795,-5.6585,-5.6585,-5.6047,-5.5508,-5.5149,-5.4221,-5.3384,-5.2725,-5.1708,-5.087,-5.0226,-4.9912,-4.9284,-4.8327,-4.8297,-4.7967,-4.7309,-4.7309,-4.713,-4.677,-4.713,-4.692,-4.6232,-4.6591,-4.6561,-4.5656,-4.645,-4.7132,-4.6753,-4.6205,-4.5446,-4.4535,-4.2486,-4.0612,-3.9849,-3.9772,-4.0049,-4.0752,-4.2735,-4.4838,-4.6502,0.0,0.0,-6.4341,-6.8517,-7.1929,0.0,0.0,0.0,0.0,0.0,0.0,0.0,0.0,0.0,0.0,-8.0734,-7.9297,-7.8519,-7.7322,-7.6395,-7.5766,-7.5736,-7.5407,-7.4719,-7.4151,-7.3791,-7.3552,-7.2415,-7.1816,0.0,0.0,0.0,-6.9782,-6.9123,-6.8046,-6.6729,-6.5503,-6.4605,-6.3917,-6.3318,-6.3079,-6.3079,-6.3079,-6.3079,-6.3079,-6.3079,-6.3079,-6.3079,-6.3079,-6.269,-6.2241,-6.2241,-6.1702,-6.1104,-6.1104,-6.0685,-6.0206,-6.0116,-6.0086,-5.9907,-5.9249,-5.9099,-5.8949,-5.8381,-5.8261,-5.8082,-5.7513,-5.7393,-5.7393,-5.7393,-5.7304,-5.7244,-5.7244,-5.6705,-5.6286,-5.6248,-5.5089,-5.4072,-5.3384,-5.2636,-5.1738,-5.0554,-5.0405,-4.9853,-4.8626,-4.8386,-4.8027,-4.7459,-4.7369,-4.7309,-4.7309,-4.7309,-4.7309,-4.7309,-4.7309,-4.7309,-4.8266,-4.9828,-5.0331,-4.5767,-4.5587,-4.5875,-4.3441,-4.2574,-4.1773,-4.0056,-4.0074,-4.0852,-4.2333,-4.6165,-4.895,-4.8528,0.0,-6.1506,0.0,0.0,0.0,0.0,0.0,0.0,0.0,0.0,0.0,0.0,0.0,0.0,0.0,-8.0045,-7.84,-7.7173,-7.6425,-7.5707,-7.5048,-7.5018,-7.4689,-7.4031,-7.3941,-7.3313,-7.2176,-7.1966,-7.1577,0.0,0.0,-6.9752,-6.9093,-6.8405,-6.7358,-6.6071,-6.5323,-6.4605,-6.3917,-6.3318,-6.3079,-6.3079,-6.3079,-6.3079,-6.3079,-6.3079,-6.3079,-6.3079,-6.3079,-6.3019,-6.2929,-6.2929,-6.2061,-6.1104,-6.1104,-6.1044,-6.0805,-6.0206,-6.0086,-5.9907,-5.9249,-5.9099,-5.9069,-5.8979,-5.8949,-5.8919,-5.883,-5.88,-5.88,-5.88,-5.8321,-5.7962,-5.7962,-5.7363,-5.6765,-5.6226,-5.5508,-5.479,-5.4102,-5.2905,-5.2127,-5.1917,-5.1379,-5.0674,-4.9927,-4.8865,-4.8237,-4.8147,-4.7578,-4.7309,-4.7309,-4.7309,-4.7309,-4.7309,-4.7309,-4.7309,-4.7128,-4.8315,-4.9206,-4.7359,-4.9185,-5.0989,-4.9465,-4.7945,-4.6533,-4.5659,-4.5394,-4.5742,-4.7155,-4.9744,-5.2985,-5.7157,0.0,-7.028,-7.3634,0.0,0.0,0.0,0.0,0.0,0.0,0.0,0.0,0.0,0.0,0.0,0.0,0.0,-7.7682,-7.6365,-7.6066,-7.5407,-7.436,-7.436,-7.418,-7.3881,-7.3163,-7.2475,-7.1876,-7.1517,-7.1009,-7.038,0.0,-6.9183,-6.7897,-6.7567,-6.646,-6.4904,-6.4605,-6.4066,-6.3468,-6.3169,-6.3079,-6.3079,-6.3079,-6.3079,-6.3079,-6.3079,-6.3079,-6.3079,-6.3079,-6.3079,-6.3079,-6.3079,-6.2391,-6.1732,-6.2091,-6.1912,-6.1553,-6.1253,-6.1164,-6.0984,-6.0326,-6.0176,-6.0176,-6.0176,-6.0176,-6.0176,-6.0176,-5.9877,-5.9638,-5.9638,-5.9069,-5.865,-5.865,-5.8082,-5.7393,-5.6735,-5.6107,-5.5299,-5.4311,-5.3653,-5.2815,-5.1738,-5.105,-5.0495,-5.0196,-4.8985,-4.8297,-4.8297,-4.7638,-4.7309,-4.7309,-4.7309,-4.7309,-4.7309,-4.7309,-4.7309,-4.7247,-4.789,-4.895,-4.9892,-5.1927,-5.3943,-5.4651,-5.2814,-5.1125,-5.1459,-5.0988,-5.0962,-5.2128,-5.3538,0.0,-6.6299,-7.2272,-7.6666,-7.9234,0.0,0.0,0.0,0.0,0.0,0.0,0.0,0.0,0.0,0.0,0.0,0.0,0.0,-7.6904,-7.5946,-7.5736,-7.5108,-7.3911,-7.3732,-7.3582,-7.3402,-7.2235,-7.1577,-7.1427,-7.0769,-7.0201,-6.9752,-6.9572,-6.8555,-6.6969,-6.6819,-6.5682,-6.4006,-6.4006,-6.3617,-6.3079,-6.3079,-6.3079,-6.3079,-6.3079,-6.3079,-6.3079,-6.3079,-6.3079,-6.3079,-6.3079,-6.3079,-6.3079,-6.3079,-6.272,-6.245,-6.2959,-6.272,-6.2301,-6.2121,-6.2091,-6.1912,-6.1253,-6.1104,-6.1104,-6.1104,-6.1104,-6.1104,-6.1104,-6.0685,-6.0326,-6.0326,-5.9757,-5.9338,-5.9338,-5.877,-5.8022,-5.7184,-5.6675,-5.5807,-5.4341,-5.4221,-5.3414,-5.1558,-5.084,-5.0435,-5.0435,-4.9194,-4.8506,-4.8506,-4.7728,-4.7309,-4.7309,-4.7309,-4.7309,-4.7309,-4.7309,-4.7309,-5.21,-5.2565,-5.2658,-5.2859,-5.0927,-4.9936,-5.4026,-5.3938,-5.3317,-5.453,-5.436,-5.4356,-5.5468,-5.7968,-6.3024,-7.2631,-7.4924,-7.6964,0.0,0.0,0.0,0.0,0.0,0.0,0.0,0.0,0.0,0.0,0.0,0.0,0.0,0.0,0.0,-7.5916,-7.5288,-7.4599,-7.3911,-7.3283,-7.2654,-7.2026,-7.1308,-7.0679,-7.0081,-6.9423,-6.9123,-6.9034,-6.8405,-6.7687,-6.6939,-6.634,-6.5263,-6.4006,-6.4006,-6.3617,-6.3079,-6.3079,-6.3079,-6.3079,-6.3079,-6.3079,-6.3079,-6.3079,-6.3079,-6.3079,-6.3079,-6.3079,-6.3079,-6.3079,-6.3049,-6.3019,-6.3079,-6.3049,-6.2839,-6.2241,-6.2091,-6.1912,-6.1253,-6.1104,-6.1104,-6.1104,-6.1104,-6.1104,-6.1104,-6.1074,-6.1044,-6.1044,-6.0446,-6.0027,-6.0027,-5.9428,-5.853,-5.7244,-5.7064,-5.6256,-5.4371,-5.4221,-5.3623,-5.2217,-5.1498,-5.1139,-5.1139,-4.9883,-4.9239,-4.9239,-4.7967,-4.7309,-4.7309,-4.7309,-4.7309,-4.7309,-4.7309,-4.7309,-4.9589,-5.1236,-5.3034,-5.3176,-5.3092,-5.3866,-5.7098,-5.9707,-6.1655,-6.2564,-6.3068,-6.2777,-6.1004,-6.5142,-7.0243,-7.4649,-7.8645,0.0,0.0,0.0,0.0,0.0,0.0,0.0,0.0,0.0,0.0,0.0,0.0,0.0,0.0,0.0,0.0,-7.5288,-7.4629,-7.3941,-7.3283,-7.2206,-7.1338,-7.0709,-7.044,-6.9991,-6.9363,-6.9123,-6.8764,-6.8315,-6.7657,-6.6759,-6.5712,-6.5024,-6.4246,-6.3438,-6.3438,-6.3288,-6.3079,-6.3079,-6.3079,-6.3079,-6.3079,-6.3079,-6.3079,-6.3079,-6.3079,-6.3079,-6.3079,-6.3079,-6.3079,-6.3079,-6.3079,-6.3079,-6.3079,-6.3079,-6.3019,-6.278,-6.272,-6.263,-6.2391,-6.2331,-6.2331,-6.2331,-6.2331,-6.2331,-6.2331,-6.2002,-6.1732,-6.1732,-6.0805,-6.0086,-6.0086,-5.9518,-5.877,-5.7842,-5.7004,-5.6047,-5.491,-5.4431,-5.3803,-5.2875,-5.2187,-5.1648,-5.1229,-5.0361,-4.9673,-4.9329,-4.8386,-4.7728,-4.7309,-4.7309,-4.7309,-4.7309,-4.7309,-4.7309,-4.8588,-5.0291,-5.2445,-5.2573,-5.4651,-5.7514,-6.0706,-6.4405,-6.7921,-7.042,-7.0482,-6.9102,-6.6244,-6.9264,0.0,0.0,-8.043,0.0,0.0,0.0,0.0,0.0,0.0,0.0,0.0,0.0,0.0,0.0,0.0,0.0,0.0,0.0,0.0,0.0,-7.3941,-7.3253,-7.2595,-7.1457,-7.05,-6.9662,-6.9453,-6.9123,-6.8675,-6.8465,-6.8106,-6.7627,-6.6969,-6.6041,-6.4964,-6.4276,-6.3617,-6.3079,-6.3079,-6.3079,-6.3079,-6.3079,-6.3079,-6.3079,-6.3079,-6.3079,-6.3079,-6.3079,-6.3079,-6.3079,-6.3079,-6.3079,-6.3079,-6.3079,-6.3079,-6.3079,-6.3079,-6.3079,-6.3079,-6.3079,-6.3079,-6.3079,-6.3079,-6.3079,-6.3079,-6.3079,-6.3079,-6.3079,-6.3079,-6.272,-6.2421,-6.2421,-6.1253,-6.0416,-6.0416,-5.9638,-5.886,-5.8201,-5.6944,-5.5987,-5.5538,-5.491,-5.4132,-5.3234,-5.2755,-5.2127,-5.1259,-5.0554,-4.9942,-4.9329,-4.8626,-4.7967,-4.7309,-4.7309,-4.7309,-4.7309,-4.7309,-4.7309,-5.0375,-5.0674,-5.1244,-5.1358,-5.5002,-5.9822,-6.4553,-6.7329,-7.0784,-7.7299,-7.5608,-7.2387,-7.0599,-6.9355,0.0,-7.6789,0.0,0.0,0.0,0.0,0.0,0.0,0.0,0.0,0.0,0.0,0.0,0.0,0.0,0.0,0.0,0.0,0.0,0.0,-7.3253,-7.2565,-7.1876,-7.1218,-7.026,-6.8974,-6.8286,-6.7956,-6.7989,-6.7298,-6.6999,-6.6939,-6.6281,-6.5622,-6.4964,-6.4276,-6.3617,-6.3079,-6.3079,-6.3079,-6.3079,-6.3079,-6.3079,-6.3079,-6.3079,-6.3079,-6.3079,-6.3079,-6.3079,-6.3079,-6.3079,-6.3079,-6.3079,-6.3079,-6.3079,-6.3079,-6.3079,-6.3079,-6.3079,-6.3079,-6.3079,-6.3079,-6.3079,-6.3079,-6.3079,-6.3079,-6.3079,-6.3079,-6.3079,-6.3079,-6.3079,-6.3079,-6.1972,-6.1104,-6.1104,-5.9937,-5.886,-5.8201,-5.6944,-5.6248,-5.6218,-5.5568,-5.461,-5.3264,-5.3174,-5.2606,-5.1259,-5.0554,-4.9942,-4.9329,-4.8626,-4.7967,-4.7309,-4.7309,-4.7309,-4.7309,-4.7309,-4.7309,-5.0122,-5.1409,-5.3764,-5.5582,-6.0307,-6.6077,-7.2071,-7.3045,-7.4067,-7.8974,-7.8446,-7.6159,-7.3198,-7.4355,0.0,0.0,0.0,0.0,0.0,0.0,0.0,0.0,0.0,0.0,0.0,0.0,0.0,0.0,0.0,0.0,0.0,0.0,0.0,0.0,-7.2774,-7.1876,-7.1188,-7.0111,-6.8884,-6.7597,-6.6909,-6.6819,-6.7268,-6.7089,-6.6729,-6.6251,-6.5592,-6.4934,-6.4246,-6.3617,-6.3228,-6.3079,-6.3079,-6.3079,-6.3079,-6.3079,-6.3079,-6.3079,-6.3079,-6.3079,-6.3079,-6.3079,-6.3079,-6.3079,-6.3079,-6.3079,-6.3079,-6.3079,-6.3079,-6.3079,-6.3079,-6.3079,-6.3079,-6.3079,-6.3079,-6.3079,-6.3079,-6.3079,-6.3079,-6.3079,-6.3079,-6.3079,-6.3079,-6.3079,-6.3079,-6.3079,-6.1972,-6.0775,-5.9817,-5.9368,-5.886,-5.8201,-5.7334,-5.6645,-5.6248,-5.5568,-5.482,-5.3952,-5.3443,-5.2606,-5.1259,-5.0973,-5.0631,-4.9972,-4.9763,-4.9105,-4.7997,-4.7997,-4.7758,-4.7309,-4.7309,-4.7309,-5.1665,-5.3084,-5.5598,-5.9817,-6.4545,-6.9961,-7.6844,-7.8804,-8.0106,-8.321,-8.1621,-7.9112,-7.7576,-7.7486,0.0,0.0,0.0,0.0,0.0,0.0,0.0,0.0,0.0,0.0,0.0,0.0,0.0,0.0,0.0,0.0,0.0,0.0,0.0,0.0,-7.1667,-7.0799,-7.0141,-6.8854,-6.7807,-6.6969,-6.6071,-6.5832,-6.6221,-6.6221,-6.5981,-6.5592,-6.4904,-6.4246,-6.3588,-6.3228,-6.3079,-6.3079,-6.3079,-6.3079,-6.3079,-6.3079,-6.3079,-6.3079,-6.3079,-6.3079,-6.3079,-6.3079,-6.3079,-6.3079,-6.3079,-6.3079,-6.3079,-6.3079,-6.3079,-6.3079,-6.3079,-6.3079,-6.3079,-6.3079,-6.3079,-6.3079,-6.3079,-6.3079,-6.3079,-6.3079,-6.3079,-6.3079,-6.3079,-6.3079,-6.3079,-6.3079,-6.1972,-6.0625,-5.9279,-5.9099,-5.8949,-5.856,-5.7663,-5.6944,-5.6585,-5.5718,-5.491,-5.4251,-5.3563,-5.2695,-5.1648,-5.1349,-5.0853,-5.0196,-5.0196,-4.9583,-4.8297,-4.8297,-4.7938,-4.7309,-4.7309,-4.7309,-5.4012,-5.5149,-5.6915,-6.3707,-6.8226,-7.2774,-7.9597,-8.3936,-8.6838,-8.8065,-8.4534,-8.1542,-8.2589,-7.9357,0.0,0.0,0.0,0.0,0.0,0.0,0.0,0.0,0.0,0.0,0.0,0.0,0.0,0.0,0.0,0.0,0.0,0.0,0.0,-7.0829,-7.0141,-6.9512,-6.8914,-6.7567,-6.6879,0.0,-6.5533,-6.4904,-6.4844,-6.4964,-6.4994,-6.4904,-6.4216,-6.3588,-6.3079,-6.3079,-6.3079,-6.3079,-6.3079,-6.3079,-6.3079,-6.3079,-6.3079,-6.3079,-6.3079,-6.3079,-6.3079,-6.3079,-6.3079,-6.3079,-6.3079,-6.3079,-6.3079,-6.3079,-6.3079,-6.3079,-6.3079,-6.3079,-6.3079,-6.3079,-6.3079,-6.3079,-6.3079,-6.3079,-6.3079,-6.3079,-6.3079,-6.3079,-6.3079,-6.3079,-6.3049,-6.2929,-6.1822,-6.0565,-5.9279,-5.9099,-5.9099,-5.9099,-5.7902,-5.7094,-5.7094,-5.5927,-5.494,-5.4341,-5.3653,-5.2965,-5.2306,-5.1588,-5.0883,-5.0285,-5.0285,-4.9703,-4.8446,-4.8416,-4.8027,-4.7399,-4.7339,-4.7309,-5.3234,-5.476,-5.7932,-6.6101,-7.3732,-8.0045,-8.3158,-8.4534,-8.5222,-8.5521,-8.5073,-8.4265,-8.3008,-8.1961,0.0,0.0,0.0,0.0,0.0,0.0,0.0,0.0,0.0,0.0,0.0,0.0,0.0,0.0,0.0,0.0,0.0,0.0,0.0,-7.0201,-6.9034,-6.8345,-6.8196,-6.6879,-6.5951,0.0,-6.4605,-6.3977,-6.3528,-6.4545,-6.4725,-6.4186,-6.3558,-6.3199,-6.3079,-6.3079,-6.3079,-6.3079,-6.3079,-6.3079,-6.3079,-6.3079,-6.3079,-6.3079,-6.3079,-6.3079,-6.3079,-6.3079,-6.3079,-6.3079,-6.3079,-6.3079,-6.3079,-6.3079,-6.3079,-6.3079,-6.3079,-6.3079,-6.3079,-6.3079,-6.3079,-6.3079,-6.3079,-6.3079,-6.3079,-6.3079,-6.3079,-6.3079,-6.3079,-6.3079,-6.272,-6.1702,-6.0835,-6.0027,-5.9219,-5.9099,-5.9099,-5.9099,-5.7902,-5.7094,-5.7094,-5.5927,-5.5119,-5.4999,-5.4371,-5.3683,-5.2995,-5.1858,-5.1139,-5.102,-5.0973,-5.0554,-4.9777,-4.9314,-4.876,-4.8057,-4.7549,-4.7309,-5.4521,-5.6555,-5.9937,-6.9842,-7.6844,-8.1661,-8.3008,-8.3547,-8.3786,-8.3786,-8.4055,-8.3965,-8.2948,0.0,0.0,0.0,0.0,0.0,0.0,0.0,0.0,0.0,0.0,0.0,0.0,0.0,0.0,0.0,0.0,0.0,0.0,-7.0201,-6.9213,-6.8555,-6.7567,-6.6879,-6.658,-6.5562,-6.4874,-6.4515,-6.3857,-6.3378,-6.3109,-6.3797,-6.3887,-6.3528,-6.3228,-6.3079,-6.3079,-6.3079,-6.3079,-6.3079,-6.3079,-6.3079,-6.3079,-6.3079,-6.3079,-6.3079,-6.3079,-6.3079,-6.3079,-6.3079,-6.3079,-6.3079,-6.3079,-6.3079,-6.3079,-6.3079,-6.3079,-6.3079,-6.3079,-6.3079,-6.3079,-6.3079,-6.3079,-6.3079,-6.3079,-6.3079,-6.3079,-6.3079,-6.3079,-6.3079,-6.3079,-6.281,-6.2271,-6.1253,-6.0535,-5.9847,-5.9189,-5.9099,-5.8979,-5.868,-5.7723,-5.6974,-5.6675,-5.5748,-5.5179,-5.5179,-5.4581,-5.4042,-5.3683,-5.2396,-5.1528,-5.1229,-5.1229,-5.0853,-5.0196,-4.9883,-4.9404,-4.8745,-4.8416,-4.8087,-5.5478,-5.9009,-6.3228,-7.3223,-7.81,-8.0644,-8.1452,-8.1841,-8.211,-8.223,-8.235,-8.238,0.0,0.0,0.0,0.0,0.0,0.0,0.0,0.0,0.0,0.0,0.0,0.0,0.0,0.0,0.0,0.0,0.0,0.0,-7.062,-6.8824,-6.7508,-6.6849,-6.6071,-6.5443,-6.5024,-6.4246,-6.3887,-6.3977,-6.3378,-6.3079,-6.3079,-6.3079,-6.3079,-6.3079,-6.3079,-6.3079,-6.3079,-6.3079,-6.3079,-6.3079,-6.3079,-6.3079,-6.3079,-6.3079,-6.3079,-6.3079,-6.3079,-6.3079,-6.3079,-6.3079,-6.3079,-6.3079,-6.3079,-6.3079,-6.3079,-6.3079,-6.3079,-6.3079,-6.3079,-6.3079,-6.3079,-6.3079,-6.3079,-6.3079,-6.3079,-6.3079,-6.3079,-6.3079,-6.3079,-6.3079,-6.3079,-6.245,-6.1732,-6.1194,-6.0446,-5.9727,-5.9189,-5.9009,-5.871,-5.8171,-5.7423,-5.6735,-5.6226,-5.5568,-5.5179,-5.5179,-5.467,-5.4341,-5.4221,-5.3144,-5.2187,-5.1409,-5.1289,-5.096,-5.0375,-5.0255,-4.9942,-4.9434,-4.9359,-4.903,-5.2815,-6.0625,-6.8854,-7.3791,-7.7053,-7.9387,-8.0644,-8.0105,-7.9477,0.0,-8.0674,0.0,0.0,0.0,0.0,0.0,0.0,0.0,0.0,0.0,0.0,0.0,0.0,0.0,0.0,0.0,0.0,0.0,0.0,0.0,-6.9333,-6.7897,-6.6819,-6.6161,-6.4934,-6.4515,-6.5024,-6.3827,-6.3468,-6.3977,-6.3378,-6.3079,-6.3079,-6.3079,-6.3079,-6.3079,-6.3079,-6.3079,-6.3079,-6.3079,-6.3079,-6.3079,-6.3079,-6.3079,-6.3079,-6.3079,-6.3079,-6.3079,-6.3079,-6.3079,-6.3079,-6.3079,-6.3079,-6.3079,-6.3079,-6.3079,-6.3079,-6.3079,-6.3079,-6.3079,-6.3079,-6.3079,-6.3079,-6.3079,-6.3079,-6.3079,-6.3079,-6.3079,-6.3079,-6.3079,-6.3079,-6.3079,-6.3079,-6.2061,-6.1224,-6.1134,-6.0027,-5.9189,-5.9129,-5.859,-5.8231,-5.8141,-5.7034,-5.6308,-5.6248,-5.5568,-5.5179,-5.5179,-5.5119,-5.479,-5.4221,-5.4042,-5.3354,-5.2097,-5.1498,-5.1169,-5.1079,-5.0465,-5.0136,-5.0046,-4.9523,-4.9269,-5.4461,-6.0715,-6.6999,-7.2415,-7.4929,-7.6485,-7.819,-7.81,-7.7771,-7.8071,0.0,0.0,0.0,0.0,0.0,0.0,0.0,0.0,0.0,0.0,0.0,0.0,0.0,0.0,0.0,0.0,0.0,0.0,0.0,-6.8854,-6.7926,-6.6251,-6.5173,-6.4904,-6.3977,-6.3617,-6.3917,-6.3378,-6.3199,-6.3468,-6.3199,-6.3079,-6.3079,-6.3079,-6.3079,-6.3079,-6.3079,-6.3079,-6.3079,-6.3079,-6.3079,-6.3079,-6.3079,-6.3079,-6.3079,-6.3079,-6.3079,-6.3079,-6.3079,-6.3079,-6.3079,-6.3079,-6.3079,-6.3079,-6.3079,-6.3079,-6.3079,-6.3079,-6.3079,-6.3079,-6.3079,-6.3079,-6.3079,-6.3079,-6.3079,-6.3079,-6.3079,-6.3079,-6.3079,-6.3079,-6.3079,-6.3079,-6.3079,-6.2002,-6.1104,-6.1104,-5.9967,-5.9099,-5.9099,-5.886,-5.853,-5.8171,-5.7603,-5.7124,-5.6735,-5.6107,-5.5748,-5.5748,-5.5388,-5.5059,-5.476,-5.4401,-5.3922,-5.3324,-5.2306,-5.1588,-5.1229,-5.0883,-5.0734,-5.0734,-5.0511,-5.0152,-5.473,-5.868,-6.257,-6.8854,-7.1278,-7.2804,-7.5258,-7.5707,-7.5677,0.0,0.0,0.0,0.0,0.0,0.0,0.0,0.0,0.0,0.0,0.0,0.0,0.0,0.0,0.0,0.0,0.0,0.0,0.0,0.0,-6.7418,-6.6789,-6.4994,-6.4006,-6.4006,-6.3408,-6.3079,-6.3079,-6.3079,-6.3079,-6.3079,-6.3079,-6.3079,-6.3079,-6.3079,-6.3079,-6.3079,-6.3079,-6.3079,-6.3079,-6.3079,-6.3079,-6.3079,-6.3079,-6.3079,-6.3079,-6.3079,-6.3079,-6.3079,-6.3079,-6.3079,-6.3079,-6.3079,-6.3079,-6.3079,-6.3079,-6.3079,-6.3079,-6.3079,-6.3079,-6.3079,-6.3079,-6.3079,-6.3079,-6.3079,-6.3079,-6.3079,-6.3079,-6.3079,-6.3079,-6.3079,-6.3079,-6.3079,-6.3079,-6.2002,-6.1104,-6.1104,-5.9967,-5.9099,-5.9099,-5.8949,-5.865,-5.8171,-5.7962,-5.7663,-5.7124,-5.6675,-5.6406,-5.6406,-5.5807,-5.5448,-5.5448,-5.482,-5.4371,-5.4221,-5.3054,-5.2127,-5.1468,-5.1289,-5.1229,-5.1229,-5.1229,-5.0913,-5.081,-5.3533,-5.6885,-6.2241,-6.5473,-6.8375,-7.2235,0.0,-7.2505,0.0,0.0,0.0,0.0,0.0,0.0,0.0,0.0,0.0,0.0,0.0,0.0,0.0,0.0,0.0,0.0,0.0,0.0,0.0,0.0,-6.6759,-6.6101,-6.4755,-6.4006,-6.4006,-6.3408,-6.3079,-6.3079,-6.3079,-6.3079,-6.3079,-6.3079,-6.3079,-6.3079,-6.3079,-6.3079,-6.3079,-6.3079,-6.3079,-6.3079,-6.3079,-6.3079,-6.3079,-6.3079,-6.3079,-6.3079,-6.3079,-6.3079,-6.3079,-6.3079,-6.3079,-6.3079,-6.3079,-6.3079,-6.3079,-6.3079,-6.3079,-6.3079,-6.3079,-6.3079,-6.3079,-6.3079,-6.3079,-6.3079,-6.3079,-6.3079,-6.3079,-6.3079,-6.3079,-6.3079,-6.3079,-6.3079,-6.3079,-6.3079,-6.2002,-6.1104,-6.1104,-5.9967,-5.9099,-5.9099,-5.856,-5.8171,-5.8112,-5.7543,-5.7124,-5.7094,-5.7064,-5.7034,-5.7034,-5.6466,-5.6188,-5.6188,-5.5478,-5.485,-5.4221,-5.3503,-5.2815,-5.2157,-5.1528,-5.1229,-5.1229,-5.1229,-5.1199,-5.0511,-5.1618,-5.3294,-5.859,-6.1583,-6.4036,-6.7148,-6.9303,-7.0799,0.0,0.0,0.0,0.0,0.0,0.0,0.0,0.0,0.0,0.0,0.0,0.0,0.0,0.0,0.0,0.0,0.0,0.0,0.0,0.0,0.0,-6.4725,-6.3887,-6.3408,-6.3408,-6.3199,-6.3079,-6.3079,-6.3079,-6.3079,-6.3079,-6.3079,-6.3079,-6.3079,-6.3079,-6.3079,-6.3079,-6.3079,-6.3079,-6.3079,-6.3079,-6.3079,-6.3079,-6.3079,-6.3079,-6.3079,-6.3079,-6.3079,-6.3079,-6.3079,-6.3079,-6.3079,-6.3079,-6.3079,-6.3079,-6.3079,-6.3079,-6.3079,-6.3079,-6.3079,-6.3079,-6.3079,-6.3079,-6.3079,-6.3079,-6.3079,-6.3079,-6.3079,-6.3079,-6.3079,-6.3079,-6.272,-6.245,-6.245,-6.1343,-6.0446,-6.0446,-5.9668,-5.9099,-5.9099,-5.889,-5.874,-5.874,-5.853,-5.8381,-5.8381,-5.7992,-5.7752,-5.7752,-5.6765,-5.6218,-5.6218,-5.5538,-5.5089,-5.485,-5.4192,-5.3294,-5.2187,-5.1528,-5.1229,-5.1229,-5.1229,-5.1229,-4.9434,-4.9583,-5.0511,-5.5807,-5.7453,-5.8949,-6.3378,0.0,-6.7268,0.0,0.0,0.0,0.0,0.0,0.0,0.0,0.0,0.0,0.0,0.0,0.0,0.0,0.0,0.0,0.0,0.0,0.0,0.0,0.0,0.0,-6.3707,-6.3288,-6.3079,-6.3079,-6.3079,-6.3079,-6.3079,-6.3079,-6.3079,-6.3079,-6.3079,-6.3079,-6.3079,-6.2839,-6.2869,-6.3079,-6.2839,-6.2869,-6.3079,-6.3079,-6.3079,-6.3079,-6.3079,-6.3079,-6.3079,-6.3079,-6.3079,-6.3079,-6.3079,-6.3079,-6.3079,-6.3079,-6.3079,-6.3079,-6.3079,-6.3079,-6.3079,-6.3079,-6.3079,-6.3019,-6.281,-6.275,-6.281,-6.3019,-6.3079,-6.3079,-6.3079,-6.3079,-6.3079,-6.3079,-6.254,-6.2091,-6.2091,-6.0984,-6.0086,-6.0086,-5.9518,-5.9099,-5.9099,-5.9099,-5.9099,-5.9099,-5.9099,-5.9099,-5.9099,-5.871,-5.8471,-5.8471,-5.7423,-5.6735,-5.6496,-5.5867,-5.5418,-5.5179,-5.4551,-5.3773,-5.2875,-5.1977,-5.1558,-5.1528,-5.1319,-5.1229,0.0,0.0,0.0,-5.3653,-5.3025,-5.3174,-6.0924,0.0,-6.1672,0.0,0.0,0.0,0.0,0.0,0.0,0.0,0.0,0.0,0.0,0.0,0.0,0.0,0.0,0.0,0.0,0.0,0.0,0.0,0.0,-6.3707,-6.3109,-6.3079,-6.3079,-6.3079,-6.3079,-6.3079,-6.3049,-6.3079,-6.3049,-6.3019,-6.3049,-6.3049,-6.2989,-6.2361,-6.2421,-6.3019,-6.2361,-6.245,-6.3079,-6.3079,-6.3079,-6.3079,-6.3079,-6.3079,-6.3079,-6.3079,-6.3079,-6.3079,-6.3079,-6.3079,-6.3079,-6.3079,-6.3079,-6.3079,-6.3079,-6.3079,-6.3079,-6.3079,-6.3079,-6.2899,-6.2271,-6.2091,-6.2271,-6.2929,-6.3079,-6.3079,-6.3079,-6.3079,-6.3079,-6.3079,-6.254,-6.2061,-6.2061,-6.0954,-6.0057,-6.0057,-5.9518,-5.9099,-5.9099,-5.9099,-5.9099,-5.9099,-5.9099,-5.9099,-5.9099,-5.9099,-5.9099,-5.9099,-5.8501,-5.7812,-5.7154,-5.6496,-5.5867,-5.5239,-5.4581,-5.4251,-5.4251,-5.2875,-5.2217,-5.2217,-5.1558,-5.1229,-4.7309,0.0,0.0,0.0,0.0,0.0,-5.3084,-5.5359,-5.7453,0.0,0.0,0.0,0.0,0.0,0.0,0.0,0.0,0.0,0.0,0.0,0.0,0.0,0.0,0.0,0.0,0.0,0.0,0.0,-6.3318,-6.3258,-6.3079,-6.3079,-6.3079,-6.3079,-6.3079,-6.2839,-6.2361,-6.2839,-6.26,-6.1672,-6.2151,-6.2121,-6.1642,-6.1463,-6.1732,-6.2331,-6.1672,-6.2032,-6.3079,-6.3079,-6.3079,-6.3079,-6.3079,-6.3079,-6.3079,-6.3079,-6.3079,-6.3079,-6.3079,-6.3079,-6.3079,-6.3079,-6.3079,-6.3079,-6.3079,-6.3079,-6.3079,-6.3079,-6.272,-6.2331,-6.2151,-6.2091,-6.2271,-6.2929,-6.3079,-6.3079,-6.3079,-6.3079,-6.3079,-6.3079,-6.2151,-6.1373,-6.1373,-6.0266,-5.9368,-5.9368,-5.9219,-5.9099,-5.9099,-5.9099,-5.9099,-5.9099,-5.9099,-5.9099,-5.9099,-5.9099,-5.9099,-5.9099,-5.8501,-5.8052,-5.7842,-5.6765,-5.6077,-5.5897,-5.5239,-5.491,-5.491,-5.3563,-5.2905,-5.2905,-5.2247,-5.1678,-4.7369,-4.6531,-4.6142,-4.7894,0.0,0.0,-5.0092,-5.1738,-5.3114,0.0,0.0,0.0,0.0,0.0,0.0,0.0,0.0,0.0,0.0,0.0,0.0,0.0,0.0,0.0,0.0,0.0,0.0,-6.3079,-6.3079,-6.2959,-6.269,-6.266,-6.254,-6.2271,-6.2271,-6.2061,-6.1702,-6.2061,-6.1882,-6.1104,-6.1493,-6.1493,-6.1104,-6.0805,-6.1044,-6.1642,-6.0984,-6.1283,-6.2271,-6.2271,-6.2421,-6.266,-6.266,-6.266,-6.266,-6.266,-6.266,-6.272,-6.2989,-6.2899,-6.272,-6.2989,-6.3079,-6.3079,-6.3079,-6.3079,-6.3079,-6.3079,-6.26,-6.2151,-6.2421,-6.2301,-6.2271,-6.2929,-6.2869,-6.275,-6.3019,-6.2869,-6.275,-6.3019,-6.2002,-6.1104,-6.1104,-5.9997,-5.9099,-5.9099,-5.9099,-5.9099,-5.9099,-5.9099,-5.9099,-5.9099,-5.9099,-5.9099,-5.9099,-5.9099,-5.9099,-5.9099,-5.874,-5.8411,-5.8141,-5.7124,-5.6436,-5.6218,-5.5538,-5.5179,-5.5179,-5.4132,-5.3473,-5.3174,-5.2785,-5.2396,-4.7788,-4.7249,-4.7475,0.0,0.0,0.0,-4.9972,-5.0002,-4.9494,0.0,0.0,0.0,0.0,0.0,0.0,0.0,0.0,0.0,0.0,0.0,0.0,0.0,0.0,0.0,0.0,-6.2869,-6.2869,-6.2869,-6.2869,-6.26,-6.2032,-6.2002,-6.1732,-6.1134,-6.1104,-6.1074,-6.1014,-6.1074,-6.1044,-6.0894,-6.0954,-6.0954,-6.0864,-6.0266,-6.0356,-6.0954,-6.0266,-6.0416,-6.1104,-6.1044,-6.1373,-6.2002,-6.2002,-6.2002,-6.2002,-6.2002,-6.2002,-6.2061,-6.266,-6.254,-6.2181,-6.278,-6.3019,-6.3079,-6.2989,-6.3019,-6.3049,-6.2989,-6.248,-6.2121,-6.272,-6.248,-6.2241,-6.272,-6.248,-6.2241,-6.275,-6.245,-6.2241,-6.275,-6.1912,-6.1104,-6.1104,-5.9997,-5.9099,-5.9099,-5.9099,-5.9099,-5.9099,-5.9099,-5.9099,-5.9099,-5.9099,-5.9099,-5.9099,-5.9099,-5.9099,-5.9099,-5.9099,-5.883,-5.8261,-5.7573,-5.6944,-5.6406,-5.5688,-5.5269,-5.5179,-5.461,-5.3952,-5.3294,-5.3294,-5.3264,0.0,0.0,0.0,0.0,0.0,0.0,-4.7818,-4.8671,-4.9793,0.0,0.0,0.0,0.0,0.0,0.0,0.0,0.0,0.0,0.0,0.0,0.0,0.0,0.0,0.0,0.0,-6.1493,-6.1493,-6.1493,-6.1493,-6.1433,-6.1313,-6.1313,-6.1253,-6.1104,-6.1104,-6.0835,-6.0296,-6.0835,-6.0565,-5.9518,-6.0027,-5.9997,-5.9488,-5.9368,-5.9668,-6.0236,-5.9578,-5.9997,-6.1074,-6.0505,-6.0685,-6.1313,-6.1313,-6.1313,-6.1313,-6.1313,-6.1313,-6.1313,-6.1463,-6.1762,-6.2121,-6.2241,-6.266,-6.2989,-6.245,-6.266,-6.2959,-6.245,-6.1822,-6.1343,-6.1463,-6.1792,-6.2002,-6.1583,-6.1792,-6.2002,-6.1583,-6.1822,-6.1972,-6.1583,-6.1283,-6.1104,-6.1104,-5.9997,-5.9099,-5.9099,-5.9099,-5.9099,-5.9099,-5.9099,-5.9099,-5.9099,-5.9099,-5.9099,-5.9099,-5.9099,-5.9099,-5.9099,-5.9099,-5.9039,-5.8919,-5.8291,-5.7872,-5.7752,-5.6585,-5.5718,-5.5179,-5.5059,-5.467,-5.4012,-5.4012,-5.3713,0.0,0.0,0.0,-5.0242,0.0,0.0,0.0,-4.8057,-4.7864,-4.6591,0.0,0.0,0.0,0.0,0.0,0.0,0.0,0.0,0.0,0.0,0.0,0.0,0.0,0.0,0.0,-5.9937,-6.0236,-6.0565,-6.0924,-6.0954,-6.0625,-6.0595,-6.0446,-6.0116,-6.0116,-5.9937,-5.9608,-5.9937,-5.9787,-5.9099,-5.9428,-5.9428,-5.9099,-5.9099,-5.9279,-5.9578,-5.9249,-5.9488,-6.0086,-5.9727,-5.9787,-6.0146,-6.0475,-6.0595,-6.0595,-6.0595,-6.0595,-6.0655,-6.0984,-6.1104,-6.1164,-6.1493,-6.1822,-6.2032,-6.1702,-6.1852,-6.2181,-6.248,-6.2121,-6.1613,-6.1613,-6.2091,-6.2331,-6.1343,-6.1373,-6.1523,-6.1194,-6.1104,-6.1104,-6.1104,-6.0835,-6.0595,-6.0595,-5.9787,-5.9099,-5.9099,-5.9099,-5.9099,-5.9099,-5.9099,-5.9099,-5.9099,-5.9099,-5.9099,-5.9099,-5.9099,-5.9099,-5.9099,-5.9099,-5.9099,-5.9099,-5.8471,-5.7962,-5.7633,-5.6675,-5.6017,-5.5688,-5.5359,-5.5029,-5.47,-5.47,-5.4521,0.0,0.0,0.0,0.0,0.0,-5.0301,0.0,0.0,0.0,-4.5095,0.0,0.0,0.0,0.0,0.0,0.0,0.0,0.0,0.0,0.0,0.0,0.0,0.0,0.0,0.0,-5.7842,-5.8501,-5.9279,-5.9727,-5.9847,-5.9518,-5.9518,-5.9308,-5.8919,-5.8919,-5.8979,-5.9099,-5.9099,-5.9039,-5.8919,-5.8919,-5.8919,-5.8919,-5.8919,-5.8979,-5.9099,-5.9099,-5.9099,-5.9099,-5.9099,-5.9039,-5.8979,-5.9638,-5.9907,-5.9907,-5.9907,-5.9907,-5.9967,-6.0535,-6.0446,-6.0176,-6.0745,-6.0924,-6.0954,-6.1074,-6.0924,-6.1014,-6.2331,-6.2211,-6.1702,-6.1702,-6.2211,-6.2361,-6.1044,-6.0835,-6.0894,-6.0745,-6.0386,-6.0206,-6.0655,-6.0386,-6.0086,-6.0086,-5.9548,-5.9099,-5.9099,-5.9099,-5.9099,-5.9099,-5.9099,-5.9099,-5.9099,-5.9099,-5.9099,-5.9099,-5.9099,-5.9099,-5.9099,-5.9099,-5.9099,-5.9099,-5.859,-5.7992,-5.7304,-5.6795,-5.6436,-5.6218,-5.5658,-5.5329,-5.5179,-5.5179,-5.5179,0.0,0.0,0.0,0.0,-5.6376,0.0,0.0,0.0,-5.0511,-4.686,0.0,0.0,0.0,0.0,0.0,0.0,0.0,0.0,0.0,0.0,0.0,0.0,0.0,0.0,0.0,0.0,-5.5269,-5.6526,-5.6137,-5.6316,-5.7363,-5.7423,-5.7693,-5.8231,-5.8231,-5.853,-5.9099,-5.9099,-5.88,-5.8231,-5.8231,-5.8231,-5.8231,-5.8231,-5.856,-5.9099,-5.9099,-5.9099,-5.9099,-5.9099,-5.877,-5.8291,-5.8949,-5.9219,-5.9219,-5.9219,-5.9219,-5.9219,-5.9308,-5.9668,-6.0086,-6.0176,-6.0206,-6.0326,-6.0924,-6.0266,-5.9608,-6.0954,-6.0835,-6.0326,-6.0326,-6.0835,-6.1014,-5.9668,-5.9787,-6.0027,-5.9458,-5.9727,-5.9937,-5.9428,-5.9727,-6.0086,-6.0086,-5.9548,-5.9099,-5.9099,-5.9099,-5.9099,-5.9099,-5.9099,-5.9099,-5.9099,-5.9099,-5.9099,-5.9099,-5.9099,-5.9099,-5.9099,-5.9099,-5.9099,-5.9099,-5.9039,-5.868,-5.8022,-5.7932,-5.7334,-5.6218,-5.6107,-5.5748,-5.5179,-5.5179,-5.5179,0.0,0.0,0.0,0.0,0.0,0.0,0.0,0.0,-4.9912,0.0,0.0,0.0,0.0,0.0,0.0,0.0,0.0,0.0,0.0,0.0,0.0,0.0,0.0,0.0,0.0,0.0,0.0,0.0,0.0,-5.4431,-5.5359,-5.6137,-5.6855,-5.7513,-5.7513,-5.7663,-5.7932,-5.7932,-5.7812,-5.7513,-5.7513,-5.7513,-5.7513,-5.7513,-5.7663,-5.7932,-5.7932,-5.7932,-5.7932,-5.7932,-5.7782,-5.7543,-5.7842,-5.8171,-5.859,-5.8979,-5.9099,-5.9099,-5.9099,-5.9279,-5.9518,-5.9518,-5.9518,-5.9638,-6.0326,-5.9847,-5.9398,-6.0745,-6.0625,-6.0086,-6.0086,-6.0595,-6.0775,-5.9428,-5.9608,-5.9907,-5.9249,-5.9308,-5.9428,-5.9159,-5.9338,-5.9518,-5.9518,-5.9279,-5.9099,-5.9099,-5.9099,-5.9099,-5.9099,-5.9099,-5.9099,-5.9099,-5.9099,-5.9099,-5.9099,-5.9099,-5.9099,-5.9099,-5.9099,-5.9099,-5.9099,-5.9099,-5.8979,-5.871,-5.8321,-5.7842,-5.7304,-5.6885,-5.6376,-5.5748,-5.5359,-5.5388,-5.9069,0.0,0.0,0.0,0.0,0.0,0.0,0.0,0.0,0.0,0.0,0.0,0.0,0.0,0.0,-4.6471,0.0,0.0,0.0,0.0,0.0,0.0,0.0,0.0,0.0,0.0,0.0,0.0,0.0,0.0,-5.3324,-5.4461,-5.5538,-5.6526,-5.6735,-5.6915,-5.7094,-5.7094,-5.7004,-5.6825,-5.6825,-5.6825,-5.6825,-5.6825,-5.6944,-5.7094,-5.7094,-5.7094,-5.7094,-5.7094,-5.7004,-5.6855,-5.7034,-5.7304,-5.7693,-5.853,-5.883,-5.886,-5.9039,-5.9099,-5.9099,-5.9099,-5.9099,-5.9189,-5.9668,-5.9488,-5.9308,-6.0296,-6.0206,-5.9817,-5.9817,-6.0206,-6.0326,-5.9338,-5.9458,-5.9668,-5.9219,-5.9099,-5.9099,-5.9099,-5.9099,-5.9099,-5.9099,-5.9099,-5.9099,-5.9099,-5.9099,-5.9099,-5.9099,-5.9099,-5.9099,-5.9099,-5.9099,-5.9099,-5.9099,-5.9099,-5.9099,-5.9099,-5.9099,-5.9099,-5.9099,-5.9099,-5.9099,-5.9099,-5.865,-5.8291,-5.8112,-5.7633,-5.7034,-5.6406,-5.5927,-5.5867,0.0,0.0,0.0,-5.8381,0.0,0.0,0.0,0.0,-5.2336,0.0,0.0,0.0,0.0,0.0,-4.6501,-4.716,-4.5603,0.0,0.0,0.0,0.0,0.0,0.0,0.0,0.0,0.0,0.0,0.0,0.0,0.0,-5.1169,-5.1947,-5.3234,-5.5179,-5.5867,-5.6496,-5.7094,-5.7094,-5.6795,-5.6248,-5.6248,-5.6248,-5.6248,-5.6248,-5.6526,-5.7094,-5.7094,-5.7094,-5.7094,-5.7094,-5.6735,-5.6308,-5.6855,-5.6735,-5.6376,-5.7693,-5.8141,-5.8231,-5.889,-5.9099,-5.9099,-5.9099,-5.9099,-5.9099,-5.9129,-5.9129,-5.9129,-5.9159,-5.9159,-5.9129,-5.9129,-5.9159,-5.9159,-5.9129,-5.9129,-5.9129,-5.9099,-5.9099,-5.9099,-5.9099,-5.9099,-5.9099,-5.9099,-5.9099,-5.9099,-5.9099,-5.9099,-5.9099,-5.9099,-5.9099,-5.9099,-5.9099,-5.9099,-5.9099,-5.9099,-5.9099,-5.9099,-5.9099,-5.9099,-5.9099,-5.9099,-5.9099,-5.9099,-5.9099,-5.9069,-5.877,-5.8112,-5.8112,-5.7723,-5.7064,-5.7034,-5.6735,0.0,0.0,-6.5802,-6.0954,0.0,0.0,0.0,0.0,0.0,0.0,0.0,0.0,0.0,0.0,-4.704,-4.7279,-4.5992,-4.4975,0.0,0.0,0.0,0.0,0.0,0.0,0.0,0.0,0.0,0.0,0.0,0.0,0.0,-5.0062,-5.1798,-5.3803,-5.4521,-5.5179,-5.5837,-5.5837,-5.5718,-5.5538,-5.5538,-5.5538,-5.5538,-5.5538,-5.5628,-5.5837,-5.5837,-5.5837,-5.5837,-5.5837,-5.5718,-5.5538,-5.5748,-5.5718,-5.5748,-5.7483,-5.8112,-5.8231,-5.889,-5.9099,-5.9099,-5.9099,-5.9099,-5.9099,-5.9099,-5.9099,-5.9099,-5.9099,-5.9099,-5.9099,-5.9099,-5.9099,-5.9099,-5.9099,-5.9099,-5.9099,-5.9099,-5.9099,-5.9099,-5.9099,-5.9099,-5.9099,-5.9099,-5.9099,-5.9099,-5.9099,-5.9099,-5.9099,-5.9099,-5.9099,-5.9099,-5.9099,-5.9099,-5.9099,-5.9099,-5.9099,-5.9099,-5.9099,-5.9099,-5.9099,-5.9099,-5.9099,-5.9099,-5.9099,-5.9099,-5.9009,-5.877,-5.877,-5.8441,-5.7782,-5.8231,-5.8082,-6.637,-6.6969,0.0,-6.2839,-6.1642,0.0,-5.5628,0.0,0.0,0.0,0.0,0.0,0.0,0.0,-4.7878,-4.8596,-4.677,-4.5125,0.0,-4.3828,0.0,0.0,0.0,0.0,0.0,0.0,0.0,-4.2641,-4.3449,0.0,0.0,0.0,-5.0451,-5.2426,-5.3354,-5.4042,-5.4461,-5.4491,-5.461,-5.485,-5.485,-5.497,-5.5179,-5.5179,-5.5179,-5.5179,-5.5179,-5.5179,-5.5179,-5.5179,-5.5179,-5.5179,-5.5179,-5.5329,-5.5718,-5.7214,-5.8052,-5.853,-5.8949,-5.9099,-5.9099,-5.9099,-5.9099,-5.9099,-5.9099,-5.9099,-5.9069,-5.883,-5.8919,-5.9069,-5.883,-5.8919,-5.9099,-5.9099,-5.9099,-5.9099,-5.9099,-5.9099,-5.9099,-5.9099,-5.9099,-5.9099,-5.9099,-5.9099,-5.9099,-5.9099,-5.9099,-5.9099,-5.9099,-5.9099,-5.9099,-5.9099,-5.9099,-5.9099,-5.9099,-5.9099,-5.9099,-5.9099,-5.9099,-5.9099,-5.9099,-5.9099,-5.9219,-5.9458,-5.9219,-5.9219,-5.9458,-5.9219,-5.889,-5.8471,-5.8919,-5.889]},{"header":{"parameterUnit":"m.s-1","parameterCategory":1,"la1":30.6,"la2":29.2853,"lo1":-89.7004,"lo2":-87.6739,"dy":0.0162,"dx":0.0183,"nx":112,"ny":82,"refTime":"2024-05-12T18:00:00:Z","depth":0,"parameterNumber":3,"parameterNumberName":"V-component_of_WINDS"},"data":[0.0,0.0,0.0,0.0,0.0,0.0,0.0,0.0,0.0,0.0,0.0,0.0,0.0,0.0,0.0,0.0,0.0,0.0,0.0,0.0,0.0,0.0,0.0,0.0,0.0,0.0,0.0,0.0,0.0,0.0,0.0,0.0,0.0,0.0,0.0,0.0,0.0,0.0,0.0,0.0,0.0,0.0,0.0,0.0,0.0,0.0,0.0,0.0,0.0,0.0,0.0,0.0,0.0,0.0,0.0,0.0,0.0,0.0,0.0,0.0,0.0,0.0,0.0,0.0,0.0,0.0,0.0,0.0,0.0,0.0,0.0,0.0,0.0,0.0,0.0,0.0,0.0,0.0,0.0,0.0,0.0,0.0,0.0,0.0,0.0,0.0,0.0,0.0,0.0,0.0,0.0,3.4175,3.6237,3.805,3.937,3.7448,3.5318,3.3339,0.0,0.0,0.0,0.0,0.0,0.0,0.0,0.0,0.0,0.0,0.0,0.0,0.0,0.0,0.0,0.0,0.0,0.0,0.0,0.0,0.0,0.0,0.0,0.0,0.0,0.0,0.0,0.0,0.0,0.0,0.0,0.0,0.0,0.0,0.0,0.0,0.0,0.0,0.0,0.0,0.0,0.0,0.0,0.0,0.0,0.0,0.0,0.0,0.0,0.0,0.0,0.0,0.0,0.0,0.0,0.0,0.0,0.0,0.0,0.0,0.0,0.0,0.0,0.0,0.0,0.0,0.0,0.0,0.0,0.0,0.0,0.0,0.0,0.0,0.0,0.0,0.0,0.0,0.0,0.0,0.0,0.0,0.0,0.0,0.0,0.0,0.0,0.0,0.0,0.0,0.0,0.0,0.0,0.0,0.0,0.0,0.0,0.0,0.0,0.0,0.0,0.0,0.0,0.0,3.3906,3.7319,3.8003,3.8202,3.8034,3.5422,3.3428,3.2516,0.0,0.0,0.0,0.0,0.0,0.0,0.0,0.0,0.0,0.0,0.0,0.0,0.0,0.0,0.0,0.0,0.0,0.0,0.0,0.0,0.0,0.0,0.0,0.0,0.0,0.0,0.0,0.0,0.0,0.0,0.0,0.0,0.0,0.0,0.0,0.0,0.0,0.0,0.0,0.0,0.0,0.0,0.0,0.0,0.0,0.0,0.0,0.0,0.0,0.0,0.0,0.0,0.0,0.0,0.0,0.0,0.0,0.0,0.0,0.0,0.0,0.0,0.0,0.0,0.0,0.0,0.0,0.0,0.0,0.0,0.0,0.0,0.0,0.0,0.0,0.0,0.0,0.0,0.0,0.0,0.0,0.0,0.0,0.0,0.0,0.0,0.0,0.0,0.0,0.0,0.0,0.0,0.0,0.0,0.0,0.0,0.0,0.0,0.0,0.0,0.0,0.0,0.0,3.3484,3.4801,3.8033,3.8063,3.7836,3.7716,3.4632,3.2595,3.2313,2.9754,0.0,0.0,0.0,0.0,0.0,0.0,0.0,0.0,0.0,0.0,0.0,0.0,0.0,0.0,0.0,0.0,0.0,0.0,0.0,0.0,0.0,0.0,0.0,0.0,0.0,0.0,0.0,0.0,0.0,0.0,0.0,0.0,0.0,0.0,0.0,0.0,0.0,0.0,0.0,0.0,0.0,0.0,0.0,0.0,0.0,0.0,0.0,0.0,0.0,0.0,0.0,0.0,0.0,0.0,0.0,0.0,0.0,0.0,0.0,0.0,0.0,0.0,0.0,0.0,0.0,0.0,0.0,0.0,0.0,0.0,0.0,0.0,0.0,0.0,0.0,0.0,0.0,0.0,0.0,0.0,0.0,0.0,0.0,0.0,0.0,0.0,0.0,0.0,0.0,0.0,0.0,0.0,0.0,0.0,0.0,0.0,0.0,0.0,0.0,0.0,0.0,0.0,3.5848,3.6211,3.8182,3.7943,3.7532,3.7239,3.3969,3.2054,3.2279,2.8863,0.0,0.0,0.0,0.0,0.0,0.0,0.0,0.0,0.0,0.0,0.0,0.0,0.0,0.0,0.0,0.0,0.0,0.0,0.0,0.0,0.0,0.0,0.0,0.0,0.0,0.0,0.0,0.0,0.0,0.0,0.0,0.0,0.0,0.0,0.0,0.0,0.0,0.0,0.0,0.0,0.0,0.0,0.0,0.0,0.0,0.0,0.0,0.0,0.0,0.0,0.0,0.0,0.0,0.0,0.0,0.0,0.0,0.0,0.0,0.0,0.0,0.0,0.0,0.0,0.0,0.0,0.0,0.0,0.0,0.0,0.0,0.0,0.0,0.0,0.0,0.0,0.0,0.0,0.0,0.0,0.0,0.0,0.0,0.0,0.0,0.0,0.0,0.0,0.0,0.0,0.0,0.0,0.0,0.0,0.0,0.0,0.0,0.0,0.0,0.0,0.0,0.0,3.6297,3.8182,3.8362,3.8362,3.7651,3.5879,3.2933,3.149,3.2246,2.911,0.0,0.0,0.0,0.0,0.0,0.0,0.0,0.0,0.0,0.0,0.0,0.0,0.0,0.0,0.0,0.0,0.0,0.0,0.0,0.0,0.0,0.0,0.0,0.0,0.0,0.0,0.0,0.0,0.0,0.0,0.0,0.0,0.0,0.0,0.0,0.0,0.0,0.0,0.0,0.0,0.0,0.0,0.0,0.0,0.0,0.0,0.0,0.0,0.0,0.0,0.0,0.0,0.0,0.0,0.0,0.0,0.0,0.0,0.0,0.0,0.0,0.0,0.0,0.0,0.0,0.0,0.0,0.0,0.0,0.0,0.0,0.0,0.0,0.0,0.0,0.0,0.0,0.0,0.0,0.0,0.0,0.0,0.0,0.0,0.0,0.0,0.0,0.0,0.0,0.0,0.0,0.0,0.0,0.0,0.0,0.0,0.0,0.0,0.0,0.0,0.0,0.0,3.4921,3.6417,0.0,3.7434,3.6768,3.5717,3.2837,3.1426,3.2246,0.0,0.0,0.0,0.0,0.0,0.0,0.0,0.0,0.0,0.0,0.0,0.0,0.0,0.0,0.0,0.0,0.0,0.0,0.0,0.0,0.0,0.0,0.0,0.0,0.0,0.0,0.0,0.0,0.0,0.0,0.0,0.0,0.0,0.0,0.0,0.0,0.0,0.0,0.0,0.0,0.0,0.0,0.0,0.0,0.0,0.0,0.0,0.0,0.0,0.0,0.0,0.0,0.0,0.0,0.0,0.0,0.0,0.0,0.0,0.0,0.0,0.0,0.0,0.0,0.0,0.0,0.0,0.0,0.0,0.0,0.0,0.0,0.0,0.0,0.0,0.0,0.0,0.0,0.0,0.0,0.0,0.0,0.0,0.0,0.0,0.0,0.0,0.0,0.0,0.0,0.0,0.0,0.0,0.0,0.0,0.0,0.0,0.0,0.0,0.0,0.0,0.0,3.3455,3.4593,3.5699,0.0,3.6866,3.6155,3.5317,3.2272,3.0955,3.2256,0.0,0.0,0.0,0.0,0.0,0.0,0.0,0.0,0.0,0.0,0.0,0.0,0.0,0.0,0.0,0.0,0.0,0.0,0.0,0.0,0.0,0.0,0.0,0.0,0.0,0.0,0.0,0.0,0.0,0.0,0.0,0.0,0.0,0.0,0.0,0.0,0.0,0.0,0.0,0.0,0.0,0.0,0.0,0.0,0.0,0.0,0.0,0.0,0.0,0.0,0.0,0.0,0.0,0.0,0.0,0.0,0.0,0.0,0.0,0.0,0.0,0.0,0.0,0.0,0.0,0.0,0.0,0.0,0.0,0.0,0.0,0.0,0.0,0.0,0.0,0.0,0.0,0.0,0.0,0.0,0.0,0.0,0.0,0.0,0.0,0.0,0.0,0.0,0.0,0.0,0.0,0.0,0.0,0.0,0.0,0.0,0.0,0.0,0.0,0.0,0.0,0.0,3.4264,3.5639,3.6716,3.7345,3.6836,3.5963,3.4594,3.1066,2.9899,0.0,0.0,0.0,0.0,0.0,0.0,0.0,0.0,0.0,0.0,0.0,0.0,0.0,0.0,0.0,0.0,0.0,0.0,0.0,0.0,0.0,0.0,0.0,0.0,0.0,0.0,0.0,0.0,0.0,0.0,0.0,0.0,0.0,0.0,0.0,0.0,0.0,0.0,0.0,0.0,0.0,0.0,0.0,0.0,0.0,0.0,0.0,0.0,0.0,0.0,0.0,0.0,0.0,0.0,0.0,0.0,0.0,0.0,0.0,0.0,0.0,0.0,0.0,0.0,0.0,0.0,0.0,0.0,0.0,0.0,0.0,0.0,0.0,0.0,0.0,0.0,0.0,0.0,0.0,0.0,0.0,0.0,0.0,0.0,0.0,0.0,0.0,0.0,0.0,0.0,0.0,0.0,0.0,0.0,0.0,0.0,0.0,0.0,0.0,0.0,0.0,0.0,0.0,3.4264,3.525,3.6207,3.7285,3.6447,3.5629,3.5243,3.1495,3.029,3.2957,0.0,0.0,0.0,0.0,0.0,0.0,0.0,0.0,0.0,0.0,0.0,0.0,0.0,0.0,0.0,0.0,0.0,0.0,0.0,0.0,0.0,0.0,0.0,0.0,0.0,0.0,0.0,0.0,0.0,0.0,0.0,0.0,0.0,0.0,0.0,0.0,0.0,0.0,0.0,0.0,0.0,0.0,0.0,0.0,0.0,0.0,0.0,0.0,0.0,0.0,0.0,0.0,0.0,0.0,0.0,0.0,0.0,0.0,0.0,0.0,0.0,0.0,0.0,0.0,0.0,0.0,0.0,0.0,0.0,0.0,0.0,0.0,0.0,0.0,0.0,0.0,0.0,0.0,0.0,0.0,0.0,0.0,0.0,0.0,0.0,0.0,0.0,0.0,0.0,0.0,0.0,0.0,0.0,0.0,0.0,0.0,0.0,0.0,0.0,0.0,0.0,0.0,3.322,3.4296,3.5406,3.6669,3.6034,3.5413,3.5095,3.1757,3.0304,3.175,0.0,0.0,0.0,0.0,0.0,0.0,0.0,0.0,0.0,0.0,0.0,0.0,0.0,0.0,0.0,0.0,0.0,0.0,0.0,0.0,0.0,0.0,0.0,0.0,0.0,0.0,0.0,0.0,0.0,0.0,0.0,0.0,0.0,0.0,0.0,0.0,0.0,0.0,0.0,0.0,0.0,0.0,0.0,0.0,0.0,0.0,0.0,0.0,0.0,0.0,0.0,0.0,0.0,0.0,0.0,0.0,0.0,0.0,0.0,0.0,0.0,0.0,0.0,0.0,0.0,0.0,0.0,0.0,0.0,0.0,0.0,0.0,0.0,0.0,0.0,0.0,0.0,0.0,0.0,0.0,0.0,0.0,0.0,0.0,0.0,0.0,0.0,0.0,0.0,0.0,0.0,0.0,0.0,0.0,0.0,0.0,0.0,0.0,0.0,0.0,0.0,0.0,3.1715,3.3152,3.4554,3.5791,3.5726,3.531,3.4653,3.191,3.0063,2.9701,0.0,0.0,0.0,0.0,0.0,0.0,0.0,0.0,0.0,0.0,0.0,0.0,0.0,0.0,0.0,0.0,0.0,0.0,0.0,0.0,0.0,0.0,0.0,0.0,0.0,0.0,0.0,0.0,0.0,0.0,0.0,0.0,0.0,0.0,0.0,0.0,0.0,0.0,0.0,0.0,0.0,0.0,0.0,0.0,0.0,0.0,0.0,0.0,0.0,0.0,0.0,0.0,0.0,0.0,0.0,0.0,0.0,0.0,0.0,0.0,3.9849,0.0,0.0,0.0,0.0,0.0,0.0,0.0,0.0,0.0,0.0,0.0,0.0,0.0,0.0,0.0,0.0,0.0,0.0,0.0,0.0,0.0,0.0,0.0,0.0,0.0,0.0,0.0,0.0,0.0,0.0,0.0,0.0,0.0,0.0,0.0,0.0,0.0,0.0,0.0,0.0,0.0,3.2319,3.3804,3.5078,3.582,3.6109,3.5998,3.534,3.2316,3.0576,3.0953,0.0,0.0,0.0,0.0,0.0,0.0,0.0,0.0,0.0,0.0,0.0,0.0,0.0,0.0,0.0,0.0,0.0,0.0,0.0,0.0,0.0,0.0,0.0,0.0,0.0,0.0,0.0,0.0,0.0,0.0,0.0,0.0,0.0,0.0,0.0,0.0,0.0,0.0,0.0,0.0,0.0,0.0,0.0,0.0,0.0,0.0,0.0,0.0,0.0,0.0,0.0,0.0,0.0,0.0,0.0,0.0,0.0,0.0,0.0,0.0,0.0,4.1422,0.0,0.0,0.0,0.0,0.0,0.0,0.0,0.0,0.0,0.0,0.0,0.0,0.0,0.0,0.0,0.0,0.0,0.0,0.0,0.0,0.0,0.0,0.0,0.0,0.0,0.0,0.0,0.0,0.0,0.0,0.0,0.0,0.0,0.0,0.0,0.0,0.0,0.0,0.0,0.0,3.0705,3.2409,3.3973,3.502,3.5501,3.5676,3.5517,3.3305,3.1653,3.1019,2.8387,0.0,0.0,0.0,0.0,0.0,0.0,0.0,0.0,0.0,0.0,0.0,0.0,0.0,0.0,0.0,0.0,0.0,0.0,0.0,0.0,0.0,0.0,0.0,0.0,0.0,0.0,0.0,0.0,0.0,0.0,0.0,0.0,0.0,0.0,0.0,0.0,0.0,0.0,0.0,0.0,0.0,0.0,0.0,0.0,0.0,0.0,0.0,0.0,0.0,0.0,0.0,0.0,0.0,5.0331,5.102,5.1396,5.2007,5.2007,5.1396,4.8476,4.5783,4.3339,0.0,0.0,0.0,0.0,0.0,0.0,0.0,0.0,0.0,0.0,0.0,0.0,0.0,0.0,0.0,0.0,0.0,0.0,0.0,0.0,0.0,0.0,0.0,0.0,0.0,4.0178,4.0099,0.0,0.0,0.0,0.0,0.0,0.0,0.0,0.0,0.0,0.0,0.0,0.0,2.9343,3.1063,3.2858,3.4426,3.4795,3.5072,3.5451,3.4382,3.2856,3.0971,3.0011,2.8576,0.0,0.0,0.0,0.0,0.0,0.0,0.0,0.0,0.0,0.0,0.0,0.0,0.0,0.0,0.0,0.0,0.0,0.0,0.0,0.0,0.0,0.0,0.0,0.0,0.0,0.0,0.0,0.0,0.0,0.0,0.0,0.0,4.4619,4.5372,0.0,0.0,0.0,0.0,0.0,0.0,0.0,0.0,0.0,0.0,0.0,0.0,0.0,5.1977,5.1887,5.6226,5.7842,5.6735,5.9697,6.0565,5.9578,6.0236,6.0475,6.0356,5.9338,0.0,4.7369,4.5454,0.0,0.0,0.0,0.0,0.0,0.0,0.0,0.0,0.0,0.0,0.0,0.0,0.0,0.0,0.0,0.0,0.0,0.0,0.0,0.0,0.0,0.0,4.4377,4.1047,4.0814,4.0764,0.0,3.7563,3.6626,3.4414,3.2796,0.0,0.0,0.0,0.0,0.0,0.0,0.0,3.128,3.2508,3.3973,3.5495,3.526,3.5141,3.5451,3.4801,3.3754,3.2347,3.0576,2.9663,2.9825,2.7046,0.0,0.0,0.0,0.0,0.0,0.0,0.0,0.0,0.0,0.0,0.0,0.0,0.0,0.0,0.0,0.0,0.0,0.0,0.0,0.0,0.0,0.0,0.0,0.0,0.0,0.0,0.0,0.0,0.0,4.6878,4.7886,4.6461,4.6896,4.6133,0.0,0.0,0.0,0.0,0.0,0.0,0.0,0.0,0.0,5.3204,5.6825,5.874,5.874,6.2211,6.3498,6.257,6.4395,6.4964,6.4425,6.4725,6.4844,6.4844,6.4545,6.1642,5.6765,5.2187,4.8895,4.6471,0.0,0.0,0.0,0.0,4.5334,4.5633,4.8237,4.8177,0.0,0.0,0.0,0.0,0.0,0.0,0.0,0.0,0.0,0.0,0.0,0.0,0.0,4.3083,4.32,4.314,4.1165,4.0478,3.9316,0.0,3.5818,3.5427,3.3873,0.0,0.0,0.0,0.0,0.0,3.2609,3.3173,3.4119,3.5741,3.4803,3.446,3.5419,3.4214,3.3322,3.3095,3.1043,2.9771,2.9446,2.7625,2.6988,0.0,0.0,0.0,0.0,0.0,0.0,0.0,0.0,0.0,0.0,0.0,0.0,0.0,0.0,0.0,0.0,0.0,0.0,0.0,0.0,0.0,0.0,0.0,0.0,0.0,0.0,0.0,0.0,5.0191,5.096,4.8103,4.9726,4.912,0.0,0.0,0.0,0.0,0.0,0.0,5.2318,5.5508,5.7872,5.9338,6.2929,6.4844,6.4844,6.7119,6.7986,6.7508,6.8016,6.8345,6.8495,6.8315,6.8256,6.8226,6.7897,6.67,6.4545,5.8291,5.3952,5.1096,4.8925,4.7758,4.7578,4.9733,5.0331,5.0541,5.4012,5.3892,5.2127,5.1468,0.0,4.689,4.3269,0.0,0.0,0.0,0.0,4.14,4.3696,4.4825,4.525,4.4993,4.5046,4.4759,4.3119,4.2461,4.1213,0.0,3.827,3.8302,3.5669,0.0,0.0,0.0,0.0,3.2744,3.4165,3.4189,3.4598,3.6006,3.4526,3.3951,3.5263,3.3888,3.3084,3.341,3.1889,3.0455,2.9296,2.8379,2.7599,2.7065,0.0,0.0,0.0,0.0,0.0,0.0,0.0,0.0,0.0,0.0,0.0,0.0,0.0,0.0,0.0,0.0,0.0,0.0,0.0,0.0,0.0,0.0,0.0,0.0,0.0,0.0,0.0,0.0,0.0,5.2525,5.4422,0.0,0.0,0.0,0.0,5.1708,5.4192,5.6555,5.856,6.1224,6.3558,6.5503,6.8196,6.9632,6.9632,7.0979,7.1637,7.1577,7.1637,7.1996,7.2595,7.1936,7.1637,7.1577,7.035,6.9034,6.7358,6.2002,5.856,5.6436,5.3862,5.2815,5.2875,5.3683,5.4341,5.488,5.5119,5.5089,5.5179,5.6346,5.4102,5.0481,4.7788,4.5562,0.0,0.0,4.4994,4.6087,4.692,4.7608,4.7792,4.6575,4.5383,4.4338,4.3634,4.2511,4.1214,0.0,3.8884,3.8182,3.7404,0.0,3.5305,3.5335,3.5839,3.6257,3.6347,3.6067,3.6086,3.6683,3.4888,3.394,3.4858,3.4318,3.3753,3.3256,3.3288,3.267,3.1141,2.9448,2.8543,2.8509,2.7179,0.0,0.0,0.0,0.0,0.0,0.0,0.0,0.0,0.0,0.0,0.0,0.0,0.0,0.0,0.0,0.0,0.0,0.0,0.0,0.0,0.0,0.0,0.0,0.0,0.0,0.0,0.0,0.0,5.8606,6.0928,0.0,5.5388,5.6526,5.7693,5.7932,6.0386,6.272,6.4695,6.6909,6.8824,7.041,7.1787,7.2714,7.3133,7.3582,7.3612,7.3193,7.3193,7.2864,7.2235,7.1996,7.1637,7.1218,7.035,6.9213,6.7747,6.5024,6.248,6.0146,5.8321,5.7363,5.7064,5.7752,5.8411,5.9069,5.9488,5.9069,5.7992,5.5927,5.3414,5.096,4.9568,4.8117,4.695,4.7369,4.7549,4.7728,4.8386,4.8416,4.8178,4.7748,4.6326,4.4818,4.3748,4.3122,4.2297,4.0548,3.967,3.8904,3.7766,3.5939,3.4723,3.5184,3.536,3.5793,3.6581,3.6237,3.6244,3.7081,3.4952,3.398,3.5154,3.3545,3.2544,3.2753,3.1861,3.0982,3.0187,2.8744,2.7974,2.7974,2.6633,2.6357,0.0,0.0,0.0,0.0,0.0,0.0,0.0,0.0,0.0,0.0,0.0,0.0,0.0,0.0,0.0,0.0,0.0,0.0,0.0,0.0,0.0,0.0,0.0,0.0,0.0,0.0,6.3079,6.3564,6.6213,6.6161,6.1553,6.251,6.3617,6.4066,6.6131,6.8226,7.0201,7.1757,7.2984,7.3881,7.436,7.4659,7.4869,7.4869,7.4659,7.421,7.4001,7.3432,7.2535,7.2086,7.1637,7.1188,7.035,6.9363,6.8196,6.664,6.4844,6.2959,6.1613,6.0835,6.0505,6.0924,6.1373,6.1822,6.2032,6.0975,5.9099,5.5847,5.355,5.1935,5.108,5.0406,5.0032,5.0497,5.0122,4.9703,5.0152,4.9763,4.9164,4.8716,4.7313,4.5723,4.4434,4.3456,4.2484,4.1214,4.0634,3.9947,3.8608,3.6907,3.5837,3.6248,3.5934,3.6005,3.7034,3.6505,3.6143,3.6437,3.4567,3.3634,3.4495,3.2975,3.1746,3.1243,3.0785,2.9893,2.8483,2.7781,2.7336,2.7132,2.6054,2.5968,2.6874,0.0,0.0,0.0,0.0,0.0,0.0,0.0,0.0,0.0,0.0,0.0,0.0,0.0,0.0,0.0,0.0,0.0,0.0,0.0,0.0,0.0,0.0,0.0,6.0313,6.4706,6.7573,6.7275,7.0092,7.029,6.5802,6.7119,6.8794,7.0081,7.1338,7.2894,7.4839,7.5587,7.5946,7.5946,7.5916,7.5587,7.4929,7.4899,7.4869,7.4839,7.421,7.3881,7.3791,7.2475,7.1876,7.1757,7.05,6.9542,6.8764,6.6789,6.5592,6.4844,6.3558,6.3079,6.3079,6.3079,6.3079,6.2989,6.2301,6.0555,5.8407,5.6503,5.4921,5.3522,5.2392,5.2557,5.3155,5.3204,5.2725,5.2217,5.2217,5.1708,5.09,4.9629,4.8345,4.7055,4.5722,4.3456,4.169,4.164,4.1693,4.1304,3.9914,3.9173,3.8761,3.8605,3.7744,0.0,3.7744,3.6836,3.5802,3.4883,3.3754,3.3027,3.2896,3.2688,3.1471,2.8898,3.0315,2.9718,2.6268,2.6767,2.6819,2.6182,2.5651,2.5449,2.5574,0.0,0.0,0.0,0.0,0.0,0.0,0.0,0.0,0.0,0.0,0.0,0.0,0.0,0.0,0.0,0.0,0.0,0.0,0.0,0.0,0.0,5.9279,6.2414,6.2956,6.664,6.9958,7.1771,7.3994,7.4809,7.3073,7.3821,7.436,7.427,7.5018,7.5707,7.6275,7.6485,7.6574,7.6574,7.6125,7.5826,7.5617,7.5138,7.4629,7.4151,7.3971,7.3373,7.2415,7.2056,7.1398,7.047,6.9632,6.8345,6.6759,6.5712,6.4635,6.3588,6.3228,6.3079,6.3079,6.3079,6.3079,6.2899,6.1792,6.0202,5.835,5.5927,5.4117,5.2827,5.2759,5.2532,5.2552,5.3595,5.3443,5.2785,5.2336,5.1708,5.09,4.9629,4.8641,4.7552,4.5772,4.484,4.4069,4.317,4.2681,4.1587,3.8891,3.7702,3.6902,3.647,3.6455,0.0,3.6209,3.5889,3.5841,3.6252,3.4952,3.4179,3.4438,3.3293,3.1723,2.9834,2.8853,2.7761,2.6441,2.5578,2.508,2.4915,2.6077,2.6778,0.0,0.0,0.0,0.0,0.0,0.0,0.0,0.0,0.0,0.0,0.0,0.0,0.0,0.0,0.0,0.0,0.0,0.0,0.0,0.0,0.0,0.0,6.4354,6.7897,6.9542,7.1308,7.3402,7.6066,7.7143,7.7622,7.7562,7.7352,7.7322,7.7532,7.7622,7.7771,7.8071,7.7801,7.7382,7.6844,7.6485,7.6036,7.5497,7.5078,7.4689,7.43,7.3762,7.3073,7.2295,7.1727,7.0919,0.0,6.9273,6.8166,6.6729,6.5533,6.4575,0.0,0.0,0.0,0.0,0.0,6.3079,6.2899,6.1583,5.9624,5.7267,5.48,5.2878,5.151,5.1211,5.1717,5.2544,5.3136,5.3238,5.3025,5.2366,5.1708,5.09,4.9629,4.903,4.8239,4.6549,4.5779,4.5161,4.4442,0.0,0.0,3.996,3.8407,3.722,3.6377,3.608,3.5967,3.5863,3.5262,3.5037,3.5563,3.4392,3.3539,3.3542,3.2771,0.0,0.0,0.0,2.7848,2.6687,2.5898,0.0,0.0,0.0,2.6933,2.6828,0.0,0.0,0.0,2.959,2.9622,0.0,0.0,0.0,0.0,0.0,0.0,0.0,0.0,0.0,0.0,0.0,0.0,0.0,0.0,0.0,0.0,6.9931,7.3851,7.7622,7.7352,7.7562,7.9686,7.9387,7.9267,7.9866,7.8789,7.8519,7.9716,7.9178,7.9058,7.9686,0.0,0.0,0.0,0.0,7.6155,7.4988,7.4929,7.4839,7.4749,7.3492,7.2864,7.2744,7.1261,7.0271,6.9645,6.8925,6.8273,6.7439,6.5681,6.4934,6.4695,6.3528,6.3079,6.3079,6.3079,6.3079,6.2899,6.1583,0.0,0.0,5.3536,5.1517,4.9763,4.8837,5.0406,5.2476,5.2167,5.2565,5.2919,5.2438,5.1828,5.099,4.9703,4.9224,4.879,4.7625,4.6358,4.5434,4.5598,4.4674,4.3519,4.2241,4.0475,3.8751,3.747,3.6351,3.578,3.6254,3.5002,3.4098,3.4098,0.0,0.0,3.1637,3.1796,3.0955,2.8723,2.93,2.8855,2.6927,2.679,2.6382,2.5644,2.6303,2.6489,2.6117,2.7476,2.842,2.8885,2.9956,2.9666,0.0,0.0,0.0,0.0,0.0,0.0,0.0,0.0,0.0,0.0,0.0,0.0,0.0,0.0,0.0,6.9333,7.3732,7.7502,7.9896,8.1362,8.1811,8.0734,8.0494,8.0464,8.0584,7.9896,7.9537,7.9806,7.9178,7.8849,7.8998,7.837,7.7891,7.7622,7.6634,7.5976,7.5707,7.5138,7.4599,7.4061,0.0,0.0,7.199,6.9705,6.8305,6.7638,6.6933,6.594,6.4845,6.4958,6.4395,6.3438,6.3169,6.3079,6.3079,6.3079,6.3079,6.2899,6.1583,5.8987,5.5944,5.3976,5.107,4.8436,4.9015,4.928,0.0,5.2152,5.2538,5.234,5.2851,5.2516,5.1678,5.0361,4.885,4.7817,4.806,4.6681,4.5689,4.6726,4.6726,4.602,4.432,4.1672,3.9348,3.8103,3.6964,3.6081,3.5708,3.5382,3.5182,3.5182,3.458,3.3822,3.2842,3.2019,3.0803,2.9144,2.8456,2.7616,2.6629,2.6105,2.5752,2.5586,2.6207,2.6822,2.736,2.855,2.9175,2.9289,2.9733,2.9998,0.0,0.0,0.0,0.0,0.0,0.0,0.0,0.0,0.0,0.0,0.0,6.1792,6.4126,0.0,7.1637,7.5258,7.834,8.0853,8.2529,8.3307,8.3247,8.1931,8.208,8.214,8.1811,8.1482,8.1302,8.1302,8.0375,7.9806,7.9806,7.8519,7.7652,7.7322,7.6395,7.5736,7.5377,7.5048,7.4719,7.436,7.3732,7.3043,7.2385,7.0711,6.8931,6.7075,6.647,6.5107,6.3291,6.354,6.3416,6.3079,6.3079,6.3079,6.3079,6.3079,6.3079,6.2929,6.1942,5.9277,5.6027,5.4505,5.1448,4.8309,4.8221,4.8544,4.9258,5.0875,5.1665,5.2121,5.2594,5.2456,5.1858,5.0495,4.8987,4.7728,4.7427,4.6034,4.5164,4.618,4.6344,4.6138,4.5536,4.3662,4.1434,3.899,3.7814,3.6934,3.6074,3.5683,3.5508,3.5508,3.4756,3.3972,3.3144,3.1919,3.0777,2.9764,2.9297,2.875,2.798,2.7662,2.7301,2.6841,2.7143,2.7516,2.791,2.8476,2.8888,2.9171,2.9291,2.9346,0.0,0.0,0.0,0.0,0.0,0.0,0.0,0.0,6.0921,6.2152,6.4992,6.8226,7.1158,7.418,7.7352,8.0823,8.2469,8.3606,8.4414,8.4295,8.3726,8.2679,8.3247,8.3487,8.2828,8.2844,8.2709,8.2589,8.1362,8.0614,8.0614,7.8699,7.7382,7.6844,7.6096,7.5437,7.4869,7.4869,7.4869,7.4869,7.421,7.3552,7.2894,7.1844,6.9646,6.6679,6.5628,6.3914,6.1872,6.1868,6.1935,6.2116,6.2497,6.2613,6.2613,6.3021,6.3079,6.2989,6.2331,5.9537,5.6083,5.5003,5.1979,4.8586,4.7581,4.7982,4.8963,4.9357,5.0453,5.165,5.1906,5.2174,5.2067,5.0704,4.9161,4.7749,4.68,4.522,4.4173,4.4908,4.5207,4.547,4.5712,4.5084,4.3385,3.9968,3.8785,3.7854,3.6546,3.5981,3.5608,3.5508,3.4605,3.3746,3.2968,3.1792,3.0849,3.0314,3.0468,3.0254,2.95,2.9396,2.8985,2.8273,2.8273,2.8273,2.8273,2.8373,2.8674,2.9063,2.9063,2.885,6.2018,5.9766,5.8593,6.0858,6.1091,6.2176,0.0,0.0,7.0157,7.3506,7.4886,7.5976,7.7532,7.9567,8.1542,8.3128,8.4504,8.5013,8.3995,8.4773,8.4594,8.217,8.2978,8.3487,8.2828,8.2844,8.2529,8.1931,8.0674,7.9926,7.9926,7.8011,7.6904,7.6814,7.5647,7.4958,7.4869,7.4869,7.4869,7.4869,7.421,7.3552,7.2827,7.0478,6.7981,6.5261,6.2462,6.0831,6.0076,6.0079,5.9467,5.8697,6.0176,6.081,6.099,6.2555,6.3079,6.2989,6.2331,5.9537,5.6166,5.5441,5.2297,4.8661,4.8008,4.7604,4.7501,4.8379,4.9247,5.0148,5.0944,5.2141,5.2725,5.1439,4.9173,4.7365,4.7291,4.4823,4.2828,4.3566,4.4627,4.5041,4.3985,4.4135,4.3564,4.0979,3.968,3.8391,3.6597,3.6355,3.6081,3.5558,3.4956,3.3997,3.2441,3.1719,3.1145,3.0615,3.0593,3.034,2.9757,2.9252,2.89,2.8787,2.8787,2.8787,2.8787,2.9352,2.9628,2.9704,2.9704,2.9654,6.8808,6.6805,6.514,6.6385,6.7915,6.9536,7.1224,7.3577,7.5927,7.788,7.9912,8.1811,8.3128,8.4384,8.5551,0.0,8.7077,8.7107,8.618,8.5521,8.4295,8.205,8.226,8.2649,8.2814,8.2844,8.2798,8.2918,8.1362,8.0405,8.0405,7.8489,7.7233,7.6844,7.5946,7.5288,7.4869,7.4869,7.4869,7.4869,7.4599,7.4121,7.3462,7.2006,6.8699,6.4094,6.0519,5.8739,5.8241,5.8241,5.8135,5.8068,5.8731,5.9598,6.075,6.2497,6.3079,6.3049,6.275,5.9886,5.6221,5.5972,5.2855,4.9138,4.8586,4.8259,4.8193,4.8826,4.9227,4.9795,5.1242,5.2049,5.2251,5.1295,4.9364,4.745,4.6287,4.3752,4.1957,4.2698,4.303,4.3266,4.3456,4.3705,4.3166,4.1125,3.9774,3.8376,3.6597,3.6405,3.6031,3.5107,3.4806,3.4003,3.2365,3.1989,3.1637,3.111,3.0783,3.0507,3.0281,2.9729,2.9428,2.9428,2.9428,2.9428,2.9428,2.9679,2.9804,2.9804,2.9804,2.9804,7.3375,7.268,7.21,7.2983,7.5059,7.6622,7.5626,7.8137,8.0883,8.1572,8.3906,8.6307,8.799,8.8256,8.8636,8.959,8.9308,8.8604,8.7556,8.5701,8.3636,8.1482,8.0614,8.0494,8.1302,8.205,8.2769,8.3427,8.1811,8.0794,8.0794,7.9058,7.7771,7.7113,7.6335,7.5677,7.5168,7.4958,7.4869,7.4869,7.4869,7.454,7.3851,7.2514,6.9001,6.3846,6.0248,5.7965,5.686,5.6522,5.6607,5.6812,5.7167,5.8292,5.9994,6.1792,6.2701,6.3079,6.3079,6.0559,5.7108,5.6515,5.3708,5.0308,4.9178,4.8761,4.8762,4.873,4.9022,4.9525,5.0514,5.1498,5.1966,5.0696,4.935,4.7745,4.5475,4.319,4.1597,4.1828,4.1843,4.1974,4.2404,4.2738,4.2355,4.0533,3.9507,3.8346,3.6827,3.6505,3.6006,3.5052,3.4906,3.4279,3.2817,3.2667,3.2365,3.1662,3.126,3.0984,3.0834,3.0457,3.0156,3.003,3.003,2.9955,2.9804,2.9955,3.003,3.003,3.003,3.003,7.3105,7.4587,7.6571,8.0101,8.1177,8.1895,8.3883,8.4904,8.5671,8.6329,8.7586,8.9339,9.1916,9.0898,9.0264,9.2179,9.0879,8.8963,8.6988,8.5013,8.2798,8.0195,7.7622,7.6574,0.0,8.0285,8.208,8.2739,8.1572,8.0794,8.0794,7.9507,7.846,7.7801,7.6544,7.5886,7.5886,7.5198,7.4869,7.4869,7.4869,7.454,7.3784,7.0663,6.7829,6.5202,6.1961,5.8932,5.6141,5.506,5.4351,5.3955,5.5058,5.6504,5.832,5.9994,6.1644,6.3079,6.3079,6.1556,5.9205,5.7019,5.4786,5.2397,4.9634,4.8761,4.8535,4.7492,4.818,4.9027,4.7925,5.0326,5.2301,4.9489,4.8998,4.832,4.5608,4.3499,4.1861,4.0779,4.1518,4.1822,4.0133,4.0844,4.1036,3.9247,3.8944,3.8466,3.7312,3.6732,3.6132,3.5533,3.5483,3.5031,3.3947,3.3847,3.337,3.2265,3.2164,3.1913,3.1386,3.1361,3.111,3.0608,3.0583,3.0331,2.9804,3.0331,3.0583,3.0583,3.0583,3.0583,7.6657,8.0101,8.3664,8.6244,8.6555,8.6742,8.8253,8.8498,8.8155,8.7496,8.7347,8.7376,8.7331,8.6802,8.6866,8.8389,8.8878,8.8783,8.8095,8.7077,8.4564,7.9716,7.9148,0.0,0.0,0.0,0.0,8.1901,8.0883,8.0524,8.1392,8.0195,7.9178,7.8489,7.7203,7.6305,7.5916,7.5228,7.4869,7.4869,7.4869,7.454,7.3784,7.1003,6.8158,6.5257,6.2461,5.9295,5.6194,5.5817,5.4888,5.3752,5.4148,5.5054,5.631,5.6892,5.889,6.1525,6.2701,6.0879,5.7874,5.6654,5.4038,5.1022,4.9733,4.9314,4.9163,4.8435,4.8559,4.8932,4.8734,5.0395,5.1488,4.9131,4.9883,5.021,4.6835,4.5848,4.5048,4.331,4.2733,4.2054,4.051,4.026,4.0109,3.9548,3.8793,3.804,3.7287,3.701,3.6558,3.5583,3.5508,3.5207,3.45,3.4449,3.4123,3.337,3.2993,3.2541,3.1964,3.1587,3.1311,3.1135,3.1135,3.1035,3.0859,3.1035,3.1135,3.1135,3.1135,3.1135,8.2678,8.6847,9.0559,9.3195,9.2712,9.1721,9.2526,9.1,8.8813,8.7018,8.5731,8.4586,8.3547,8.2363,8.2515,8.5516,8.6157,8.6718,8.8125,8.6958,8.4414,8.0345,7.9387,7.8041,0.0,0.0,0.0,8.0794,8.0524,8.0524,8.1392,8.0644,7.9866,7.9178,7.7861,7.6874,7.6245,7.5587,7.5108,7.4869,7.4869,7.4659,7.421,7.2071,6.9621,6.6918,6.3847,6.075,5.7721,5.6637,5.534,5.3984,5.3783,5.4407,5.5419,5.5419,5.7569,6.0661,6.1762,6.049,5.8183,5.6987,5.436,5.1393,5.0237,4.9741,4.949,4.8937,4.8761,4.8762,4.8584,4.9643,5.0408,4.8837,4.9941,5.06,4.8001,4.7136,4.6321,4.4546,4.3232,4.206,4.0734,4.0049,3.9697,3.9697,3.9069,3.8341,3.7563,3.7312,3.6835,3.5931,3.583,3.5604,3.5006,3.4981,3.4776,3.4223,3.3847,3.3395,3.2842,3.2466,3.2089,3.1687,3.1687,3.1587,3.1386,3.1587,3.1687,3.1687,3.1687,3.1687,9.0594,9.4485,9.7157,10.0777,9.9233,9.6749,9.6653,9.2568,8.7916,8.5018,8.283,8.1106,8.0167,7.7653,7.7633,8.3348,8.2961,8.3337,8.7257,8.5132,8.2858,0.0,0.0,0.0,0.0,0.0,0.0,7.9686,0.0,8.0823,8.0943,8.0883,8.0554,7.9896,7.8519,7.7502,7.6844,7.6185,7.5527,7.4869,7.4869,7.4869,7.4839,7.3522,7.1824,6.9729,6.6048,6.2943,6.0349,5.7477,5.5616,5.4511,5.3959,5.4364,5.5287,5.5287,5.7378,6.0237,6.0237,6.0298,6.0001,5.7908,5.5645,5.3331,5.1119,5.0067,4.9515,4.9012,4.8837,4.856,4.7481,4.8257,4.9212,4.8658,4.9328,4.9879,4.9135,4.7622,4.5981,4.46,4.3166,4.1835,4.0701,4.0049,3.9697,3.9697,3.9697,3.9295,3.8191,3.7588,3.7036,3.6505,3.6455,3.6182,3.5583,3.5533,3.5307,3.4801,3.4731,3.4525,3.3972,3.3947,3.3445,3.2365,3.2315,3.2039,3.1512,3.2014,3.2265,3.2265,3.2265,3.2265,9.577,10.0303,10.3618,10.5107,10.2481,9.9123,9.7484,9.3185,8.79,8.1949,7.8225,7.4592,6.9911,7.1608,7.4684,7.7702,8.1853,0.0,8.8753,8.8873,0.0,8.4325,0.0,8.2769,7.9836,7.9836,0.0,0.0,8.0524,8.0913,8.2888,8.205,8.1242,8.0584,7.8759,7.7502,7.6844,7.5707,7.5048,7.4869,7.4869,7.4869,7.4839,7.3522,7.1082,6.7853,6.5858,6.256,5.8548,5.7799,5.6319,5.4536,5.4411,5.4012,5.3563,5.3563,5.4875,5.6699,5.6699,5.7533,5.846,5.7536,5.505,5.2352,5.1355,5.067,5.0167,5.0042,4.969,4.9238,4.8535,4.9132,4.9818,4.9238,5.0711,5.186,5.0725,5.0918,5.0378,4.6991,4.3729,4.1329,4.0626,4.0049,3.9697,3.9697,3.9697,3.9446,3.8743,3.8517,3.8114,3.7086,3.6985,3.6759,3.6207,3.6157,3.5931,3.5332,3.5282,3.5031,3.4525,3.4525,3.4374,3.4098,3.3671,3.3395,3.3244,3.2993,3.2867,3.2867,3.2867,3.2867,10.2603,10.5885,10.7813,10.7881,10.4228,9.9256,9.4247,8.9725,8.4071,7.5153,7.1377,6.7997,6.2748,6.5079,6.9034,0.0,0.0,0.0,8.8604,8.9292,8.8514,0.0,8.615,0.0,8.2769,8.2858,8.3187,0.0,8.202,8.1751,8.3217,8.235,8.1482,8.0823,7.9118,7.7921,7.7263,7.5976,7.5318,7.5318,7.5018,7.4869,7.4839,7.2915,7.0761,6.8312,0.0,6.2379,5.9068,5.8251,5.6721,5.4913,5.4662,5.4034,5.3231,5.3005,5.3987,5.5419,5.5419,5.6076,5.6773,5.6513,5.4485,5.2051,5.1724,5.1247,5.0745,5.0494,5.0193,4.9766,4.8987,4.8997,4.9213,4.9245,5.0167,5.093,5.0516,5.1127,5.0755,4.7311,4.4441,4.223,4.1084,4.0425,3.9973,3.9722,3.9697,3.9572,3.927,3.907,3.8517,3.7638,3.7538,3.7412,3.7111,3.6908,3.6584,3.6282,3.6031,3.5655,3.5056,3.5031,3.4931,3.468,3.4173,3.3897,3.3897,3.3345,3.3111,3.3111,3.3111,3.3111,10.9403,11.0824,11.0621,10.9572,10.5068,9.8541,8.974,8.4729,7.8703,6.7305,0.0,6.1774,5.7482,5.907,6.3139,6.9722,0.0,8.1183,8.7975,8.8394,8.8005,8.8095,8.7077,8.609,8.5432,8.5282,8.5462,8.606,8.4354,8.3217,8.3038,8.2409,8.1631,8.0704,7.9357,7.834,7.7682,7.6485,7.5856,7.5766,7.5168,7.4869,7.477,7.2099,7.0547,6.9549,0.0,0.0,6.042,5.865,5.6947,5.544,5.4888,5.4285,5.3658,5.3206,5.3861,5.5049,5.5049,5.5049,5.5115,5.5353,5.3963,5.2226,5.2226,5.1774,5.1172,5.067,5.0419,5.0092,4.9138,4.846,4.8292,4.9199,4.915,4.914,4.9858,5.0017,4.9251,4.6541,4.5102,4.3702,4.1746,4.1003,4.0478,4.0131,3.9901,3.9824,3.9955,3.9423,3.8768,3.8191,3.8115,3.809,3.8015,3.7563,3.7262,3.7186,3.6782,3.6232,3.5633,3.5608,3.5382,3.4951,3.4399,3.4123,3.4123,3.3571,3.3294,3.3294,3.3294,3.3244,11.2312,11.3496,11.3293,11.079,10.6123,9.9601,8.9724,8.3443,0.0,0.0,6.0154,5.7425,5.2411,5.6299,6.2421,6.9034,7.4988,8.1482,8.9202,8.9741,8.9531,0.0,8.992,8.9531,0.0,0.0,0.0,0.0,0.0,8.5521,8.4444,8.3756,8.235,8.0075,7.8669,7.7652,7.6993,7.6275,7.5617,7.5048,7.4929,7.4869,7.477,7.2099,6.9963,6.8169,6.4733,0.0,5.9642,5.8404,5.7173,5.6018,5.5465,5.4612,5.3683,5.3607,5.3488,5.3291,5.3291,5.3291,5.3538,5.4916,5.4154,5.2779,5.2779,5.2076,5.1272,5.1147,5.0469,4.969,4.9515,4.9038,4.89,4.9827,5.0578,5.1126,5.1506,5.1218,4.9916,4.6542,4.5419,4.4411,4.2355,4.1555,4.1349,4.1877,4.1054,4.059,4.1198,4.0287,3.9346,3.8768,3.8718,3.8517,3.804,3.7914,3.7663,3.7211,3.7086,3.6832,3.6279,3.6254,3.6229,3.6128,3.5529,3.5207,3.5207,3.4655,3.4424,3.4424,3.4424,3.4198,11.3199,11.3301,11.2508,10.8077,10.2426,9.5079,8.4271,0.0,0.0,0.0,5.5328,5.335,5.0057,5.3622,5.886,6.4425,6.9453,7.5916,8.5222,8.597,8.6838,9.0219,9.0638,9.0519,0.0,0.0,0.0,0.0,0.0,8.7137,8.5791,8.3816,8.1661,7.9357,7.8669,7.8011,7.7352,7.6694,7.6066,7.5407,7.5048,7.4869,7.48,7.2449,7.0189,6.7819,6.4958,0.0,5.9408,5.8353,5.7399,5.657,5.5717,5.4888,5.411,5.3808,5.3381,5.2929,5.2929,5.2929,5.3042,5.3852,5.3563,5.2929,5.2929,5.2553,5.2026,5.1448,5.0896,5.0343,4.9741,4.9188,4.8876,4.9384,4.9343,4.951,5.0404,5.0457,4.9679,4.7285,4.6758,4.5822,4.3102,4.2133,4.1771,4.1824,4.1098,4.061,4.0978,4.0261,3.9597,3.932,3.9295,3.9195,3.8919,3.8617,3.8341,3.8065,3.7513,3.7061,3.6857,3.6556,3.6405,3.6405,3.583,3.5508,3.5508,3.4956,3.468,3.468,3.468,3.4424,11.326,11.2522,11.0877,10.5336,9.8544,9.018,7.8697,7.109,0.0,5.3819,5.1184,5.0215,4.8912,5.1258,5.5059,6.0266,6.4066,7.0081,8.0823,8.214,8.4085,0.0,9.0549,0.0,0.0,0.0,0.0,0.0,0.0,0.0,8.6329,8.3277,8.0853,7.9267,7.8397,7.7615,7.6991,7.585,7.4987,7.4398,7.4287,7.4258,7.4189,7.2599,7.0529,6.804,6.5382,0.0,0.0,5.8428,5.7625,5.7097,5.5993,5.5214,5.4662,5.411,5.3557,5.308,5.2955,5.2929,5.2929,5.2929,5.2929,5.2929,5.2929,5.2854,5.2578,5.1699,5.1297,5.0896,4.9992,4.9364,4.9039,4.9204,4.848,4.8058,4.9108,4.9756,4.9528,4.76,4.7671,4.7002,4.3741,4.2785,4.2393,4.1957,4.1288,4.0933,4.1045,4.0457,3.9998,3.9873,3.9772,3.9697,3.9697,3.9295,3.9045,3.8919,3.804,3.7437,3.7186,3.6933,3.6707,3.6581,3.6107,3.5859,3.5859,3.5353,3.5077,3.5077,3.5077,3.4776,11.333,11.2444,11.0133,10.5082,9.7701,8.8595,7.6834,0.0,6.0136,5.1393,4.9292,4.885,4.8407,4.9539,5.2856,5.9967,6.2899,6.8196,7.9417,8.1961,8.4444,8.9202,0.0,0.0,0.0,0.0,0.0,0.0,0.0,0.0,8.4983,8.235,8.0794,8.0614,7.7092,7.4847,7.4137,7.1672,7.0155,6.957,7.1307,7.2171,7.2171,7.1999,7.0785,6.8674,6.557,0.0,0.0,5.8755,5.7876,5.77,5.657,5.5792,5.5239,5.4687,5.4135,5.3557,5.308,5.2929,5.2929,5.2929,5.2929,5.2929,5.2929,5.2578,5.2151,5.2051,5.1297,5.0469,5.0368,4.9941,4.9748,5.0601,5.0341,4.9797,4.9423,5.0405,5.0254,4.6448,4.6809,4.6878,4.4175,4.3689,4.3711,4.3806,4.2795,4.2268,4.2866,4.1923,4.1003,4.0501,3.9998,3.9697,3.9697,3.9647,3.9396,3.8944,3.8818,3.8266,3.7236,3.7613,3.7613,3.7111,3.7061,3.7036,3.7036,3.6531,3.6254,3.6254,3.6254,3.5906,10.9184,10.9417,10.7317,10.1869,9.3638,8.4547,7.5702,6.5849,5.6994,5.1431,4.8986,4.7855,4.7725,4.8117,4.9942,5.4431,5.5149,5.865,6.8704,7.0919,7.4659,8.3307,8.5611,0.0,0.0,0.0,0.0,0.0,0.0,0.0,8.4803,8.2589,8.0452,7.8335,7.6312,7.4382,7.2468,7.1012,7.002,6.9412,6.9877,7.074,7.1927,7.1927,7.0813,6.8757,6.6848,0.0,0.0,5.9156,5.8202,5.7826,5.7022,5.5968,5.4863,5.4637,5.4009,5.3206,5.3005,5.2929,5.2929,5.2929,5.2929,5.2929,5.2929,5.2779,5.2528,5.2201,5.1774,5.1272,5.0594,5.0017,4.9707,5.0091,4.9731,4.9307,4.9015,4.9639,4.9452,4.6949,4.7147,4.697,4.4706,4.4016,4.3708,4.3482,4.2717,4.2276,4.2562,4.1853,4.12,4.0974,4.0526,4.0049,3.9722,3.9697,3.9597,3.9371,3.9095,3.8718,3.8216,3.8065,3.7889,3.7688,3.7362,3.7186,3.7186,3.6681,3.6405,3.6405,3.6405,3.6081,10.465,10.634,10.5075,10.0389,9.1738,8.2317,7.4328,6.3891,5.4799,5.0914,4.8607,4.7309,4.7309,4.7309,4.8027,5.0272,5.0361,5.3223,6.1852,6.4126,6.8405,0.0,0.0,0.0,0.0,0.0,0.0,0.0,0.0,0.0,0.0,8.101,7.9075,7.6972,7.5297,7.3177,7.0678,6.9286,6.8378,6.7921,6.7946,6.9038,7.1032,7.1032,7.0521,6.9653,0.0,0.0,0.0,5.9437,5.8252,5.7826,5.7072,5.6068,5.5013,5.4687,5.4084,5.3356,5.303,5.2929,5.2929,5.2929,5.2929,5.2929,5.2929,5.2929,5.2854,5.2452,5.2126,5.1599,5.0469,4.9891,4.959,4.959,4.9289,4.8962,4.8812,4.8825,4.8541,4.7313,4.7223,4.6759,4.5145,4.4543,4.4066,4.3338,4.2942,4.264,4.2464,4.2057,4.1756,4.1605,4.1229,4.0701,3.9998,3.9948,3.9873,3.9697,3.932,3.9095,3.8919,3.8642,3.8442,3.8266,3.7889,3.7688,3.7688,3.7008,3.6656,3.6656,3.648,3.6157,10.0301,10.3604,10.4158,10.1485,9.3421,8.3216,7.2435,6.2301,5.3892,4.9299,4.7758,4.7309,4.7309,4.7309,4.7728,4.912,5.09,5.473,6.2061,6.5323,6.8944,0.0,0.0,0.0,0.0,0.0,0.0,0.0,0.0,0.0,0.0,7.6676,7.6445,7.7587,7.3711,7.0624,6.8564,6.5339,6.3784,6.3759,6.5156,6.6906,6.8888,6.8888,7.0005,0.0,0.0,0.0,0.0,5.9666,5.7901,5.7801,5.6671,5.6219,5.6068,5.4963,5.4561,5.4386,5.3306,5.2929,5.2929,5.2929,5.2929,5.2929,5.2929,5.2929,5.2929,5.2929,5.2126,5.1021,4.9891,4.959,4.959,4.959,4.959,4.9439,4.8887,4.8309,4.7732,4.723,4.6677,4.6125,4.5573,4.5472,4.5095,4.3966,4.379,4.3589,4.3037,4.2961,4.276,4.2263,4.2187,4.1706,4.0601,4.0501,4.0275,3.9722,3.9697,3.9446,3.8944,3.9396,3.9421,3.8919,3.8919,3.8894,3.8894,3.7713,3.7186,3.7161,3.6656,3.6405,8.5303,8.8329,8.902,8.5865,8.0022,7.3248,6.6192,5.9368,5.3324,4.9164,4.7758,4.7309,4.7309,4.7309,4.8327,5.1439,5.2456,5.4461,5.9039,0.0,0.0,7.3642,0.0,0.0,0.0,0.0,0.0,0.0,0.0,0.0,0.0,7.629,7.4719,7.3185,7.1472,6.935,6.689,6.5092,6.4228,6.4203,6.3879,6.479,6.6752,6.6752,0.0,0.0,0.0,0.0,0.0,5.9716,5.8554,5.7851,5.7499,5.6445,5.5039,5.4687,5.4084,5.3406,5.3055,5.2929,5.2929,5.2929,5.2929,5.2929,5.2929,5.2929,5.2854,5.2477,5.185,5.1096,5.0343,4.9866,4.959,4.959,4.959,4.954,4.9364,4.8887,4.846,4.8284,4.7506,4.6702,4.615,4.5723,4.5221,4.4468,4.4367,4.4292,4.4116,4.4091,4.389,4.3338,4.3288,4.2685,4.115,4.0727,4.045,4.0275,3.9898,3.9622,3.9446,3.9597,3.9622,3.9446,3.912,3.8919,3.8919,3.7788,3.6985,3.6681,3.6883,3.6782,7.534,7.9409,8.0974,7.8872,7.4367,6.891,6.2739,5.7244,5.2396,4.8686,4.7578,4.7309,4.7309,4.6931,4.7525,5.0524,5.1179,5.2773,5.6833,0.0,0.0,7.3419,0.0,0.0,0.0,0.0,0.0,0.0,0.0,0.0,0.0,7.3827,7.1946,6.9954,6.9858,6.8507,6.581,6.4906,6.4379,6.4178,6.3249,6.3882,6.5765,6.4794,0.0,0.0,0.0,0.0,0.0,5.9564,5.8504,5.7826,5.7198,5.6093,5.4838,5.4386,5.3808,5.3181,5.3005,5.2929,5.2929,5.2929,5.2929,5.2929,5.2929,5.2929,5.2779,5.2,5.1548,5.1096,5.0318,4.9841,4.959,4.959,4.959,4.959,4.959,4.9163,4.8711,4.8485,4.7732,4.6954,4.6401,4.6024,4.5598,4.5045,4.4945,4.4869,4.4644,4.4618,4.4493,4.4141,4.3915,4.3388,4.2359,4.158,4.0953,4.0551,4.0199,3.9898,3.9697,3.9697,3.9697,3.9697,3.9346,3.917,3.917,3.8266,3.7538,3.6985,3.7337,3.7312,0.0,7.4646,7.7589,7.7339,7.3641,6.8165,6.0965,5.5568,0.0,4.7967,4.7309,4.7339,4.7429,4.6314,4.594,4.7553,4.8278,5.0455,0.0,6.1712,0.0,0.0,0.0,0.0,0.0,0.0,0.0,0.0,0.0,0.0,0.0,6.9978,6.8848,6.7719,6.854,6.7769,6.5283,6.4705,6.4178,6.3676,6.3099,6.3801,6.5451,6.3054,0.0,0.0,0.0,0.0,0.0,5.9361,5.7901,5.7675,5.6068,5.539,5.5189,5.411,5.3683,5.3582,5.308,5.2929,5.2929,5.2929,5.2929,5.2929,5.2929,5.2904,5.2653,5.1574,5.1247,5.0971,4.9866,4.959,4.959,4.959,4.959,4.959,4.959,4.9188,4.8661,4.8134,4.7606,4.7079,4.6577,4.6451,4.625,4.5748,4.5623,4.5422,4.4869,4.4769,4.4719,4.4694,4.4192,4.384,4.379,4.2841,4.1785,4.0701,4.0601,4.0325,3.9772,3.9747,3.9747,3.9697,3.9697,3.9672,3.9647,3.917,3.8617,3.8015,3.804,3.804,5.5993,0.0,6.1716,5.9136,5.8003,5.6455,0.0,5.1229,5.0016,4.7788,4.7309,4.7608,4.8626,4.6974,4.7003,5.1816,5.2306,5.3337,5.6754,0.0,0.0,8.2189,0.0,0.0,0.0,0.0,0.0,0.0,0.0,0.0,0.0,6.9426,6.8095,6.6564,6.6322,6.5976,6.5283,6.4354,6.3802,6.3676,6.3099,6.284,6.2868,6.2286,0.0,0.0,0.0,0.0,5.9719,5.8908,5.8027,5.7148,5.6344,5.5491,5.4662,5.3959,5.3457,5.308,5.298,5.2929,5.2929,5.2929,5.2929,5.2929,5.2929,5.2628,5.2151,5.1473,5.0971,5.0469,4.9766,4.959,4.959,4.959,4.959,4.959,4.959,4.949,4.9364,4.9213,4.8761,4.8335,4.8209,4.7832,4.7481,4.7355,4.7004,4.6702,4.6491,4.6175,4.5748,4.5321,4.4769,4.4267,4.384,4.2841,4.2112,4.1835,4.1379,4.0902,4.035,4.0325,4.0124,3.9697,3.9697,3.9496,3.9069,3.9346,3.8994,3.8015,3.8467,3.8442,5.0535,5.3475,5.5867,5.4401,5.3832,5.3204,5.1468,5.0182,4.8955,4.7578,4.7309,4.7608,4.8626,4.7444,4.7583,5.1491,5.2104,0.0,0.0,0.0,7.5401,8.3751,0.0,0.0,0.0,0.0,0.0,0.0,0.0,0.0,0.0,6.8597,6.7317,6.6137,6.5333,6.4806,6.4555,6.3977,6.355,6.3299,6.2722,6.2295,6.1994,6.1466,6.0889,0.0,0.0,0.0,5.8704,5.8453,5.7675,5.657,5.5767,5.4938,5.411,5.3557,5.3181,5.2929,5.2929,5.2929,5.2929,5.2929,5.2929,5.2929,5.2929,5.2553,5.2051,5.1749,5.1247,5.0745,5.0444,5.0167,4.9967,4.9967,4.9967,4.9891,4.964,4.959,4.9515,4.9264,4.8987,4.8686,4.841,4.8109,4.7908,4.7908,4.7657,4.7481,4.7481,4.7029,4.6577,4.6276,4.5497,4.4794,4.4242,4.3388,4.2685,4.2238,4.1882,4.1354,4.0551,4.0526,4.0249,3.9697,3.9697,3.9546,3.9245,3.9546,3.9371,3.8793,3.9094,3.9069,4.9716,5.2733,5.5551,5.5104,5.4339,5.3446,5.2375,4.9965,4.7866,4.7385,4.7399,4.7728,4.8566,4.8197,4.8399,5.0637,0.0,0.0,6.5474,6.8816,7.3516,0.0,0.0,0.0,0.0,0.0,0.0,0.0,0.0,0.0,0.0,6.7744,6.6538,6.5886,6.4881,6.4103,6.3576,6.355,6.3274,6.2697,6.222,6.1918,6.1718,6.0763,6.0261,0.0,0.0,0.0,5.8554,5.8001,5.7097,5.5993,5.4963,5.421,5.3632,5.313,5.2929,5.2929,5.2929,5.2929,5.2929,5.2929,5.2929,5.2929,5.2929,5.2603,5.2226,5.2226,5.1774,5.1272,5.1272,5.0921,5.0519,5.0444,5.0419,5.0268,4.9715,4.959,4.9464,4.8987,4.8887,4.8736,4.8259,4.8159,4.8159,4.8159,4.8083,4.8033,4.8033,4.7581,4.723,4.7093,4.6225,4.5372,4.4794,4.4166,4.3413,4.2514,4.2389,4.1831,4.0802,4.0601,4.03,3.9823,3.9747,3.9697,3.9697,3.9697,3.9697,3.9697,3.9697,3.9697,5.1986,5.5583,5.6391,5.083,5.0519,5.0838,4.793,4.6871,4.67,4.7211,4.7758,4.8686,5.0451,4.9832,5.08,5.5949,0.0,6.218,0.0,0.0,0.0,0.0,0.0,0.0,0.0,0.0,0.0,0.0,0.0,0.0,0.0,6.7166,6.5785,6.4756,6.4128,6.3525,6.2973,6.2948,6.2672,6.2119,6.2044,6.1517,6.0563,6.0387,6.006,0.0,0.0,5.8529,5.7976,5.7399,5.652,5.544,5.4813,5.421,5.3632,5.313,5.2929,5.2929,5.2929,5.2929,5.2929,5.2929,5.2929,5.2929,5.2929,5.2879,5.2804,5.2804,5.2076,5.1272,5.1272,5.1222,5.1021,5.0519,5.0419,5.0268,4.9715,4.959,4.9565,4.949,4.9464,4.9439,4.9364,4.9339,4.9339,4.9339,4.8937,4.8636,4.8636,4.8134,4.7631,4.7179,4.6577,4.5974,4.5397,4.4392,4.374,4.3564,4.3112,4.2615,4.1986,4.1003,4.0475,4.04,3.9923,3.9697,3.9697,3.9697,3.9697,3.9697,3.9697,3.9697,4.8378,5.2153,5.4409,5.2024,5.3794,5.516,5.1335,4.9109,4.7976,4.8326,4.8361,4.8838,5.0458,5.242,5.5591,6.0893,0.0,6.3978,6.9268,0.0,0.0,0.0,0.0,0.0,0.0,0.0,0.0,0.0,0.0,0.0,0.0,0.0,6.5183,6.4078,6.3827,6.3274,6.2395,6.2395,6.2245,6.1994,6.1391,6.0814,6.0311,6.001,5.9583,5.9056,0.0,5.8052,5.6972,5.6696,5.5767,5.4461,5.421,5.3758,5.3256,5.3005,5.2929,5.2929,5.2929,5.2929,5.2929,5.2929,5.2929,5.2929,5.2929,5.2929,5.2929,5.2929,5.2352,5.18,5.2101,5.195,5.1649,5.1398,5.1322,5.1172,5.0619,5.0494,5.0494,5.0494,5.0494,5.0494,5.0494,5.0243,5.0042,5.0042,4.9565,4.9213,4.9213,4.8736,4.8159,4.7606,4.7079,4.6401,4.5573,4.502,4.4317,4.3413,4.2836,4.2464,4.2213,4.1103,4.0526,4.0526,3.9973,3.9697,3.9697,3.9697,3.9697,3.9697,3.9697,3.9697,4.5826,4.9054,5.2149,5.362,5.6421,5.8228,5.6101,5.2699,5.0241,5.1347,5.11,5.074,5.1226,5.5927,0.0,6.3885,6.5503,6.6791,6.8122,0.0,0.0,0.0,0.0,0.0,0.0,0.0,0.0,0.0,0.0,0.0,0.0,0.0,6.453,6.3726,6.355,6.3023,6.2019,6.1868,6.1743,6.1592,6.0613,6.006,5.9935,5.9382,5.8905,5.8529,5.8378,5.7524,5.6194,5.6068,5.5114,5.3708,5.3708,5.3381,5.2929,5.2929,5.2929,5.2929,5.2929,5.2929,5.2929,5.2929,5.2929,5.2929,5.2929,5.2929,5.2929,5.2929,5.2628,5.2402,5.2829,5.2628,5.2277,5.2126,5.2101,5.195,5.1398,5.1272,5.1272,5.1272,5.1272,5.1272,5.1272,5.0921,5.0619,5.0619,5.0142,4.9791,4.9791,4.9314,4.8686,4.7983,4.7556,4.6828,4.5598,4.5497,4.4819,4.3263,4.266,4.2414,4.2414,4.1279,4.0701,4.0701,4.0049,3.9697,3.9697,3.9697,3.9697,3.9697,3.9697,3.9697,4.8372,5.0101,5.0963,5.3206,5.3666,5.4855,5.9478,5.5976,5.2969,5.7463,5.7786,5.6657,5.4627,6.0554,6.5121,6.3276,6.9259,7.4323,0.0,0.0,0.0,0.0,0.0,0.0,0.0,0.0,0.0,0.0,0.0,0.0,0.0,0.0,0.0,6.3701,6.3174,6.2596,6.2019,6.1492,6.0964,6.0437,5.9834,5.9307,5.8805,5.8252,5.8001,5.7926,5.7399,5.6796,5.6168,5.5666,5.4762,5.3708,5.3708,5.3381,5.2929,5.2929,5.2929,5.2929,5.2929,5.2929,5.2929,5.2929,5.2929,5.2929,5.2929,5.2929,5.2929,5.2929,5.2904,5.2879,5.2929,5.2904,5.2729,5.2226,5.2101,5.195,5.1398,5.1272,5.1272,5.1272,5.1272,5.1272,5.1272,5.1247,5.1222,5.1222,5.072,5.0368,5.0368,4.9866,4.9113,4.8033,4.7883,4.7205,4.5623,4.5497,4.4995,4.3815,4.3212,4.2911,4.2911,4.1856,4.1225,4.1225,4.0249,3.9697,3.9697,3.9697,3.9697,3.9697,3.9697,3.9697,4.5043,4.7466,4.989,5.2945,5.3909,5.5175,5.9386,5.8674,5.8,6.0947,6.1438,6.1289,6.1137,6.2496,6.4366,6.6481,7.004,0.0,0.0,0.0,0.0,0.0,0.0,0.0,0.0,0.0,0.0,0.0,0.0,0.0,0.0,0.0,0.0,6.3174,6.2621,6.2044,6.1492,6.0588,5.9859,5.9332,5.9106,5.873,5.8202,5.8001,5.77,5.7323,5.6771,5.6018,5.5139,5.4561,5.3909,5.3231,5.3231,5.3105,5.2929,5.2929,5.2929,5.2929,5.2929,5.2929,5.2929,5.2929,5.2929,5.2929,5.2929,5.2929,5.2929,5.2929,5.2929,5.2929,5.2929,5.2929,5.2879,5.2678,5.2628,5.2553,5.2352,5.2302,5.2302,5.2302,5.2302,5.2302,5.2302,5.2026,5.18,5.18,5.1021,5.0419,5.0419,4.9941,4.9314,4.8535,4.7832,4.7029,4.6075,4.5673,4.5146,4.4367,4.379,4.3338,4.2986,4.2258,4.1681,4.13,4.0601,4.0049,3.9697,3.9697,3.9697,3.9697,3.9697,3.9697,4.2704,4.4788,4.7534,5.0658,5.2892,5.5662,6.0441,6.1118,6.1695,6.5096,6.4162,6.3182,6.4391,6.3468,0.0,0.0,7.038,0.0,0.0,0.0,0.0,0.0,0.0,0.0,0.0,0.0,0.0,0.0,0.0,0.0,0.0,0.0,0.0,0.0,6.2044,6.1466,6.0914,5.996,5.9156,5.8453,5.8278,5.8001,5.7625,5.7449,5.7148,5.6746,5.6194,5.5415,5.4511,5.3934,5.3381,5.2929,5.2929,5.2929,5.2929,5.2929,5.2929,5.2929,5.2929,5.2929,5.2929,5.2929,5.2929,5.2929,5.2929,5.2929,5.2929,5.2929,5.2929,5.2929,5.2929,5.2929,5.2929,5.2929,5.2929,5.2929,5.2929,5.2929,5.2929,5.2929,5.2929,5.2929,5.2929,5.2628,5.2377,5.2377,5.1398,5.0695,5.0695,5.0042,4.9389,4.8837,4.7782,4.6979,4.6602,4.6075,4.5422,4.4669,4.4267,4.374,4.3011,4.2514,4.1907,4.13,4.0802,4.0249,3.9697,3.9697,3.9697,3.9697,3.9697,3.9697,4.2363,4.2615,4.3574,4.5939,5.018,5.5785,6.316,6.3199,6.3595,7.0368,6.6161,6.1824,6.3567,6.3831,0.0,6.515,0.0,0.0,0.0,0.0,0.0,0.0,0.0,0.0,0.0,0.0,0.0,0.0,0.0,0.0,0.0,0.0,0.0,0.0,6.1466,6.0889,6.0311,5.9759,5.8956,5.7876,5.7298,5.7022,5.6923,5.647,5.6219,5.6168,5.5616,5.5064,5.4511,5.3934,5.3381,5.2929,5.2929,5.2929,5.2929,5.2929,5.2929,5.2929,5.2929,5.2929,5.2929,5.2929,5.2929,5.2929,5.2929,5.2929,5.2929,5.2929,5.2929,5.2929,5.2929,5.2929,5.2929,5.2929,5.2929,5.2929,5.2929,5.2929,5.2929,5.2929,5.2929,5.2929,5.2929,5.2929,5.2929,5.2929,5.2,5.1272,5.1272,5.0293,4.9389,4.8837,4.7782,4.7093,4.7068,4.6627,4.5824,4.4694,4.4618,4.4141,4.3011,4.2514,4.1907,4.13,4.0802,4.0249,3.9697,3.9697,3.9697,3.9697,3.9697,3.9697,4.2057,4.3137,4.5313,4.7577,5.1849,5.7061,6.3204,6.5052,6.6837,7.1893,6.8494,6.5046,6.6343,6.5929,0.0,0.0,0.0,0.0,0.0,0.0,0.0,0.0,0.0,0.0,0.0,0.0,0.0,0.0,0.0,0.0,0.0,0.0,0.0,0.0,6.1065,6.0311,5.9734,5.883,5.7801,5.6721,5.6143,5.6068,5.6445,5.6294,5.5993,5.5591,5.5039,5.4486,5.3909,5.3381,5.3055,5.2929,5.2929,5.2929,5.2929,5.2929,5.2929,5.2929,5.2929,5.2929,5.2929,5.2929,5.2929,5.2929,5.2929,5.2929,5.2929,5.2929,5.2929,5.2929,5.2929,5.2929,5.2929,5.2929,5.2929,5.2929,5.2929,5.2929,5.2929,5.2929,5.2929,5.2929,5.2929,5.2929,5.2929,5.2929,5.2,5.0996,5.0193,4.9816,4.9389,4.8837,4.8109,4.7531,4.7093,4.6627,4.5999,4.5271,4.4844,4.4141,4.3011,4.2866,4.2484,4.1932,4.1756,4.1204,4.0275,4.0275,4.0074,3.9697,3.9697,3.9697,4.3256,4.4543,4.6652,5.0193,5.416,5.8704,6.4479,6.7603,7.0097,7.3134,7.0019,6.7122,6.8183,6.6619,0.0,0.0,0.0,0.0,0.0,0.0,0.0,0.0,0.0,0.0,0.0,0.0,0.0,0.0,0.0,0.0,0.0,0.0,0.0,0.0,6.0136,5.9408,5.8855,5.7775,5.6897,5.6194,5.544,5.5239,5.5566,5.5566,5.5365,5.5039,5.4461,5.3909,5.3356,5.3055,5.2929,5.2929,5.2929,5.2929,5.2929,5.2929,5.2929,5.2929,5.2929,5.2929,5.2929,5.2929,5.2929,5.2929,5.2929,5.2929,5.2929,5.2929,5.2929,5.2929,5.2929,5.2929,5.2929,5.2929,5.2929,5.2929,5.2929,5.2929,5.2929,5.2929,5.2929,5.2929,5.2929,5.2929,5.2929,5.2929,5.2,5.087,4.9741,4.959,4.9464,4.9138,4.8385,4.7782,4.7481,4.6753,4.6075,4.5522,4.4945,4.4217,4.3338,4.3087,4.2766,4.2213,4.2213,4.1605,4.0526,4.0526,4.0224,3.9697,3.9697,3.9697,4.5321,4.6276,4.7757,5.3457,5.7248,6.1065,6.6789,7.043,7.2866,7.3895,7.0932,6.8422,6.93,6.6589,0.0,0.0,0.0,0.0,0.0,0.0,0.0,0.0,0.0,0.0,0.0,0.0,0.0,0.0,0.0,0.0,0.0,0.0,0.0,5.9433,5.8855,5.8328,5.7826,5.6696,5.6118,0.0,5.4988,5.4461,5.4411,5.4511,5.4536,5.4461,5.3884,5.3356,5.2929,5.2929,5.2929,5.2929,5.2929,5.2929,5.2929,5.2929,5.2929,5.2929,5.2929,5.2929,5.2929,5.2929,5.2929,5.2929,5.2929,5.2929,5.2929,5.2929,5.2929,5.2929,5.2929,5.2929,5.2929,5.2929,5.2929,5.2929,5.2929,5.2929,5.2929,5.2929,5.2929,5.2929,5.2929,5.2929,5.2904,5.2804,5.1875,5.082,4.9741,4.959,4.959,4.959,4.8586,4.7908,4.7908,4.6928,4.61,4.5598,4.502,4.4443,4.389,4.3288,4.2791,4.2288,4.2288,4.1706,4.0651,4.0626,4.03,3.9772,3.9722,3.9697,4.4669,4.5949,4.8611,5.5465,6.1868,6.7166,6.9777,7.0932,7.151,7.1761,7.1384,7.0706,6.9652,6.8773,0.0,0.0,0.0,0.0,0.0,0.0,0.0,0.0,0.0,0.0,0.0,0.0,0.0,0.0,0.0,0.0,0.0,0.0,0.0,5.8905,5.7926,5.7349,5.7223,5.6118,5.534,0.0,5.421,5.3683,5.3306,5.416,5.431,5.3858,5.3331,5.303,5.2929,5.2929,5.2929,5.2929,5.2929,5.2929,5.2929,5.2929,5.2929,5.2929,5.2929,5.2929,5.2929,5.2929,5.2929,5.2929,5.2929,5.2929,5.2929,5.2929,5.2929,5.2929,5.2929,5.2929,5.2929,5.2929,5.2929,5.2929,5.2929,5.2929,5.2929,5.2929,5.2929,5.2929,5.2929,5.2929,5.2628,5.1774,5.1046,5.0368,4.969,4.959,4.959,4.959,4.8586,4.7908,4.7908,4.6928,4.625,4.615,4.5623,4.5045,4.4468,4.3514,4.2911,4.2811,4.2866,4.2514,4.1861,4.1379,4.0824,4.0325,3.9898,3.9697,4.5748,4.7456,5.0293,5.8604,6.4479,6.8522,6.9652,7.0104,7.0305,7.0305,7.0531,7.0455,6.9602,0.0,0.0,0.0,0.0,0.0,0.0,0.0,0.0,0.0,0.0,0.0,0.0,0.0,0.0,0.0,0.0,0.0,0.0,5.8905,5.8077,5.7524,5.6696,5.6118,5.5867,5.5013,5.4436,5.4135,5.3582,5.3181,5.2955,5.3532,5.3607,5.3306,5.3055,5.2929,5.2929,5.2929,5.2929,5.2929,5.2929,5.2929,5.2929,5.2929,5.2929,5.2929,5.2929,5.2929,5.2929,5.2929,5.2929,5.2929,5.2929,5.2929,5.2929,5.2929,5.2929,5.2929,5.2929,5.2929,5.2929,5.2929,5.2929,5.2929,5.2929,5.2929,5.2929,5.2929,5.2929,5.2929,5.2929,5.2703,5.2251,5.1398,5.0795,5.0218,4.9665,4.959,4.949,4.9238,4.8435,4.7807,4.7556,4.6778,4.6301,4.6301,4.5799,4.5347,4.5045,4.3966,4.3237,4.2986,4.2986,4.2766,4.2213,4.1856,4.1455,4.0902,4.0626,4.035,4.6552,4.9515,5.3055,6.1441,6.5534,6.7668,6.8346,6.8673,6.8899,6.8999,6.91,6.9125,0.0,0.0,0.0,0.0,0.0,0.0,0.0,0.0,0.0,0.0,0.0,0.0,0.0,0.0,0.0,0.0,0.0,0.0,5.9257,5.775,5.6646,5.6093,5.544,5.4913,5.4561,5.3909,5.3607,5.3683,5.3181,5.2929,5.2929,5.2929,5.2929,5.2929,5.2929,5.2929,5.2929,5.2929,5.2929,5.2929,5.2929,5.2929,5.2929,5.2929,5.2929,5.2929,5.2929,5.2929,5.2929,5.2929,5.2929,5.2929,5.2929,5.2929,5.2929,5.2929,5.2929,5.2929,5.2929,5.2929,5.2929,5.2929,5.2929,5.2929,5.2929,5.2929,5.2929,5.2929,5.2929,5.2929,5.2929,5.2402,5.18,5.1348,5.072,5.0117,4.9665,4.9515,4.9264,4.8812,4.8184,4.7606,4.7179,4.6627,4.6301,4.6301,4.5874,4.5598,4.5497,4.4593,4.379,4.3137,4.3037,4.276,4.2363,4.2263,4.1907,4.148,4.1326,4.105,4.4317,5.087,5.7775,6.1918,6.4655,6.6614,6.7668,6.7216,6.6689,0.0,6.7693,0.0,0.0,0.0,0.0,0.0,0.0,0.0,0.0,0.0,0.0,0.0,0.0,0.0,0.0,0.0,0.0,0.0,0.0,0.0,5.8177,5.6972,5.6068,5.5516,5.4486,5.4135,5.4561,5.3557,5.3256,5.3683,5.3181,5.2929,5.2929,5.2929,5.2929,5.2929,5.2929,5.2929,5.2929,5.2929,5.2929,5.2929,5.2929,5.2929,5.2929,5.2929,5.2929,5.2929,5.2929,5.2929,5.2929,5.2929,5.2929,5.2929,5.2929,5.2929,5.2929,5.2929,5.2929,5.2929,5.2929,5.2929,5.2929,5.2929,5.2929,5.2929,5.2929,5.2929,5.2929,5.2929,5.2929,5.2929,5.2929,5.2076,5.1373,5.1297,5.0368,4.9665,4.9615,4.9163,4.8862,4.8786,4.7857,4.7143,4.7093,4.6627,4.6301,4.6301,4.625,4.5974,4.5497,4.5347,4.4769,4.3714,4.3212,4.2936,4.2861,4.2439,4.2162,4.2087,4.1555,4.125,4.5698,5.0946,5.6219,6.0763,6.2873,6.4178,6.5609,6.5534,6.5258,6.5509,0.0,0.0,0.0,0.0,0.0,0.0,0.0,0.0,0.0,0.0,0.0,0.0,0.0,0.0,0.0,0.0,0.0,0.0,0.0,5.7775,5.6997,5.5591,5.4687,5.4461,5.3683,5.3381,5.3632,5.3181,5.303,5.3256,5.303,5.2929,5.2929,5.2929,5.2929,5.2929,5.2929,5.2929,5.2929,5.2929,5.2929,5.2929,5.2929,5.2929,5.2929,5.2929,5.2929,5.2929,5.2929,5.2929,5.2929,5.2929,5.2929,5.2929,5.2929,5.2929,5.2929,5.2929,5.2929,5.2929,5.2929,5.2929,5.2929,5.2929,5.2929,5.2929,5.2929,5.2929,5.2929,5.2929,5.2929,5.2929,5.2929,5.2026,5.1272,5.1272,5.0318,4.959,4.959,4.9389,4.9113,4.8812,4.8335,4.7933,4.7606,4.7079,4.6778,4.6778,4.6476,4.62,4.5949,4.5648,4.5246,4.4744,4.389,4.3288,4.2986,4.2791,4.2665,4.2665,4.2384,4.2082,4.5924,4.9238,5.2503,5.7775,5.9809,6.109,6.3149,6.3525,6.35,0.0,0.0,0.0,0.0,0.0,0.0,0.0,0.0,0.0,0.0,0.0,0.0,0.0,0.0,0.0,0.0,0.0,0.0,0.0,0.0,5.657,5.6043,5.4536,5.3708,5.3708,5.3206,5.2929,5.2929,5.2929,5.2929,5.2929,5.2929,5.2929,5.2929,5.2929,5.2929,5.2929,5.2929,5.2929,5.2929,5.2929,5.2929,5.2929,5.2929,5.2929,5.2929,5.2929,5.2929,5.2929,5.2929,5.2929,5.2929,5.2929,5.2929,5.2929,5.2929,5.2929,5.2929,5.2929,5.2929,5.2929,5.2929,5.2929,5.2929,5.2929,5.2929,5.2929,5.2929,5.2929,5.2929,5.2929,5.2929,5.2929,5.2929,5.2026,5.1272,5.1272,5.0318,4.959,4.959,4.9464,4.9213,4.8812,4.8636,4.8385,4.7933,4.7556,4.733,4.733,4.6828,4.6527,4.6527,4.5999,4.5623,4.5497,4.4518,4.374,4.3187,4.3037,4.2986,4.2986,4.2986,4.2816,4.2635,4.492,4.7732,5.2226,5.4938,5.7374,6.0613,0.0,6.0839,0.0,0.0,0.0,0.0,0.0,0.0,0.0,0.0,0.0,0.0,0.0,0.0,0.0,0.0,0.0,0.0,0.0,0.0,0.0,0.0,5.6018,5.5465,5.4336,5.3708,5.3708,5.3206,5.2929,5.2929,5.2929,5.2929,5.2929,5.2929,5.2929,5.2929,5.2929,5.2929,5.2929,5.2929,5.2929,5.2929,5.2929,5.2929,5.2929,5.2929,5.2929,5.2929,5.2929,5.2929,5.2929,5.2929,5.2929,5.2929,5.2929,5.2929,5.2929,5.2929,5.2929,5.2929,5.2929,5.2929,5.2929,5.2929,5.2929,5.2929,5.2929,5.2929,5.2929,5.2929,5.2929,5.2929,5.2929,5.2929,5.2929,5.2929,5.2026,5.1272,5.1272,5.0318,4.959,4.959,4.9138,4.8812,4.8761,4.8284,4.7933,4.7908,4.7883,4.7857,4.7857,4.738,4.7043,4.7043,4.6552,4.6024,4.5497,4.4895,4.4317,4.3765,4.3237,4.2986,4.2986,4.2986,4.2961,4.2384,4.3313,4.4719,4.9163,5.1674,5.3733,5.6344,5.8152,5.9408,0.0,0.0,0.0,0.0,0.0,0.0,0.0,0.0,0.0,0.0,0.0,0.0,0.0,0.0,0.0,0.0,0.0,0.0,0.0,0.0,0.0,5.431,5.3607,5.3206,5.3206,5.303,5.2929,5.2929,5.2929,5.2929,5.2929,5.2929,5.2929,5.2929,5.2929,5.2929,5.2929,5.2929,5.2929,5.2929,5.2929,5.2929,5.2929,5.2929,5.2929,5.2929,5.2929,5.2929,5.2929,5.2929,5.2929,5.2929,5.2929,5.2929,5.2929,5.2929,5.2929,5.2929,5.2929,5.2929,5.2929,5.2929,5.2929,5.2929,5.2929,5.2929,5.2929,5.2929,5.2929,5.2929,5.2929,5.2628,5.2402,5.2402,5.1473,5.072,5.072,5.0067,4.959,4.959,4.9414,4.9289,4.9289,4.9113,4.8987,4.8987,4.8661,4.846,4.846,4.7631,4.7068,4.7068,4.6602,4.6225,4.6024,4.5472,4.4719,4.379,4.3237,4.2986,4.2986,4.2986,4.2986,4.148,4.1605,4.2384,4.6828,4.8209,4.9464,5.3181,0.0,5.6445,0.0,0.0,0.0,0.0,0.0,0.0,0.0,0.0,0.0,0.0,0.0,0.0,0.0,0.0,0.0,0.0,0.0,0.0,0.0,0.0,0.0,5.3457,5.3105,5.2929,5.2929,5.2929,5.2929,5.2929,5.2929,5.2929,5.2929,5.2929,5.2929,5.2929,5.2729,5.2754,5.2929,5.2729,5.2754,5.2929,5.2929,5.2929,5.2929,5.2929,5.2929,5.2929,5.2929,5.2929,5.2929,5.2929,5.2929,5.2929,5.2929,5.2929,5.2929,5.2929,5.2929,5.2929,5.2929,5.2929,5.2879,5.2703,5.2653,5.2703,5.2879,5.2929,5.2929,5.2929,5.2929,5.2929,5.2929,5.2477,5.2101,5.2101,5.1172,5.0419,5.0419,4.9941,4.959,4.959,4.959,4.959,4.959,4.959,4.959,4.959,4.9264,4.9063,4.9063,4.8184,4.7606,4.7405,4.6878,4.6502,4.6301,4.5773,4.5121,4.4367,4.3614,4.3263,4.3237,4.3062,4.2986,0.0,0.0,0.0,4.502,4.4493,4.4618,5.1122,0.0,5.1749,0.0,0.0,0.0,0.0,0.0,0.0,0.0,0.0,0.0,0.0,0.0,0.0,0.0,0.0,0.0,0.0,0.0,0.0,0.0,0.0,5.3457,5.2955,5.2929,5.2929,5.2929,5.2929,5.2929,5.2904,5.2929,5.2904,5.2879,5.2904,5.2904,5.2854,5.2327,5.2377,5.2879,5.2327,5.2402,5.2929,5.2929,5.2929,5.2929,5.2929,5.2929,5.2929,5.2929,5.2929,5.2929,5.2929,5.2929,5.2929,5.2929,5.2929,5.2929,5.2929,5.2929,5.2929,5.2929,5.2929,5.2779,5.2251,5.2101,5.2251,5.2804,5.2929,5.2929,5.2929,5.2929,5.2929,5.2929,5.2477,5.2076,5.2076,5.1147,5.0393,5.0393,4.9941,4.959,4.959,4.959,4.959,4.959,4.959,4.959,4.959,4.959,4.959,4.959,4.9088,4.851,4.7958,4.7405,4.6878,4.6351,4.5799,4.5522,4.5522,4.4367,4.3815,4.3815,4.3263,4.2986,3.9697,0.0,0.0,0.0,0.0,0.0,4.4543,4.6451,4.8209,0.0,0.0,0.0,0.0,0.0,0.0,0.0,0.0,0.0,0.0,0.0,0.0,0.0,0.0,0.0,0.0,0.0,0.0,0.0,5.313,5.308,5.2929,5.2929,5.2929,5.2929,5.2929,5.2729,5.2327,5.2729,5.2528,5.1749,5.2151,5.2126,5.1724,5.1574,5.18,5.2302,5.1749,5.2051,5.2929,5.2929,5.2929,5.2929,5.2929,5.2929,5.2929,5.2929,5.2929,5.2929,5.2929,5.2929,5.2929,5.2929,5.2929,5.2929,5.2929,5.2929,5.2929,5.2929,5.2628,5.2302,5.2151,5.2101,5.2251,5.2804,5.2929,5.2929,5.2929,5.2929,5.2929,5.2929,5.2151,5.1498,5.1498,5.0569,4.9816,4.9816,4.969,4.959,4.959,4.959,4.959,4.959,4.959,4.959,4.959,4.959,4.959,4.959,4.9088,4.8711,4.8535,4.7631,4.7054,4.6903,4.6351,4.6075,4.6075,4.4945,4.4392,4.4392,4.384,4.3363,3.9747,3.9044,3.8718,4.0277,0.0,0.0,4.2032,4.3413,4.4568,0.0,0.0,0.0,0.0,0.0,0.0,0.0,0.0,0.0,0.0,0.0,0.0,0.0,0.0,0.0,0.0,0.0,0.0,5.2929,5.2929,5.2829,5.2603,5.2578,5.2477,5.2251,5.2251,5.2076,5.1774,5.2076,5.1925,5.1272,5.1599,5.1599,5.1272,5.1021,5.1222,5.1724,5.1172,5.1423,5.2251,5.2251,5.2377,5.2578,5.2578,5.2578,5.2578,5.2578,5.2578,5.2628,5.2854,5.2779,5.2628,5.2854,5.2929,5.2929,5.2929,5.2929,5.2929,5.2929,5.2528,5.2151,5.2377,5.2277,5.2251,5.2804,5.2754,5.2653,5.2879,5.2754,5.2653,5.2879,5.2026,5.1272,5.1272,5.0343,4.959,4.959,4.959,4.959,4.959,4.959,4.959,4.959,4.959,4.959,4.959,4.959,4.959,4.959,4.9289,4.9012,4.8786,4.7933,4.7355,4.7068,4.6602,4.6301,4.6301,4.5422,4.4869,4.4618,4.4292,4.3966,4.0099,3.9647,3.9925,0.0,0.0,0.0,4.1932,4.1957,4.153,0.0,0.0,0.0,0.0,0.0,0.0,0.0,0.0,0.0,0.0,0.0,0.0,0.0,0.0,0.0,0.0,5.2754,5.2754,5.2754,5.2754,5.2528,5.2051,5.2026,5.18,5.1297,5.1272,5.1247,5.1197,5.1247,5.1222,5.1096,5.1147,5.1147,5.1071,5.0569,5.0645,5.1147,5.0569,5.0695,5.1272,5.1222,5.1498,5.2026,5.2026,5.2026,5.2026,5.2026,5.2026,5.2076,5.2578,5.2477,5.2176,5.2678,5.2879,5.2929,5.2854,5.2879,5.2904,5.2854,5.2427,5.2126,5.2628,5.2427,5.2226,5.2628,5.2427,5.2226,5.2653,5.2402,5.2226,5.2653,5.195,5.1272,5.1272,5.0343,4.959,4.959,4.959,4.959,4.959,4.959,4.959,4.959,4.959,4.959,4.959,4.959,4.959,4.959,4.959,4.9364,4.8887,4.8309,4.7782,4.733,4.6728,4.6376,4.6301,4.5824,4.5271,4.4719,4.4719,4.4694,0.0,0.0,0.0,0.0,0.0,0.0,4.0124,4.093,4.1781,0.0,0.0,0.0,0.0,0.0,0.0,0.0,0.0,0.0,0.0,0.0,0.0,0.0,0.0,0.0,0.0,5.1599,5.1599,5.1599,5.1599,5.1548,5.1448,5.1448,5.1398,5.1272,5.1272,5.1046,5.0594,5.1046,5.082,4.9941,5.0368,5.0343,4.9916,4.9816,5.0067,5.0544,4.9992,5.0343,5.1247,5.077,5.0921,5.1448,5.1448,5.1448,5.1448,5.1448,5.1448,5.1448,5.1574,5.1825,5.2126,5.2226,5.2578,5.2854,5.2402,5.2578,5.2829,5.2402,5.1875,5.1473,5.1574,5.185,5.2026,5.1674,5.185,5.2026,5.1674,5.1875,5.2,5.1674,5.1423,5.1272,5.1272,5.0343,4.959,4.959,4.959,4.959,4.959,4.959,4.959,4.959,4.959,4.959,4.959,4.959,4.959,4.959,4.959,4.954,4.9439,4.8912,4.856,4.846,4.7481,4.6753,4.6301,4.62,4.5874,4.5321,4.5321,4.507,0.0,0.0,0.0,4.2158,0.0,0.0,0.0,4.0325,4.0251,3.9094,0.0,0.0,0.0,0.0,0.0,0.0,0.0,0.0,0.0,0.0,0.0,0.0,0.0,0.0,0.0,5.0293,5.0544,5.082,5.1122,5.1147,5.087,5.0845,5.072,5.0444,5.0444,5.0293,5.0017,5.0293,5.0167,4.959,4.9866,4.9866,4.959,4.959,4.9741,4.9992,4.9715,4.9916,5.0419,5.0117,5.0167,5.0469,5.0745,5.0845,5.0845,5.0845,5.0845,5.0896,5.1172,5.1272,5.1322,5.1599,5.1875,5.2051,5.1774,5.19,5.2176,5.2427,5.2126,5.1699,5.1699,5.2101,5.2302,5.1473,5.1498,5.1624,5.1348,5.1272,5.1272,5.1272,5.1046,5.0845,5.0845,5.0167,4.959,4.959,4.959,4.959,4.959,4.959,4.959,4.959,4.959,4.959,4.959,4.959,4.959,4.959,4.959,4.959,4.959,4.9063,4.8636,4.836,4.7556,4.7004,4.6728,4.6451,4.6175,4.5899,4.5899,4.5748,0.0,0.0,0.0,0.0,0.0,4.2208,0.0,0.0,0.0,3.7839,0.0,0.0,0.0,0.0,0.0,0.0,0.0,0.0,0.0,0.0,0.0,0.0,0.0,0.0,0.0,4.8535,4.9088,4.9741,5.0117,5.0218,4.9941,4.9941,4.9766,4.9439,4.9439,4.949,4.959,4.959,4.954,4.9439,4.9439,4.9439,4.9439,4.9439,4.949,4.959,4.959,4.959,4.959,4.959,4.954,4.949,5.0042,5.0268,5.0268,5.0268,5.0268,5.0318,5.0795,5.072,5.0494,5.0971,5.1122,5.1147,5.1247,5.1122,5.1197,5.2302,5.2201,5.1774,5.1774,5.2201,5.2327,5.1222,5.1046,5.1096,5.0971,5.067,5.0519,5.0896,5.067,5.0419,5.0419,4.9967,4.959,4.959,4.959,4.959,4.959,4.959,4.959,4.959,4.959,4.959,4.959,4.959,4.959,4.959,4.959,4.959,4.959,4.9163,4.8661,4.8083,4.7657,4.7355,4.7068,4.6702,4.6426,4.6301,4.6301,4.6301,0.0,0.0,0.0,0.0,4.7305,0.0,0.0,0.0,4.2384,3.932,0.0,0.0,0.0,0.0,0.0,0.0,0.0,0.0,0.0,0.0,0.0,0.0,0.0,0.0,0.0,0.0,4.6376,4.7431,4.7104,4.7255,4.8134,4.8184,4.841,4.8862,4.8862,4.9113,4.959,4.959,4.9339,4.8862,4.8862,4.8862,4.8862,4.8862,4.9138,4.959,4.959,4.959,4.959,4.959,4.9314,4.8912,4.9464,4.969,4.969,4.969,4.969,4.969,4.9766,5.0067,5.0419,5.0494,5.0519,5.0619,5.1122,5.0569,5.0017,5.1147,5.1046,5.0619,5.0619,5.1046,5.1197,5.0067,5.0167,5.0368,4.9891,5.0117,5.0293,4.9866,5.0117,5.0419,5.0419,4.9967,4.959,4.959,4.959,4.959,4.959,4.959,4.959,4.959,4.959,4.959,4.959,4.959,4.959,4.959,4.959,4.959,4.959,4.954,4.9238,4.8686,4.8611,4.8109,4.7068,4.7079,4.6778,4.6301,4.6301,4.6301,0.0,0.0,0.0,0.0,0.0,0.0,0.0,0.0,4.1882,0.0,0.0,0.0,0.0,0.0,0.0,0.0,0.0,0.0,0.0,0.0,0.0,0.0,0.0,0.0,0.0,0.0,0.0,0.0,0.0,4.5673,4.6451,4.7104,4.7707,4.8259,4.8259,4.8385,4.8611,4.8611,4.851,4.8259,4.8259,4.8259,4.8259,4.8259,4.8385,4.8611,4.8611,4.8611,4.8611,4.8611,4.8485,4.8284,4.8535,4.8812,4.9163,4.949,4.959,4.959,4.959,4.9741,4.9941,4.9941,4.9941,5.0042,5.0619,5.0218,4.9841,5.0971,5.087,5.0419,5.0419,5.0845,5.0996,4.9866,5.0017,5.0268,4.9715,4.9766,4.9866,4.964,4.9791,4.9941,4.9941,4.9741,4.959,4.959,4.959,4.959,4.959,4.959,4.959,4.959,4.959,4.959,4.959,4.959,4.959,4.959,4.959,4.959,4.959,4.959,4.949,4.9264,4.8937,4.8535,4.8083,4.7732,4.7305,4.6778,4.6451,4.6476,4.9565,0.0,0.0,0.0,0.0,0.0,0.0,0.0,0.0,0.0,0.0,0.0,0.0,0.0,0.0,3.8994,0.0,0.0,0.0,0.0,0.0,0.0,0.0,0.0,0.0,0.0,0.0,0.0,0.0,0.0,4.4744,4.5698,4.6602,4.7431,4.7606,4.7757,4.7908,4.7908,4.7832,4.7682,4.7682,4.7682,4.7682,4.7682,4.7782,4.7908,4.7908,4.7908,4.7908,4.7908,4.7832,4.7707,4.7857,4.8083,4.841,4.9113,4.9364,4.9389,4.954,4.959,4.959,4.959,4.959,4.9665,5.0067,4.9916,4.9766,5.0594,5.0519,5.0193,5.0193,5.0519,5.0619,4.9791,4.9891,5.0067,4.969,4.959,4.959,4.959,4.959,4.959,4.959,4.959,4.959,4.959,4.959,4.959,4.959,4.959,4.959,4.959,4.959,4.959,4.959,4.959,4.959,4.959,4.959,4.959,4.959,4.959,4.959,4.959,4.9213,4.8912,4.8761,4.836,4.7857,4.733,4.6928,4.6878,0.0,0.0,0.0,4.8987,0.0,0.0,0.0,0.0,4.3915,0.0,0.0,0.0,0.0,0.0,3.9019,3.9572,3.8266,0.0,0.0,0.0,0.0,0.0,0.0,0.0,0.0,0.0,0.0,0.0,0.0,0.0,4.2936,4.3589,4.4669,4.6301,4.6878,4.7405,4.7908,4.7908,4.7657,4.7093,4.7093,4.7093,4.7093,4.7093,4.7431,4.7908,4.7908,4.7908,4.7908,4.7908,4.7606,4.7143,4.7707,4.7606,4.7305,4.841,4.8786,4.8862,4.9414,4.959,4.959,4.959,4.959,4.959,4.9615,4.9615,4.9615,4.964,4.964,4.9615,4.9615,4.964,4.964,4.9615,4.9615,4.9615,4.959,4.959,4.959,4.959,4.959,4.959,4.959,4.959,4.959,4.959,4.959,4.959,4.959,4.959,4.959,4.959,4.959,4.959,4.959,4.959,4.959,4.959,4.959,4.959,4.959,4.959,4.959,4.959,4.9565,4.9314,4.8761,4.8761,4.8435,4.7883,4.7857,4.7606,0.0,0.0,5.5214,5.1147,0.0,0.0,0.0,0.0,0.0,0.0,0.0,0.0,0.0,0.0,3.9471,3.9672,3.8592,3.7739,0.0,0.0,0.0,0.0,0.0,0.0,0.0,0.0,0.0,0.0,0.0,0.0,0.0,4.2007,4.3463,4.5146,4.5748,4.6301,4.6853,4.6853,4.6753,4.6602,4.6602,4.6602,4.6602,4.6602,4.6677,4.6853,4.6853,4.6853,4.6853,4.6853,4.6753,4.6602,4.6778,4.6753,4.6778,4.8234,4.8761,4.8862,4.9414,4.959,4.959,4.959,4.959,4.959,4.959,4.959,4.959,4.959,4.959,4.959,4.959,4.959,4.959,4.959,4.959,4.959,4.959,4.959,4.959,4.959,4.959,4.959,4.959,4.959,4.959,4.959,4.959,4.959,4.959,4.959,4.959,4.959,4.959,4.959,4.959,4.959,4.959,4.959,4.959,4.959,4.959,4.959,4.959,4.959,4.959,4.9515,4.9314,4.9314,4.9038,4.8485,4.8862,4.8736,5.5691,5.6194,0.0,5.2729,5.1724,0.0,4.6677,0.0,0.0,0.0,0.0,0.0,0.0,0.0,4.0174,4.0777,3.9245,3.7864,0.0,3.6857,0.0,0.0,0.0,0.0,0.0,0.0,0.0,3.578,3.6458,0.0,0.0,0.0,4.2333,4.3991,4.4769,4.5347,4.5698,4.5723,4.5824,4.6024,4.6024,4.6125,4.6301,4.6301,4.6301,4.6301,4.6301,4.6301,4.6301,4.6301,4.6301,4.6301,4.6301,4.6426,4.6753,4.8008,4.8711,4.9113,4.9464,4.959,4.959,4.959,4.959,4.959,4.959,4.959,4.9565,4.9364,4.9439,4.9565,4.9364,4.9439,4.959,4.959,4.959,4.959,4.959,4.959,4.959,4.959,4.959,4.959,4.959,4.959,4.959,4.959,4.959,4.959,4.959,4.959,4.959,4.959,4.959,4.959,4.959,4.959,4.959,4.959,4.959,4.959,4.959,4.959,4.969,4.9891,4.969,4.969,4.9891,4.969,4.9414,4.9063,4.9439,4.9414]}]]